[[{"header":{"parameterUnit":"m.s-1","parameterCategory":1,"la1":30.6,"la2":29.2853,"lo1":-89.7004,"lo2":-87.6739,"dy":0.0162,"dx":0.0183,"nx":112,"ny":82,"refTime":"2025-04-08T06:00:00:Z","depth":0,"parameterNumber":2,"parameterNumberName":"U-component_of_WINDS"},"data":[0.0,0.0,0.0,0.0,0.0,0.0,0.0,0.0,0.0,0.0,0.0,0.0,0.0,0.0,0.0,0.0,0.0,0.0,0.0,0.0,0.0,0.0,0.0,0.0,0.0,0.0,0.0,0.0,0.0,0.0,0.0,0.0,0.0,0.0,0.0,0.0,0.0,0.0,0.0,0.0,0.0,0.0,0.0,0.0,0.0,0.0,0.0,0.0,0.0,0.0,0.0,0.0,0.0,0.0,0.0,0.0,0.0,0.0,0.0,0.0,0.0,0.0,0.0,0.0,0.0,0.0,0.0,0.0,0.0,0.0,0.0,0.0,0.0,0.0,0.0,0.0,0.0,0.0,0.0,0.0,0.0,0.0,0.0,0.0,0.0,0.0,0.0,0.0,0.0,0.0,0.0,2.7058,2.9811,3.1455,3.124,2.9555,2.7374,2.4792,0.0,0.0,0.0,0.0,0.0,0.0,0.0,0.0,0.0,0.0,0.0,0.0,0.0,0.0,0.0,0.0,0.0,0.0,0.0,0.0,0.0,0.0,0.0,0.0,0.0,0.0,0.0,0.0,0.0,0.0,0.0,0.0,0.0,0.0,0.0,0.0,0.0,0.0,0.0,0.0,0.0,0.0,0.0,0.0,0.0,0.0,0.0,0.0,0.0,0.0,0.0,0.0,0.0,0.0,0.0,0.0,0.0,0.0,0.0,0.0,0.0,0.0,0.0,0.0,0.0,0.0,0.0,0.0,0.0,0.0,0.0,0.0,0.0,0.0,0.0,0.0,0.0,0.0,0.0,0.0,0.0,0.0,0.0,0.0,0.0,0.0,0.0,0.0,0.0,0.0,0.0,0.0,0.0,0.0,0.0,0.0,0.0,0.0,0.0,0.0,0.0,0.0,0.0,0.0,2.5819,3.0043,3.2009,3.2631,3.148,3.0419,2.8465,2.5308,0.0,0.0,0.0,0.0,0.0,0.0,0.0,0.0,0.0,0.0,0.0,0.0,0.0,0.0,0.0,0.0,0.0,0.0,0.0,0.0,0.0,0.0,0.0,0.0,0.0,0.0,0.0,0.0,0.0,0.0,0.0,0.0,0.0,0.0,0.0,0.0,0.0,0.0,0.0,0.0,0.0,0.0,0.0,0.0,0.0,0.0,0.0,0.0,0.0,0.0,0.0,0.0,0.0,0.0,0.0,0.0,0.0,0.0,0.0,0.0,0.0,0.0,0.0,0.0,0.0,0.0,0.0,0.0,0.0,0.0,0.0,0.0,0.0,0.0,0.0,0.0,0.0,0.0,0.0,0.0,0.0,0.0,0.0,0.0,0.0,0.0,0.0,0.0,0.0,0.0,0.0,0.0,0.0,0.0,0.0,0.0,0.0,0.0,0.0,0.0,0.0,0.0,0.0,2.6079,2.8077,3.25,3.2907,3.2602,3.2078,2.9946,2.7687,2.5349,2.2611,0.0,0.0,0.0,0.0,0.0,0.0,0.0,0.0,0.0,0.0,0.0,0.0,0.0,0.0,0.0,0.0,0.0,0.0,0.0,0.0,0.0,0.0,0.0,0.0,0.0,0.0,0.0,0.0,0.0,0.0,0.0,0.0,0.0,0.0,0.0,0.0,0.0,0.0,0.0,0.0,0.0,0.0,0.0,0.0,0.0,0.0,0.0,0.0,0.0,0.0,0.0,0.0,0.0,0.0,0.0,0.0,0.0,0.0,0.0,0.0,0.0,0.0,0.0,0.0,0.0,0.0,0.0,0.0,0.0,0.0,0.0,0.0,0.0,0.0,0.0,0.0,0.0,0.0,0.0,0.0,0.0,0.0,0.0,0.0,0.0,0.0,0.0,0.0,0.0,0.0,0.0,0.0,0.0,0.0,0.0,0.0,0.0,0.0,0.0,0.0,0.0,0.0,2.9412,3.0688,3.4126,3.3528,3.2738,3.2331,2.9505,2.691,2.5116,2.228,0.0,0.0,0.0,0.0,0.0,0.0,0.0,0.0,0.0,0.0,0.0,0.0,0.0,0.0,0.0,0.0,0.0,0.0,0.0,0.0,0.0,0.0,0.0,0.0,0.0,0.0,0.0,0.0,0.0,0.0,0.0,0.0,0.0,0.0,0.0,0.0,0.0,0.0,0.0,0.0,0.0,0.0,0.0,0.0,0.0,0.0,0.0,0.0,0.0,0.0,0.0,0.0,0.0,0.0,0.0,0.0,0.0,0.0,0.0,0.0,0.0,0.0,0.0,0.0,0.0,0.0,0.0,0.0,0.0,0.0,0.0,0.0,0.0,0.0,0.0,0.0,0.0,0.0,0.0,0.0,0.0,0.0,0.0,0.0,0.0,0.0,0.0,0.0,0.0,0.0,0.0,0.0,0.0,0.0,0.0,0.0,0.0,0.0,0.0,0.0,0.0,0.0,3.0577,3.3059,3.4346,3.4472,3.3694,3.1838,2.9624,2.7211,2.4544,2.1952,0.0,0.0,0.0,0.0,0.0,0.0,0.0,0.0,0.0,0.0,0.0,0.0,0.0,0.0,0.0,0.0,0.0,0.0,0.0,0.0,0.0,0.0,0.0,0.0,0.0,0.0,0.0,0.0,0.0,0.0,0.0,0.0,0.0,0.0,0.0,0.0,0.0,0.0,0.0,0.0,0.0,0.0,0.0,0.0,0.0,0.0,0.0,0.0,0.0,0.0,0.0,0.0,0.0,0.0,0.0,0.0,0.0,0.0,0.0,0.0,0.0,0.0,0.0,0.0,0.0,0.0,0.0,0.0,0.0,0.0,0.0,0.0,0.0,0.0,0.0,0.0,0.0,0.0,0.0,0.0,0.0,0.0,0.0,0.0,0.0,0.0,0.0,0.0,0.0,0.0,0.0,0.0,0.0,0.0,0.0,0.0,0.0,0.0,0.0,0.0,0.0,0.0,3.0679,3.2534,0.0,3.4218,3.3157,3.1173,2.9071,2.6857,2.4451,0.0,0.0,0.0,0.0,0.0,0.0,0.0,0.0,0.0,0.0,0.0,0.0,0.0,0.0,0.0,0.0,0.0,0.0,0.0,0.0,0.0,0.0,0.0,0.0,0.0,0.0,0.0,0.0,0.0,0.0,0.0,0.0,0.0,0.0,0.0,0.0,0.0,0.0,0.0,0.0,0.0,0.0,0.0,0.0,0.0,0.0,0.0,0.0,0.0,0.0,0.0,0.0,0.0,0.0,0.0,0.0,0.0,0.0,0.0,0.0,0.0,0.0,0.0,0.0,0.0,0.0,0.0,0.0,0.0,0.0,0.0,0.0,0.0,0.0,0.0,0.0,0.0,0.0,0.0,0.0,0.0,0.0,0.0,0.0,0.0,0.0,0.0,0.0,0.0,0.0,0.0,0.0,0.0,0.0,0.0,0.0,0.0,0.0,0.0,0.0,0.0,0.0,2.9386,3.1067,3.2606,0.0,3.3987,3.2847,3.1047,2.8677,2.6574,2.4911,0.0,0.0,0.0,0.0,0.0,0.0,0.0,0.0,0.0,0.0,0.0,0.0,0.0,0.0,0.0,0.0,0.0,0.0,0.0,0.0,0.0,0.0,0.0,0.0,0.0,0.0,0.0,0.0,0.0,0.0,0.0,0.0,0.0,0.0,0.0,0.0,0.0,0.0,0.0,0.0,0.0,0.0,0.0,0.0,0.0,0.0,0.0,0.0,0.0,0.0,0.0,0.0,0.0,0.0,0.0,0.0,0.0,0.0,0.0,0.0,0.0,0.0,0.0,0.0,0.0,0.0,0.0,0.0,0.0,0.0,0.0,0.0,0.0,0.0,0.0,0.0,0.0,0.0,0.0,0.0,0.0,0.0,0.0,0.0,0.0,0.0,0.0,0.0,0.0,0.0,0.0,0.0,0.0,0.0,0.0,0.0,0.0,0.0,0.0,0.0,0.0,0.0,2.9513,3.1939,3.3688,3.4492,3.4003,3.3069,3.1694,2.8556,2.6412,0.0,0.0,0.0,0.0,0.0,0.0,0.0,0.0,0.0,0.0,0.0,0.0,0.0,0.0,0.0,0.0,0.0,0.0,0.0,0.0,0.0,0.0,0.0,0.0,0.0,0.0,0.0,0.0,0.0,0.0,0.0,0.0,0.0,0.0,0.0,0.0,0.0,0.0,0.0,0.0,0.0,0.0,0.0,0.0,0.0,0.0,0.0,0.0,0.0,0.0,0.0,0.0,0.0,0.0,0.0,0.0,0.0,0.0,0.0,0.0,0.0,0.0,0.0,0.0,0.0,0.0,0.0,0.0,0.0,0.0,0.0,0.0,0.0,0.0,0.0,0.0,0.0,0.0,0.0,0.0,0.0,0.0,0.0,0.0,0.0,0.0,0.0,0.0,0.0,0.0,0.0,0.0,0.0,0.0,0.0,0.0,0.0,0.0,0.0,0.0,0.0,0.0,0.0,2.9527,3.1941,3.3722,3.4535,3.3947,3.2989,3.1667,2.8959,2.6914,2.5967,0.0,0.0,0.0,0.0,0.0,0.0,0.0,0.0,0.0,0.0,0.0,0.0,0.0,0.0,0.0,0.0,0.0,0.0,0.0,0.0,0.0,0.0,0.0,0.0,0.0,0.0,0.0,0.0,0.0,0.0,0.0,0.0,0.0,0.0,0.0,0.0,0.0,0.0,0.0,0.0,0.0,0.0,0.0,0.0,0.0,0.0,0.0,0.0,0.0,0.0,0.0,0.0,0.0,0.0,0.0,0.0,0.0,0.0,0.0,0.0,0.0,0.0,0.0,0.0,0.0,0.0,0.0,0.0,0.0,0.0,0.0,0.0,0.0,0.0,0.0,0.0,0.0,0.0,0.0,0.0,0.0,0.0,0.0,0.0,0.0,0.0,0.0,0.0,0.0,0.0,0.0,0.0,0.0,0.0,0.0,0.0,0.0,0.0,0.0,0.0,0.0,0.0,2.9951,3.2386,3.417,3.4963,3.4344,3.3361,3.2032,2.9744,2.7826,2.6383,0.0,0.0,0.0,0.0,0.0,0.0,0.0,0.0,0.0,0.0,0.0,0.0,0.0,0.0,0.0,0.0,0.0,0.0,0.0,0.0,0.0,0.0,0.0,0.0,0.0,0.0,0.0,0.0,0.0,0.0,0.0,0.0,0.0,0.0,0.0,0.0,0.0,0.0,0.0,0.0,0.0,0.0,0.0,0.0,0.0,0.0,0.0,0.0,0.0,0.0,0.0,0.0,0.0,0.0,0.0,0.0,0.0,0.0,0.0,0.0,0.0,0.0,0.0,0.0,0.0,0.0,0.0,0.0,0.0,0.0,0.0,0.0,0.0,0.0,0.0,0.0,0.0,0.0,0.0,0.0,0.0,0.0,0.0,0.0,0.0,0.0,0.0,0.0,0.0,0.0,0.0,0.0,0.0,0.0,0.0,0.0,0.0,0.0,0.0,0.0,0.0,0.0,3.0602,3.3035,3.4854,3.57,3.5008,3.3949,3.2706,3.0791,2.8915,2.7024,0.0,0.0,0.0,0.0,0.0,0.0,0.0,0.0,0.0,0.0,0.0,0.0,0.0,0.0,0.0,0.0,0.0,0.0,0.0,0.0,0.0,0.0,0.0,0.0,0.0,0.0,0.0,0.0,0.0,0.0,0.0,0.0,0.0,0.0,0.0,0.0,0.0,0.0,0.0,0.0,0.0,0.0,0.0,0.0,0.0,0.0,0.0,0.0,0.0,0.0,0.0,0.0,0.0,0.0,0.0,0.0,0.0,0.0,0.0,0.0,2.3184,0.0,0.0,0.0,0.0,0.0,0.0,0.0,0.0,0.0,0.0,0.0,0.0,0.0,0.0,0.0,0.0,0.0,0.0,0.0,0.0,0.0,0.0,0.0,0.0,0.0,0.0,0.0,0.0,0.0,0.0,0.0,0.0,0.0,0.0,0.0,0.0,0.0,0.0,0.0,0.0,0.0,3.0602,3.2984,3.4926,3.631,3.5272,3.4164,3.335,3.145,2.9426,2.7273,0.0,0.0,0.0,0.0,0.0,0.0,0.0,0.0,0.0,0.0,0.0,0.0,0.0,0.0,0.0,0.0,0.0,0.0,0.0,0.0,0.0,0.0,0.0,0.0,0.0,0.0,0.0,0.0,0.0,0.0,0.0,0.0,0.0,0.0,0.0,0.0,0.0,0.0,0.0,0.0,0.0,0.0,0.0,0.0,0.0,0.0,0.0,0.0,0.0,0.0,0.0,0.0,0.0,0.0,0.0,0.0,0.0,0.0,0.0,0.0,0.0,2.4657,0.0,0.0,0.0,0.0,0.0,0.0,0.0,0.0,0.0,0.0,0.0,0.0,0.0,0.0,0.0,0.0,0.0,0.0,0.0,0.0,0.0,0.0,0.0,0.0,0.0,0.0,0.0,0.0,0.0,0.0,0.0,0.0,0.0,0.0,0.0,0.0,0.0,0.0,0.0,0.0,3.0962,3.3432,3.5403,3.651,3.5645,3.4696,3.4023,3.2422,3.0493,2.8296,2.5706,0.0,0.0,0.0,0.0,0.0,0.0,0.0,0.0,0.0,0.0,0.0,0.0,0.0,0.0,0.0,0.0,0.0,0.0,0.0,0.0,0.0,0.0,0.0,0.0,0.0,0.0,0.0,0.0,0.0,0.0,0.0,0.0,0.0,0.0,0.0,0.0,0.0,0.0,0.0,0.0,0.0,0.0,0.0,0.0,0.0,0.0,0.0,0.0,0.0,0.0,0.0,0.0,0.0,3.0225,3.1255,3.1829,3.2437,3.2732,3.2558,2.9412,2.8146,2.8164,0.0,0.0,0.0,0.0,0.0,0.0,0.0,0.0,0.0,0.0,0.0,0.0,0.0,0.0,0.0,0.0,0.0,0.0,0.0,0.0,0.0,0.0,0.0,0.0,0.0,3.2074,3.1919,0.0,0.0,0.0,0.0,0.0,0.0,0.0,0.0,0.0,0.0,0.0,0.0,3.1541,3.4102,3.5989,3.6537,3.5943,3.5235,3.4532,3.338,3.1772,2.955,2.755,2.552,0.0,0.0,0.0,0.0,0.0,0.0,0.0,0.0,0.0,0.0,0.0,0.0,0.0,0.0,0.0,0.0,0.0,0.0,0.0,0.0,0.0,0.0,0.0,0.0,0.0,0.0,0.0,0.0,0.0,0.0,0.0,0.0,1.8185,1.8236,0.0,0.0,0.0,0.0,0.0,0.0,0.0,0.0,0.0,0.0,0.0,0.0,0.0,0.0,3.0077,3.2371,3.3382,3.3089,3.4668,3.5297,3.4992,3.5094,3.5145,3.5111,3.4635,0.0,3.0565,3.0346,0.0,0.0,0.0,0.0,0.0,0.0,0.0,0.0,0.0,0.0,0.0,0.0,0.0,0.0,0.0,0.0,0.0,0.0,0.0,0.0,0.0,0.0,3.4058,3.4889,3.4694,3.4464,0.0,3.1638,2.8264,2.7346,0.0,0.0,0.0,0.0,0.0,0.0,0.0,0.0,3.2294,3.4883,3.6568,3.6583,3.5943,3.5235,3.4532,3.3784,3.2482,3.0428,2.9337,2.8109,2.6636,2.5021,0.0,0.0,0.0,0.0,0.0,0.0,0.0,0.0,0.0,0.0,0.0,0.0,0.0,0.0,0.0,0.0,0.0,0.0,0.0,0.0,0.0,0.0,0.0,0.0,0.0,0.0,0.0,0.0,0.0,1.9387,2.1082,2.0188,2.1156,2.1674,0.0,0.0,0.0,0.0,0.0,0.0,0.0,0.0,0.0,2.9866,3.085,3.1874,3.2956,3.4885,3.5745,3.5564,3.7092,3.7733,3.7533,3.7939,3.8125,3.8125,3.8125,3.7126,3.5359,3.3446,3.2086,3.1063,0.0,0.0,0.0,0.0,3.0963,3.2041,3.2791,3.2944,0.0,0.0,0.0,0.0,0.0,0.0,0.0,0.0,0.0,0.0,0.0,0.0,0.0,3.6964,3.7228,3.7447,3.8051,3.6299,3.3957,0.0,3.0595,2.9085,2.5783,0.0,0.0,0.0,0.0,0.0,3.2929,3.5182,3.6506,3.6041,3.5668,3.5385,3.5085,3.4442,3.335,3.1734,3.0852,2.994,2.9061,2.7365,2.5898,0.0,0.0,0.0,0.0,0.0,0.0,0.0,0.0,0.0,0.0,0.0,0.0,0.0,0.0,0.0,0.0,0.0,0.0,0.0,0.0,0.0,0.0,0.0,0.0,0.0,0.0,0.0,0.0,2.142,2.3152,2.1633,2.3109,2.3695,0.0,0.0,0.0,0.0,0.0,0.0,2.9899,3.0953,3.1991,3.2963,3.399,3.5013,3.5926,3.7246,3.8007,3.821,3.9309,3.9834,3.9851,4.0392,4.0646,4.0646,4.0646,4.0341,3.9613,3.6307,3.4668,3.4161,3.2641,3.2405,3.2911,3.3055,3.374,3.4723,3.5822,3.6282,3.6274,3.5332,0.0,3.4557,3.2594,0.0,0.0,0.0,0.0,3.4092,3.5279,3.6561,3.7707,3.8492,3.9128,3.9633,3.9743,3.9615,3.851,0.0,3.4769,3.3493,2.9566,0.0,0.0,0.0,0.0,3.4052,3.3906,3.5712,3.6593,3.5638,3.5504,3.5504,3.5504,3.4876,3.4053,3.308,3.2137,3.1427,3.0923,2.9569,2.8312,2.7308,0.0,0.0,0.0,0.0,0.0,0.0,0.0,0.0,0.0,0.0,0.0,0.0,0.0,0.0,0.0,0.0,0.0,0.0,0.0,0.0,0.0,0.0,0.0,0.0,0.0,0.0,0.0,0.0,0.0,2.1572,2.4462,0.0,0.0,0.0,0.0,2.8744,3.0411,3.1939,3.3117,3.3889,3.4989,3.6497,3.7263,3.8379,3.9817,4.0595,4.1322,4.2016,4.2083,4.2117,4.2134,4.2168,4.2185,4.2185,4.2185,4.2151,4.1897,3.8903,3.6823,3.5464,3.5067,3.4944,3.5099,3.5489,3.6629,3.7875,3.7471,3.7655,3.8227,3.9173,3.8314,3.6685,3.5819,3.4462,0.0,0.0,3.5205,3.637,3.7897,3.8584,3.9103,3.9832,4.0035,4.0217,4.0706,4.0639,3.9949,0.0,3.7426,3.6725,3.4908,0.0,3.4067,3.4287,3.5235,3.5847,3.553,3.6821,3.7144,3.5683,3.5504,3.5504,3.5504,3.4876,3.4442,3.4382,3.3201,3.2412,3.2268,3.1615,3.0486,2.8903,2.6601,0.0,0.0,0.0,0.0,0.0,0.0,0.0,0.0,0.0,0.0,0.0,0.0,0.0,0.0,0.0,0.0,0.0,0.0,0.0,0.0,0.0,0.0,0.0,0.0,0.0,0.0,0.0,0.0,2.5277,2.8201,0.0,2.7994,2.966,3.1142,3.1765,3.3311,3.4601,3.552,3.6738,3.7872,3.8903,3.9648,4.051,4.1508,4.1779,4.2033,4.2286,4.2286,4.2286,4.2286,4.2286,4.2286,4.2286,4.2286,4.2286,4.2202,4.117,4.0409,3.9834,3.9285,3.9316,3.9722,3.9388,3.9928,4.0803,4.0624,4.0349,4.0109,3.9813,3.8955,3.8039,3.8104,3.7708,3.7347,3.777,3.8183,3.8618,3.9358,3.961,3.9749,4.002,4.007,4.0171,4.0319,4.059,4.0622,3.9937,3.9824,3.9017,3.6463,3.6721,3.672,3.5122,3.6079,3.6751,3.6348,3.6753,3.6631,3.5619,3.5504,3.5504,3.5504,3.528,3.4771,3.3903,3.341,3.2928,3.2523,3.141,3.0688,3.0478,2.8334,2.5931,0.0,0.0,0.0,0.0,0.0,0.0,0.0,0.0,0.0,0.0,0.0,0.0,0.0,0.0,0.0,0.0,0.0,0.0,0.0,0.0,0.0,0.0,0.0,0.0,0.0,0.0,2.9159,2.7819,3.0879,3.2398,3.0709,3.2534,3.41,3.4861,3.6062,3.7212,3.8227,3.9208,4.0087,4.0832,4.1322,4.1931,4.2658,4.2675,4.2929,4.3436,4.3436,4.3389,4.3367,4.3681,4.3625,4.3367,4.3681,4.3809,4.3809,4.3809,4.3809,4.3656,4.2151,4.1863,4.2236,4.1745,4.188,4.2286,4.2286,4.1982,4.1442,4.0791,4.025,3.9932,4.0283,4.0374,4.0388,4.0535,4.0594,4.0634,4.0782,4.0815,4.0815,4.0815,4.0815,4.0747,4.051,4.0891,4.1232,4.0955,4.1126,4.0709,3.8688,3.9055,3.9022,3.7274,3.753,3.7678,3.7151,3.6801,3.6337,3.5554,3.5504,3.5504,3.5504,3.5295,3.4771,3.3888,3.32,3.2658,3.2262,3.1306,3.0878,3.0965,2.9008,2.6833,2.4506,0.0,0.0,0.0,0.0,0.0,0.0,0.0,0.0,0.0,0.0,0.0,0.0,0.0,0.0,0.0,0.0,0.0,0.0,0.0,0.0,0.0,0.0,0.0,2.6254,2.9087,3.0657,2.8974,3.2242,3.395,3.2015,3.4911,3.7229,3.799,3.87,3.9715,4.1101,4.1238,4.1576,4.2286,4.2354,4.2726,4.3487,4.3504,4.4265,4.5737,4.5737,4.563,4.5494,4.6378,4.6317,4.5511,4.6394,4.6786,4.6786,4.6786,4.6786,4.6498,4.3555,4.2405,4.2388,4.2371,4.2354,4.2354,4.2337,4.232,4.232,4.2303,4.2286,4.2286,4.2286,4.2286,4.2286,4.2286,4.2286,4.2286,4.2286,4.2286,4.2286,4.2286,4.2286,4.21,4.139,4.1696,4.1895,4.1099,4.141,4.1785,4.1768,4.1313,4.0903,4.0856,3.9699,0.0,3.7863,3.71,3.6275,3.5554,3.5504,3.5504,3.5504,3.4876,3.4472,3.4442,3.2617,3.1482,3.1482,3.1482,3.115,3.0462,2.8777,2.6793,2.4608,0.0,0.0,0.0,0.0,0.0,0.0,0.0,0.0,0.0,0.0,0.0,0.0,0.0,0.0,0.0,0.0,0.0,0.0,0.0,0.0,0.0,0.0,3.129,2.9281,3.1609,3.3184,3.2269,3.4447,3.6263,3.683,3.8264,3.9723,4.0966,4.1271,4.1261,4.1067,4.1627,4.2088,4.2235,4.3345,4.4316,4.5077,4.5602,4.6075,4.6498,4.6498,4.6465,4.6455,4.665,4.665,4.6455,4.6727,4.6786,4.6786,4.6786,4.6786,4.665,4.5297,4.4773,4.4705,4.4147,4.3944,4.3859,4.3301,4.3115,4.3014,4.2472,4.2286,4.2286,4.2286,4.2286,4.2286,4.2286,4.2286,4.2286,4.2286,4.2286,4.2286,4.2286,4.2286,4.2236,4.2033,4.214,4.2159,4.1937,4.1613,4.1326,4.1192,4.0995,4.078,4.0368,3.9069,0.0,3.7822,3.6662,3.5718,3.5504,3.5504,3.5504,3.5504,3.4876,3.4262,3.3799,3.2362,3.1482,3.1482,3.1096,3.0959,3.1144,3.0045,2.8636,0.0,0.0,0.0,0.0,0.0,0.0,0.0,0.0,0.0,0.0,0.0,0.0,0.0,0.0,0.0,0.0,0.0,0.0,0.0,0.0,0.0,0.0,3.2983,3.4233,3.3891,3.4969,3.5705,3.5294,3.6917,3.8552,3.9761,4.0601,4.1368,4.2252,4.1984,4.1977,4.2482,4.2629,4.317,4.4106,4.5017,4.572,4.616,4.6583,4.6955,4.7259,4.7259,4.7214,4.7161,4.7518,4.7518,0.0,4.7578,4.7716,4.7716,4.7716,4.7716,0.0,0.0,0.0,0.0,0.0,4.55,4.5432,4.4993,4.4823,4.4705,4.3961,4.3724,4.3656,4.3352,4.325,4.325,4.325,4.325,4.325,4.325,4.325,4.325,4.325,4.325,4.3166,4.2828,4.276,4.2675,4.2354,0.0,0.0,4.1507,4.0988,4.0449,4.0171,3.8778,3.7822,3.7822,3.643,3.5504,3.5504,3.5504,3.5504,3.5504,3.4876,0.0,0.0,0.0,3.1483,3.1482,3.1185,0.0,0.0,0.0,0.0,0.0,0.0,0.0,0.0,2.8387,2.8413,0.0,0.0,0.0,0.0,0.0,0.0,0.0,0.0,0.0,0.0,0.0,0.0,0.0,0.0,0.0,0.0,3.5299,3.6818,3.876,3.8632,3.8241,3.7966,3.9253,4.0423,4.1238,4.1966,4.252,4.2675,4.2016,4.2534,4.4609,0.0,0.0,0.0,0.0,4.6845,4.6785,4.6929,4.7378,4.8037,4.8037,4.7955,4.7803,4.8639,4.8576,4.7803,4.8656,4.9001,4.9001,4.9001,4.9001,4.8866,4.7462,4.687,4.6786,4.6786,4.6786,4.6786,4.6786,0.0,0.0,4.6041,4.5821,4.5703,4.5026,4.4823,4.4823,4.4823,4.4773,4.4705,4.4705,4.4637,4.4587,4.4587,4.4587,4.4384,4.369,4.3555,4.3352,4.2675,4.2472,4.2422,4.2422,4.1255,4.0324,4.0324,3.9133,3.8162,3.8046,3.677,3.5814,3.5624,0.0,0.0,3.5519,3.4876,3.4472,3.4472,3.2766,3.1753,3.1837,3.1902,3.2833,3.4742,3.4759,3.5047,3.5622,3.5707,3.5757,3.5656,3.209,3.162,0.0,0.0,0.0,0.0,0.0,0.0,0.0,0.0,0.0,0.0,0.0,0.0,0.0,0.0,0.0,3.5902,3.7925,3.9394,3.9792,4.0775,4.0962,3.9674,3.9842,4.055,4.1964,4.275,4.3673,4.4936,4.5452,4.558,4.5313,4.5822,0.0,4.4625,4.6641,4.7345,4.6609,4.7872,4.8646,4.8798,0.0,0.0,4.8719,4.894,4.8923,4.8719,4.8923,4.9001,4.9001,4.9001,4.9001,4.8917,4.8037,4.7327,4.6786,4.6786,4.6786,4.6786,4.6786,4.6786,4.6769,4.6616,4.6583,4.6549,4.6413,4.6363,0.0,4.6363,4.594,4.5483,4.5483,4.5043,4.4587,4.4587,4.4587,4.4536,4.4384,4.435,4.4316,4.4164,4.3623,4.32,4.32,4.2455,4.1863,4.1863,4.1111,4.0286,3.9606,3.8701,3.7652,3.6409,3.6297,3.6088,3.5549,3.4876,3.4472,3.4472,3.3619,3.3414,3.4078,3.459,3.5377,3.6349,3.6349,3.6096,3.5622,3.6248,3.6552,3.6518,3.5128,3.4755,0.0,0.0,0.0,0.0,0.0,0.0,0.0,0.0,0.0,0.0,0.0,3.1042,3.249,0.0,3.6474,3.819,3.9715,4.0929,4.1665,4.2083,4.1986,4.1259,4.1822,4.2734,4.3922,4.4658,4.5438,4.621,4.6176,4.633,4.6698,4.6714,4.6616,4.6583,4.8128,4.8798,4.8306,4.9523,5.0118,5.0118,5.0118,5.0118,5.0118,5.0118,5.0118,5.0118,5.0118,5.0118,5.0118,5.0118,5.0118,5.0033,4.9289,4.8545,4.7902,4.7902,4.7902,4.7902,4.7902,4.7902,4.7834,4.7479,4.7361,4.7293,4.6904,4.6786,4.6786,4.6786,4.6532,4.616,4.5805,4.5432,4.5043,4.4671,4.4587,4.4587,4.4587,4.4587,4.4587,4.4587,4.4265,4.3995,4.3995,4.369,4.3183,4.2405,4.1655,4.1058,4.0636,3.987,3.8889,3.7724,3.7628,3.7188,3.6109,3.5385,3.4846,3.4502,3.4561,3.4744,3.5214,3.5877,3.6767,3.7889,3.7889,3.7872,3.7855,3.8244,3.843,3.843,3.843,3.8024,0.0,0.0,0.0,0.0,0.0,0.0,0.0,0.0,2.9201,3.0816,3.2052,3.3429,3.5419,3.716,3.8819,4.0307,4.113,4.2066,4.3411,4.326,4.3032,4.3182,4.4112,4.5094,4.5838,4.6583,4.7005,4.7005,4.6514,4.6724,4.8027,4.7421,4.7611,4.8904,4.9717,5.0088,5.0015,5.0832,5.1217,5.1217,5.1217,5.1217,5.1217,5.1217,5.1217,5.1217,5.1217,5.1217,5.1217,5.1217,5.1217,5.115,5.0541,4.9949,4.939,4.912,4.9001,4.9001,4.9001,4.9001,4.89,4.8325,4.8122,4.802,4.7411,4.7225,4.7225,4.7225,4.7124,4.687,4.6295,4.6024,4.5737,4.4976,4.479,4.4756,4.4604,4.4587,4.4587,4.4587,4.4587,4.4587,4.4587,4.4587,4.4164,4.2912,4.2256,4.1789,4.1618,4.1026,4.016,3.8992,3.8911,3.8273,3.6783,3.6178,3.5689,3.5311,3.5723,3.6146,3.6554,3.6983,3.7835,3.9191,3.9208,3.9495,4.007,4.0223,4.029,4.0307,4.1068,4.0696,2.6129,2.6488,2.7217,2.889,2.8652,2.9155,0.0,0.0,3.2986,3.5163,3.6205,3.7119,3.832,3.9274,4.0324,4.1796,4.2689,4.3445,4.4333,4.497,4.5554,4.6212,4.5848,4.5872,4.6599,4.7344,4.78,4.78,4.8314,4.872,4.8883,4.8804,4.8731,4.8746,4.9617,5.0034,4.9837,5.0725,5.1217,5.1217,5.1217,5.1217,5.1217,5.1217,5.1217,5.1217,5.1217,5.1217,5.1217,5.1217,5.1217,5.12,5.1116,5.1048,5.0811,4.9492,4.9001,4.9001,4.9001,4.9001,4.8984,4.89,4.8883,4.8866,4.8781,4.8748,4.8748,4.8748,4.8291,4.7784,4.7699,4.7175,4.6481,4.5754,4.5585,4.5399,4.4722,4.4587,4.4587,4.4587,4.4587,4.4587,4.4587,4.4587,4.4519,4.435,4.426,4.3944,4.3178,4.2999,4.2096,3.9819,3.9559,3.8964,3.7428,3.724,3.7473,3.8206,3.7667,3.802,3.9555,3.9023,3.9063,3.9952,3.9952,4.0003,4.007,4.0747,4.1085,4.1085,4.183,4.1728,2.8588,2.88,0.0,0.0,3.1011,3.1961,3.4513,3.4785,3.5011,3.687,3.8167,3.9214,4.0138,4.1238,4.2371,0.0,4.4265,4.501,4.5754,4.5771,4.5974,4.6701,4.6532,4.6633,4.7378,4.8122,4.8545,4.8545,4.9221,4.9644,4.9644,5.005,5.0214,5.0174,5.0938,5.1309,5.1246,5.2084,5.2553,5.2553,5.2553,5.2553,5.2553,5.2553,5.2553,5.2553,5.2553,5.2553,5.2553,5.2553,5.2553,5.2503,5.2029,5.1843,5.1725,5.0676,5.0016,4.9644,4.9644,4.9357,4.9001,4.9001,4.9001,4.9001,4.9001,4.9001,4.9001,4.9001,4.8781,4.846,4.802,4.7682,4.7259,4.6515,4.6346,4.6261,4.594,4.5534,4.5229,4.5229,4.4874,4.4587,4.4587,4.4587,4.4587,4.4587,4.4587,4.4457,4.4121,4.4064,4.3294,4.1261,4.0232,3.9241,3.8057,3.7629,3.7782,3.866,3.8874,3.9498,4.067,4.0833,4.1059,4.1356,4.1373,4.1373,4.1373,4.1677,4.183,4.1863,4.2608,4.2777,3.0308,0.0,0.0,3.2188,3.3389,3.4573,3.552,3.6146,3.6975,3.8497,3.9665,4.0679,4.1644,4.2692,4.3741,4.4739,4.5348,4.6041,4.6972,4.6464,4.6278,4.7022,4.6921,4.709,4.7851,4.8578,4.9086,4.9289,4.9796,5.0185,5.0388,5.093,5.1302,5.1505,5.2029,5.2418,5.2638,5.3213,5.3501,5.3501,5.3501,5.3501,5.3501,5.3501,5.3501,5.3501,5.3501,5.3501,5.3501,5.3501,5.3501,5.345,5.2858,5.2638,5.257,5.2046,5.1234,5.0388,5.0388,5.005,4.9576,4.9373,4.9306,4.9272,4.9069,4.9001,4.9001,4.9001,4.9001,4.8883,4.8359,4.8223,4.8037,4.7276,4.7107,4.7056,4.6836,4.638,4.6007,4.6007,4.5568,4.5196,4.5196,4.5196,4.5128,4.4925,4.506,4.5043,4.4621,4.4384,4.3739,4.252,4.1149,4.008,3.9436,3.8925,3.902,3.9897,4.0347,4.0912,4.1787,4.2102,4.2286,4.2286,4.2286,4.2286,4.2286,4.2489,4.2591,4.2625,4.3386,4.3741,0.0,0.0,3.366,3.5115,3.6079,3.706,3.8531,3.887,3.9309,4.0798,4.1136,4.161,4.3081,4.3386,4.391,4.5432,4.5703,4.621,4.7682,4.7242,4.7039,4.78,4.7242,4.709,0.0,4.8578,4.9306,4.9999,5.0084,5.0405,5.115,5.12,5.1539,5.2249,5.2283,5.2672,5.3467,5.3501,5.3501,5.3501,5.3501,5.3501,5.3501,5.3501,5.3501,5.3501,5.3501,5.3501,5.3501,5.3501,5.3501,5.3501,5.3467,5.3467,5.3467,5.345,5.2486,5.1183,5.1183,5.1166,5.1031,5.0287,5.005,4.9915,4.9221,4.9001,4.9001,4.9001,4.9001,4.9001,4.8968,4.8968,4.8781,4.8054,4.7885,4.7682,4.6955,4.6769,4.6752,4.6752,4.6735,4.6718,4.6718,4.6718,4.6481,4.5771,4.6278,4.621,4.4756,4.3873,4.3306,4.3246,4.2442,4.1901,4.1901,4.1885,4.2251,4.312,4.2506,4.2477,4.3331,4.2675,4.2286,4.2286,4.2286,4.2286,4.2286,4.3031,4.3386,4.3403,4.4181,4.4536,3.2277,0.0,3.5233,3.6755,3.7702,3.8633,4.0121,4.007,4.0003,4.1001,4.1204,4.1356,4.1863,4.276,4.3927,4.5466,4.6109,4.6938,4.8426,4.8003,4.7445,4.7192,4.7394,0.0,0.0,0.0,0.0,4.9999,5.0557,5.115,5.1894,5.2452,5.2841,5.3095,5.3095,5.323,5.3501,5.3501,5.3501,5.3501,5.3501,5.3501,5.3501,5.3501,5.3501,5.3501,5.3501,5.3501,5.3501,5.3501,5.3501,5.3501,5.3501,5.3501,5.3501,5.3501,5.3179,5.2655,5.2131,5.1623,5.1166,5.093,5.049,5.0033,4.9796,4.939,4.9001,4.9001,4.9001,4.9001,4.9001,4.9001,4.8951,4.8697,4.8646,4.8562,4.8308,4.7885,4.753,4.753,4.7124,4.6786,4.6786,4.6786,4.6718,4.6464,4.5805,4.5331,4.5331,4.463,4.3931,4.3366,4.3047,4.2645,4.2062,4.1997,4.2395,4.3246,4.3075,4.3315,4.4181,4.3944,4.3809,4.3809,4.3809,4.3809,4.3809,4.4062,4.4451,4.4942,4.5196,4.5585,3.4368,3.5893,3.7195,3.87,3.9631,4.0426,4.1373,4.1018,4.0696,4.1441,4.139,4.1288,4.1542,4.2371,4.3606,4.5415,4.6109,4.7005,4.8765,4.8376,4.7733,4.7259,4.7394,4.7428,0.0,0.0,0.0,4.9982,5.0777,5.1539,5.2266,5.3061,5.3501,5.3501,5.3501,5.3501,5.3501,5.3501,5.3501,5.3501,5.3501,5.3501,5.3501,5.3501,5.3501,5.3501,5.3501,5.3501,5.3501,5.3501,5.3501,5.3501,5.3501,5.3501,5.3501,5.3501,5.3501,5.3433,5.2909,5.2418,5.1978,5.1708,5.1268,5.0777,5.0253,4.9763,4.934,4.9069,4.9001,4.9001,4.9001,4.9001,4.9001,4.9001,4.9001,4.9001,4.9001,4.8646,4.8308,4.8308,4.7919,4.7581,4.7581,4.7378,4.7276,4.7547,4.6312,4.5551,4.6024,4.5669,4.5175,4.4597,4.4537,4.4224,4.3362,4.3346,4.3448,4.3772,4.3756,4.4006,4.457,4.4587,4.4587,4.4587,4.484,4.4976,4.4976,4.5246,4.5618,4.6092,4.6092,4.6346,3.7161,3.8514,3.9462,4.0899,4.1779,4.2286,4.2286,4.1728,4.139,4.2049,4.1593,4.1288,0.0,0.0,4.298,4.5229,4.5686,4.6532,4.8697,4.8443,4.802,0.0,0.0,0.0,0.0,0.0,0.0,5.005,0.0,5.1555,5.2317,5.3095,5.3501,5.3501,5.3501,5.3501,5.3501,5.3501,5.3501,5.3501,5.3501,5.3501,5.3501,5.3501,5.3501,5.3501,5.3501,5.3501,5.3501,5.3501,5.3501,5.3501,5.3501,5.3501,5.3501,5.3501,5.3501,5.3501,5.3501,5.3501,5.3382,5.2604,5.2334,5.2046,5.0625,5.0185,4.9999,4.9255,4.9069,4.9052,4.9018,4.9001,4.9001,4.9001,4.9001,4.9001,4.9001,4.9001,4.9001,4.9001,4.9001,4.9001,4.9001,4.8426,4.8206,4.89,4.78,4.6887,4.6853,4.6802,4.6786,4.6786,4.6786,4.6515,4.5821,4.5771,4.5449,4.4739,4.4688,4.4688,4.4688,4.4688,4.4688,4.4688,4.5399,4.5771,4.5771,4.6447,4.6802,4.6853,4.6853,4.687,3.821,3.9665,4.0865,4.1779,4.2151,4.2286,4.2286,4.1728,4.1102,4.073,4.0054,3.9445,0.0,0.0,0.0,4.3724,4.5415,0.0,4.8765,4.9306,0.0,4.8781,0.0,4.9949,4.9576,5.005,0.0,0.0,5.1099,5.1792,5.3129,5.3399,5.3501,5.3501,5.3501,5.3501,5.3501,5.3501,5.3501,5.3501,5.3501,5.3501,5.3501,5.3501,5.3501,5.3501,5.3501,5.3501,5.3501,5.3501,5.3501,5.3501,5.3501,5.3501,5.3501,5.3501,5.3501,5.3501,5.3501,5.3501,5.3467,5.3264,5.279,5.2232,5.186,5.1369,5.0777,5.0016,4.9813,4.9678,4.9137,4.9001,4.9001,4.9001,4.9001,4.9001,4.9001,4.9001,4.9001,4.9001,4.9001,4.9001,4.9001,4.8849,4.8781,4.8968,4.868,4.824,4.7699,4.7141,4.6786,4.6786,4.6786,4.6718,4.6532,4.6515,4.643,4.6244,4.6227,4.6227,4.6227,4.6227,4.6227,4.6227,4.6413,4.6515,4.6515,4.6701,4.7073,4.7631,4.7631,4.7919,3.9563,4.1052,4.2269,4.2675,4.2777,4.2692,4.2371,4.1474,4.0426,3.9343,3.8802,0.0,0.0,0.0,0.0,0.0,0.0,0.0,4.8697,4.9627,5.0067,0.0,5.071,0.0,5.0625,5.098,5.1352,0.0,5.1691,5.2063,5.2942,5.3315,5.3501,5.3501,5.3501,5.3501,5.3501,5.3501,5.3501,5.3501,5.3501,5.3501,5.3501,5.3501,5.3501,5.3501,0.0,5.3501,5.3501,5.3501,5.3501,5.3501,5.3501,5.3501,5.3501,5.3501,5.3501,5.3501,5.3501,5.3501,5.3501,5.3501,5.3196,5.2756,5.2418,5.2012,5.1539,5.0794,5.0591,5.0405,4.9678,4.9475,4.9407,4.9086,4.9001,4.9001,4.9001,4.9001,4.9001,4.9001,4.9001,4.9001,4.9001,4.9001,4.9001,4.9001,4.9001,4.8849,4.8443,4.802,4.7767,4.7767,4.7767,4.7631,4.731,4.7293,4.7141,4.6802,4.6786,4.6786,4.6786,4.6786,4.6786,4.6786,4.7124,4.7293,4.7293,4.7614,4.7986,4.8392,4.8392,4.8612,4.0967,4.2371,4.3453,4.3538,4.3504,4.32,4.2337,4.1018,3.9529,3.7939,0.0,3.7043,3.5723,3.733,3.9394,4.1068,0.0,4.572,4.8595,4.9712,5.0473,5.1133,5.1403,5.1522,5.1522,5.1522,5.1775,5.2418,5.2469,5.2469,5.2469,5.3129,5.3501,5.3501,5.3501,5.3501,5.3501,5.3501,5.3501,5.3501,5.3501,5.3501,5.3501,5.3501,5.3501,5.3501,0.0,0.0,5.3501,5.3501,5.3501,5.3501,5.3501,5.3501,5.3501,5.3501,5.3501,5.3501,5.3501,5.3501,5.3501,5.3501,5.3501,5.3365,5.2672,5.2469,5.23,5.1572,5.1369,5.1183,5.0439,5.0236,5.0067,4.9441,4.9221,4.9154,4.9154,4.9069,4.9001,4.9001,4.9001,4.9001,4.9001,4.9001,4.9001,4.9001,4.9001,4.9001,4.9001,4.9001,4.9001,4.9001,4.9001,4.8748,4.8122,4.8071,4.7784,4.7124,4.709,4.709,4.709,4.709,4.709,4.709,4.7733,4.8071,4.8071,4.8697,4.9001,4.9001,4.9001,4.9001,4.1863,4.2743,4.3572,4.4215,4.3893,4.3064,4.1711,4.0257,0.0,0.0,3.552,3.4996,3.4742,3.6552,3.8971,4.166,0.0,0.0,0.0,0.0,5.1065,0.0,0.0,0.0,0.0,0.0,0.0,0.0,0.0,5.3298,5.3298,5.3433,5.3501,5.3501,5.3501,5.3501,5.3501,5.3501,5.3501,5.3501,5.3501,5.3501,5.3501,5.3501,5.3501,5.3501,5.3501,0.0,5.3501,5.3501,5.3501,5.3501,5.3501,5.3501,5.3501,5.3501,5.3501,5.3501,5.3501,5.3501,5.3501,5.3501,5.3501,5.3467,5.3331,5.3298,5.3129,5.2334,5.2114,5.1944,5.1217,5.1014,5.0997,5.0862,5.0355,4.9898,4.9898,4.9424,4.9001,4.9001,4.9001,4.9001,4.9001,4.9001,4.9001,4.9001,4.9001,4.9001,4.9001,4.9001,4.9001,4.9001,4.9001,4.8951,4.8832,4.8815,4.8748,4.8629,4.8612,4.8612,4.8612,4.8612,4.8612,4.8612,4.8748,4.8815,4.8815,4.8951,4.9001,4.9001,4.9001,4.9001,4.2202,4.3132,4.4113,4.4485,4.369,4.2337,4.0476,0.0,0.0,0.0,3.3914,3.3694,3.2916,3.4928,0.0,0.0,0.0,0.0,0.0,0.0,0.0,0.0,0.0,0.0,0.0,0.0,0.0,0.0,0.0,5.3501,5.3501,5.3501,5.3501,5.3501,5.3501,5.3501,5.3501,5.3501,5.3501,5.3501,5.3501,5.3501,5.3501,5.3501,5.3501,5.3501,5.3501,0.0,5.3501,5.3501,5.3501,5.3501,5.3501,5.3501,5.3501,5.3501,5.3501,5.3501,5.3501,5.3501,5.3501,5.3501,5.3501,5.3501,5.3501,5.3501,5.3466,5.3532,5.3524,5.3352,5.2615,5.2684,5.2805,5.2035,5.1552,5.1172,5.0786,5.0405,5.0152,5.0152,5.0152,5.0152,5.0152,4.983,4.956,4.956,4.9255,4.9001,4.9001,4.9001,4.9001,4.9001,4.9001,4.9001,4.9001,4.9001,4.9001,4.9001,4.9001,4.9001,4.9001,4.9001,4.9001,4.9001,4.9001,4.9001,4.9001,4.9001,4.9001,4.9001,4.9001,4.9204,4.2286,4.342,4.4536,4.4367,4.3301,4.1677,3.9292,3.7601,0.0,0.0,3.2628,3.2628,3.1613,3.3457,3.5605,0.0,3.9343,0.0,0.0,0.0,0.0,0.0,0.0,0.0,0.0,0.0,0.0,0.0,0.0,0.0,5.3501,5.3501,5.3501,5.3501,5.3501,5.3501,5.3501,5.3501,5.3501,5.3501,5.3501,5.3501,5.3501,5.3501,5.3501,5.3501,5.3501,0.0,0.0,5.3501,5.3501,5.3501,5.3501,5.3618,5.3717,5.3717,5.3832,5.3946,5.3946,5.3946,5.3946,5.3946,5.3783,5.3501,5.3501,5.3501,5.3668,5.4374,5.4589,5.4512,5.4087,5.4424,5.4479,5.3172,5.274,5.2425,5.1646,5.1329,5.1217,5.1217,5.1217,5.1217,5.1217,5.0727,5.0338,5.0338,4.9712,4.9238,4.9238,4.9103,4.9069,4.9221,4.9086,4.9001,4.9001,4.9001,4.9001,4.9001,4.9001,4.9001,4.9001,4.9001,4.9001,4.9001,4.9001,4.9086,4.9238,4.9238,4.9323,4.9475,4.9475,4.9779,4.2286,4.342,4.4401,4.3707,4.2895,4.1542,3.8667,0.0,0.0,3.2747,3.1799,3.1562,3.2087,3.2966,3.4742,3.8227,0.0,4.1728,0.0,0.0,0.0,0.0,0.0,0.0,0.0,0.0,0.0,0.0,0.0,0.0,5.3501,5.3501,5.3501,5.3501,5.3501,5.3501,5.3501,5.3501,5.3501,5.3501,5.3501,5.3501,5.3501,5.3501,5.3501,5.3501,5.3501,0.0,0.0,5.3501,5.3501,5.3501,5.3501,5.3881,5.4482,5.4482,5.4939,5.5495,5.5495,5.5495,5.5495,5.5495,5.4606,5.3501,5.3501,5.3501,5.3668,5.4374,5.4589,5.4739,5.5349,5.5543,5.5405,5.457,5.3917,5.3186,5.2433,5.1719,5.1217,5.1217,5.1217,5.1217,5.1217,5.115,5.1116,5.1116,5.0473,4.9982,4.9982,4.9407,4.9255,4.9915,4.9407,4.9001,4.9001,4.9001,4.9001,4.9001,4.9001,4.9001,4.9001,4.9001,4.9001,4.9001,4.9001,4.9323,4.9982,4.9982,5.0338,5.1014,5.1014,5.1048,4.2168,4.342,4.4401,4.3606,4.2861,4.1407,3.8007,0.0,3.4861,3.2188,3.1393,3.1275,3.1562,3.2222,3.366,3.6502,0.0,0.0,4.3521,0.0,0.0,0.0,0.0,0.0,0.0,0.0,0.0,0.0,0.0,0.0,5.3501,5.3501,5.3501,5.3501,5.3501,5.3501,5.3501,5.3501,5.3501,5.3501,5.3501,5.3501,5.3501,5.3501,5.3501,5.3501,5.3501,0.0,0.0,5.3501,5.3783,5.4154,5.4154,5.4606,5.5262,5.5262,5.5437,5.5706,5.5706,5.5706,5.5706,5.5706,5.532,5.4835,5.4835,5.4482,5.4454,5.5645,5.5984,5.6039,5.6385,5.6438,5.6241,5.5446,5.5036,5.4517,5.3347,5.2816,5.2587,5.2587,5.2587,5.2587,5.2587,5.2198,5.186,5.186,5.1234,5.076,5.076,5.0524,5.0456,5.0727,5.0101,4.9661,4.9661,4.9661,4.9475,4.9035,4.9001,4.9204,4.9644,4.9661,4.9864,5.0338,5.0338,5.0473,5.076,5.076,5.093,5.1217,5.1217,5.1454,4.1711,4.2912,4.3724,4.2963,4.2185,4.073,0.0,3.5842,3.4506,3.1765,3.119,3.119,3.119,3.1782,3.2933,3.4962,0.0,3.799,4.1491,4.2811,0.0,0.0,0.0,0.0,0.0,0.0,0.0,0.0,0.0,0.0,0.0,5.3501,5.3501,5.3501,5.3501,5.3501,5.3501,5.3501,5.3501,5.3501,5.3501,5.3501,5.3501,5.3501,5.3501,5.3501,0.0,0.0,0.0,5.3717,5.4106,5.4651,5.4818,5.5379,5.6059,5.6059,5.6169,5.6385,5.6385,5.6385,5.6385,5.6385,5.6223,5.6077,5.6331,5.5724,5.522,5.651,5.7065,5.7234,5.7234,5.7065,5.6739,5.6186,5.5724,5.5102,5.4059,5.3668,5.3501,5.3501,5.3501,5.3501,5.3501,5.3044,5.2655,5.2655,5.2012,5.1539,5.1539,5.1352,5.1302,5.1505,5.1065,5.0659,5.0439,5.0422,5.0202,4.9695,4.9661,4.9881,5.0405,5.0422,5.0676,5.12,5.1217,5.1319,5.1539,5.1539,5.1657,5.1894,5.1894,5.2278,4.0815,4.1762,4.2151,4.1407,4.0663,3.9309,0.0,3.5047,3.3863,3.1647,3.119,3.119,3.119,3.1782,3.278,3.4252,3.5791,0.0,4.0798,4.2489,0.0,0.0,0.0,0.0,0.0,0.0,0.0,0.0,0.0,0.0,0.0,5.3501,5.3501,5.3501,5.3501,5.3501,5.3501,5.3501,5.3501,5.3501,5.3501,5.3501,5.3501,5.3501,5.3501,0.0,0.0,0.0,0.0,5.4264,5.4589,5.4634,5.5379,5.6186,5.6912,5.6912,5.7351,5.7997,5.7997,5.7997,5.7997,5.7997,5.7498,5.7015,5.7774,5.6909,5.5836,5.6668,5.7401,5.7997,5.7997,5.7449,5.6912,5.6912,5.5685,5.4589,5.4589,5.3994,5.3501,5.3501,5.3501,5.3501,5.3501,5.3501,5.3501,5.3501,5.2807,5.2283,5.2283,5.1657,5.1488,5.2215,5.2283,5.1995,5.1268,5.12,5.12,5.12,5.12,5.12,5.12,5.12,5.1217,5.1217,5.1217,5.1572,5.2283,5.2283,5.2706,5.3484,5.3484,5.3864,3.7905,3.9089,3.9749,3.8481,3.8396,3.7899,3.5189,3.4758,3.4433,3.2492,3.2092,3.2092,3.2092,3.2284,3.3323,3.6036,3.6903,0.0,0.0,0.0,0.0,0.0,0.0,0.0,0.0,0.0,0.0,0.0,0.0,0.0,0.0,5.3501,5.3501,5.3501,5.3501,5.3501,5.3501,5.3501,5.3501,5.3501,5.3501,5.3501,5.3501,5.3501,0.0,0.0,0.0,0.0,0.0,5.4482,5.522,5.6222,5.6438,5.6997,5.766,5.766,5.7792,5.7997,5.7997,5.7997,5.7997,5.7997,5.7839,5.7679,5.7932,5.7333,5.6668,5.7449,5.7839,5.7997,5.7997,5.7839,5.7382,5.6349,5.5724,5.5102,5.4059,5.3668,5.3501,5.3501,5.3501,5.3501,5.3501,5.3501,5.3501,5.3501,5.3281,5.3129,5.3129,5.2926,5.2875,5.3095,5.3129,5.2807,5.2029,5.1961,5.1742,5.1251,5.1217,5.1437,5.1944,5.1961,5.2215,5.2773,5.2773,5.2892,5.3129,5.3129,5.3247,5.3501,5.3994,5.4374,3.5362,3.6806,3.7499,3.6569,3.6485,3.618,3.4467,3.4263,3.3998,3.2754,3.2484,3.2484,3.2484,3.2714,3.3688,3.6055,3.6953,3.8143,0.0,0.0,0.0,0.0,0.0,0.0,0.0,0.0,0.0,0.0,0.0,0.0,0.0,5.3501,5.3501,5.3501,5.3501,5.3501,5.3501,5.3501,5.3501,5.3501,5.3501,5.3501,5.3501,5.3501,0.0,0.0,0.0,0.0,0.0,5.5238,5.6039,5.6912,5.7184,5.7613,5.7997,5.7997,5.7997,5.7997,5.7997,5.7997,5.7997,5.7997,5.7997,5.7997,5.7997,5.7679,5.7401,5.7886,5.7997,5.7997,5.7997,5.7774,5.7266,5.6004,5.5495,5.4939,5.3783,5.3501,5.3501,5.3501,5.3501,5.3501,5.3501,5.3501,5.3501,5.3501,5.3501,5.3501,5.3501,5.3501,5.3501,5.3501,5.3501,5.3298,5.2807,5.2756,5.257,5.2114,5.208,5.2283,5.2739,5.2756,5.2993,5.3501,5.3501,5.3501,5.3501,5.3501,5.3668,5.3946,5.4374,5.4939,0.0,3.4573,3.5216,3.5148,3.4684,3.4193,3.3999,3.3425,0.0,3.2659,3.2548,3.2548,3.2758,3.3239,3.395,3.5031,3.6501,0.0,0.0,0.0,0.0,0.0,0.0,0.0,0.0,0.0,0.0,0.0,0.0,0.0,0.0,5.3501,5.3501,5.3501,5.3501,5.3501,5.3501,5.3501,5.3501,5.3501,5.3501,5.3501,5.3501,5.3501,0.0,0.0,0.0,0.0,0.0,5.6277,5.6912,5.7033,5.7726,5.7997,5.7997,5.7997,5.7997,5.7997,5.7997,5.7997,5.7997,5.7997,5.7997,5.7997,5.7997,5.7997,5.7997,5.7997,5.7997,5.7997,5.7997,5.7498,5.6773,5.5893,5.5144,5.4482,5.3668,5.3501,5.3501,5.3501,5.3501,5.3501,5.3501,5.3501,5.3501,5.3501,5.3501,5.3501,5.3501,5.3501,5.3501,5.3501,5.3501,5.3501,5.3501,5.3501,5.3501,5.3501,5.3501,5.3501,5.3501,5.3501,5.3501,5.3501,5.3551,5.3551,5.3551,5.3618,5.3994,5.4713,5.4774,5.5512,2.8371,0.0,3.1336,3.1013,3.1225,3.1704,0.0,3.2313,3.2419,3.3299,0.0,3.3148,3.5053,3.4506,3.4885,3.8277,3.8667,3.9221,0.0,0.0,0.0,0.0,0.0,0.0,0.0,0.0,0.0,0.0,0.0,0.0,0.0,5.3501,5.3501,5.3501,5.3501,5.3501,5.3501,5.3501,5.3501,5.3501,5.3501,5.3501,5.3501,5.3501,0.0,0.0,0.0,0.0,5.5495,5.6492,5.7234,5.7774,5.7932,5.7997,5.7997,5.7997,5.7997,5.7997,5.7997,5.7997,5.7997,5.7997,5.7997,5.7997,5.7997,5.7997,5.7997,5.7997,5.7997,5.7997,5.7997,5.7886,5.7382,5.6059,5.5552,5.5102,5.3783,5.3501,5.3501,5.3501,5.3501,5.3501,5.3501,5.3501,5.3501,5.3501,5.3501,5.3501,5.3501,5.3501,5.3501,5.3501,5.3501,5.3501,5.3501,5.3501,5.3501,5.3501,5.3501,5.3501,5.3501,5.3501,5.3501,5.3501,5.4042,5.431,5.431,5.4939,5.5262,5.5437,5.6095,5.6563,2.6095,2.8492,3.0879,3.0646,3.1029,3.1665,3.2385,3.1964,0.0,0.0,0.0,3.3128,3.4835,3.5037,3.5941,3.8961,3.9463,0.0,0.0,0.0,0.0,0.0,0.0,0.0,0.0,0.0,0.0,0.0,0.0,0.0,0.0,5.3501,5.3501,5.3501,5.3501,5.3501,5.3501,5.3501,5.3501,5.3501,5.3501,5.3501,5.3501,5.3501,5.3668,0.0,0.0,0.0,5.6313,5.7116,5.7613,5.7997,5.7997,5.7997,5.7997,5.7997,5.7997,5.7997,5.7997,5.7997,5.7997,5.7997,5.7997,5.7997,5.7997,5.7997,5.7997,5.7997,5.7997,5.7997,5.7997,5.7997,5.7594,5.6059,5.5706,5.5279,5.3849,5.3501,5.3501,5.3501,5.3501,5.3501,5.3501,5.3501,5.3501,5.3501,5.3501,5.3501,5.3501,5.3501,5.3501,5.3501,5.3501,5.3501,5.3501,5.3832,5.3898,5.3501,5.3501,5.3668,5.3994,5.3994,5.4154,5.4499,5.4878,5.5084,5.5102,5.5495,5.5893,5.6259,5.6686,5.7065,2.5541,2.885,3.1864,3.1568,3.1964,3.2567,3.3003,0.0,0.0,0.0,0.0,0.0,0.0,0.0,0.0,0.0,0.0,0.0,0.0,0.0,0.0,0.0,0.0,0.0,0.0,0.0,0.0,0.0,0.0,0.0,0.0,5.3832,5.3781,5.3679,5.3662,5.3611,5.3508,5.3381,5.3315,5.3315,5.3213,5.3162,5.3145,5.3279,5.3652,0.0,0.0,0.0,5.6602,5.7313,5.7629,5.7629,5.7629,5.7703,5.7813,5.7813,5.7886,5.7997,5.7997,5.7997,5.7997,5.7997,5.7997,5.7997,5.7997,5.7997,5.7997,5.7997,5.7997,5.7997,5.7997,5.7997,5.7594,5.6059,5.5706,5.5279,5.3849,5.3501,5.3501,5.3501,5.3501,5.3501,5.3501,5.3501,5.3501,5.3501,5.3501,5.3501,5.3501,5.3501,5.3501,5.3501,5.3501,5.3568,5.3668,5.4264,5.4374,5.3898,5.3832,5.4106,5.4757,5.4757,5.5042,5.5706,5.5836,5.5893,5.5893,5.6004,5.6403,5.7083,5.7083,5.7401,2.6601,2.9579,3.1643,2.9958,3.0844,3.2249,3.262,0.0,0.0,0.0,0.0,0.0,0.0,0.0,0.0,0.0,0.0,0.0,0.0,0.0,0.0,0.0,0.0,0.0,0.0,0.0,0.0,0.0,0.0,0.0,0.0,5.5379,5.508,5.4354,5.4354,5.3998,5.3331,5.2786,5.2486,5.2486,5.186,5.1572,5.1555,5.2186,5.2581,0.0,0.0,5.4741,5.4909,5.5633,5.5959,5.5959,5.5959,5.6381,5.6987,5.6987,5.7428,5.7997,5.7997,5.7997,5.7997,5.7997,5.7997,5.7997,5.7997,5.7997,5.7997,5.7997,5.7997,5.7997,5.7997,5.7997,5.7594,5.6059,5.5706,5.5279,5.3849,5.3501,5.3501,5.3501,5.3501,5.3501,5.3501,5.3501,5.3501,5.3501,5.3501,5.3501,5.3501,5.3501,5.3501,5.3501,5.3501,5.3783,5.4374,5.4527,5.4818,5.532,5.5379,5.5437,5.5552,5.5535,5.5592,5.5706,5.6367,5.6739,5.6739,5.7315,5.7708,5.7839,5.7839,5.7886,2.5885,2.8558,3.0803,3.0733,3.2549,3.441,3.4568,0.0,0.0,0.0,0.0,0.0,0.0,0.0,0.0,0.0,0.0,0.0,0.0,0.0,0.0,0.0,0.0,0.0,0.0,0.0,0.0,0.0,0.0,0.0,0.0,0.0,5.4234,5.3881,5.3863,5.3649,5.3278,5.2625,5.2483,5.2805,5.2476,5.2302,5.2362,5.2695,5.3092,5.3548,0.0,5.4713,5.5111,5.5485,5.5592,5.5592,5.5592,5.5812,5.6143,5.6143,5.6657,5.7354,5.7354,5.7648,5.7997,5.7997,5.7997,5.7997,5.7997,5.7997,5.7997,5.7997,5.7997,5.7997,5.7997,5.7997,5.7594,5.6059,5.5706,5.5279,5.3849,5.3501,5.3501,5.3501,5.3501,5.3501,5.3501,5.3501,5.3501,5.3501,5.3501,5.3501,5.3501,5.3501,5.3668,5.4042,5.4106,5.4374,5.5144,5.557,5.5798,5.5706,5.6132,5.6367,5.6367,5.6737,5.696,5.696,5.7333,5.7498,5.7516,5.7839,5.7997,5.7997,5.7997,5.7997,2.5964,2.8108,3.0285,3.2282,0.0,3.6101,3.6486,0.0,0.0,0.0,0.0,0.0,0.0,0.0,0.0,0.0,0.0,0.0,0.0,0.0,0.0,0.0,0.0,0.0,0.0,0.0,0.0,0.0,0.0,0.0,0.0,0.0,5.3742,5.3564,5.3564,5.3474,5.3296,5.2707,5.2641,5.3013,5.2891,5.2802,5.2802,5.2963,5.3365,5.3922,5.4104,5.4519,5.5042,5.5042,5.5042,5.5042,5.5042,5.5133,5.5354,5.5739,5.6271,5.684,5.7024,5.7483,5.7997,5.7997,5.7997,5.7997,5.7997,5.7997,5.7997,5.7997,5.7997,5.7997,5.7997,5.7997,5.7594,5.6059,5.5706,5.5279,5.3849,5.3501,5.3501,5.3501,5.3501,5.3501,5.3501,5.3501,5.3501,5.3501,5.3501,5.3501,5.3501,5.3501,5.3766,5.4544,5.4589,5.4982,5.5893,5.6703,5.6876,5.6277,5.6825,5.7184,5.7184,5.7726,5.7997,5.7997,5.7997,5.7997,5.7997,5.7997,5.7997,5.7997,5.7997,5.7997,2.8562,2.9762,3.0919,3.4009,3.4954,0.0,3.7055,3.678,0.0,0.0,0.0,0.0,0.0,0.0,0.0,0.0,0.0,0.0,0.0,0.0,0.0,0.0,0.0,0.0,0.0,0.0,0.0,0.0,0.0,0.0,0.0,0.0,0.0,5.4342,5.4323,5.3957,5.3225,5.317,5.2842,5.2272,5.1599,5.1263,5.1263,5.192,5.2228,5.234,5.3014,5.3329,5.339,5.339,5.339,5.339,5.339,5.383,5.4675,5.6161,5.6767,5.6914,5.7648,5.7941,5.7997,5.7997,5.7997,5.7997,5.7997,5.7997,5.7997,5.7997,5.7997,5.7997,5.7997,5.7997,5.7594,5.6059,5.5706,5.5279,5.3849,5.3501,5.3501,5.3501,5.3501,5.3501,5.3501,5.3501,5.3501,5.3501,5.3501,5.3501,5.3501,5.3501,5.3766,5.4544,5.4589,5.522,5.6686,5.7498,5.7886,5.7821,5.7886,5.7932,5.7932,5.7997,5.7997,5.7997,5.7997,5.7997,5.7997,5.7997,5.7997,5.7997,5.7997,5.7997,2.7301,2.8965,3.0742,3.2963,0.0,0.0,0.0,0.0,0.0,0.0,0.0,0.0,0.0,0.0,0.0,0.0,0.0,0.0,0.0,0.0,0.0,0.0,0.0,0.0,0.0,0.0,0.0,0.0,0.0,0.0,0.0,0.0,0.0,5.3665,5.3665,5.3518,5.3206,5.3206,5.3058,5.2824,5.2562,5.2417,5.2417,5.268,5.2769,5.2813,5.3103,5.3206,5.3206,5.3206,5.3206,5.3206,5.3206,5.339,5.3794,5.4895,5.5629,5.6161,5.6969,5.7574,5.7997,5.7997,5.7997,5.7997,5.7997,5.7997,5.7997,5.7997,5.7997,5.7997,5.7997,5.7997,5.7726,5.6703,5.6059,5.5437,5.4374,5.3832,5.3501,5.3501,5.3501,5.3501,5.3501,5.3501,5.3501,5.3501,5.3501,5.3501,5.3501,5.3881,5.4499,5.5203,5.6114,5.6978,5.7546,5.7839,5.7997,5.7997,5.7997,5.7997,5.7997,5.7997,5.7997,5.7997,5.7997,5.7997,5.7997,5.7997,5.7997,5.7997,5.7997,5.7997,2.7145,2.876,3.065,0.0,0.0,0.0,0.0,0.0,0.0,0.0,0.0,0.0,0.0,0.0,0.0,0.0,0.0,0.0,0.0,0.0,0.0,0.0,0.0,0.0,0.0,0.0,0.0,0.0,0.0,0.0,0.0,0.0,0.0,0.0,5.3206,5.3206,5.3206,5.3206,5.3206,5.3206,5.3206,5.3206,5.3206,5.3206,5.3206,5.3206,5.3206,5.3206,5.3206,5.3206,5.3206,5.3206,5.3206,5.3206,5.3316,5.4106,5.4748,5.5335,5.6143,5.695,5.7611,5.7611,5.7795,5.7997,5.7997,5.7997,5.7997,5.7997,5.7997,5.7997,5.7997,5.7997,5.7821,5.7083,5.6313,5.5495,5.4757,5.3994,5.3501,5.3501,5.3501,5.3501,5.3501,5.3501,5.3501,5.3501,5.3501,5.3551,5.3832,5.4264,5.4999,5.5948,5.7247,5.7997,5.7997,5.7997,5.7997,5.7997,5.7997,5.7997,5.7997,5.7997,5.7997,5.7997,5.7997,5.7997,5.7997,5.7997,5.7997,5.7997,5.7997,5.7997,2.8778,2.9586,3.0779,0.0,0.0,0.0,0.0,0.0,0.0,0.0,0.0,0.0,0.0,0.0,0.0,0.0,0.0,0.0,0.0,0.0,0.0,0.0,0.0,0.0,0.0,0.0,0.0,0.0,0.0,0.0,0.0,0.0,0.0,0.0,5.3206,5.3206,5.3206,5.3206,5.3206,5.3206,5.3206,5.3206,5.3206,5.3206,5.3206,5.3206,5.3206,5.3206,5.3206,5.3206,5.3206,5.3206,5.3206,5.3206,5.3316,5.4106,5.4399,5.4528,5.5317,5.6124,5.6804,5.6804,5.7336,5.7997,5.7997,5.7997,5.7997,5.7997,5.7997,5.7997,5.7997,5.7997,5.7839,5.7065,5.6313,5.5495,5.4757,5.4059,5.3501,5.3501,5.3501,5.3501,5.3501,5.3501,5.3501,5.3501,5.3501,5.3783,5.4544,5.4651,5.5238,5.6739,5.7565,5.7997,5.7997,5.7997,5.7997,5.7997,5.7997,5.7997,5.7997,5.7997,5.7997,5.7997,5.7997,5.7997,5.7997,5.7997,5.7997,5.7997,5.7997,5.7997,2.7255,2.8741,0.0,0.0,0.0,0.0,0.0,0.0,0.0,0.0,0.0,0.0,0.0,0.0,0.0,0.0,0.0,0.0,0.0,0.0,0.0,0.0,0.0,0.0,0.0,0.0,0.0,0.0,0.0,0.0,0.0,0.0,0.0,0.0,5.3206,5.3206,5.3206,5.3206,5.3206,5.3206,5.3206,5.3206,5.3206,5.3206,5.3206,5.3206,5.3206,5.3206,5.3206,5.3206,5.3206,5.3206,5.3206,5.3206,5.3316,5.4106,5.4399,5.4528,5.5317,5.6124,5.6804,5.6804,5.7336,5.7997,5.7997,5.7997,5.7997,5.7997,5.7997,5.7997,5.7997,5.7997,5.7932,5.7726,5.6685,5.5649,5.5437,5.4391,5.3501,5.3501,5.3946,5.4264,5.4264,5.4264,5.4437,5.4999,5.4606,5.4713,5.6039,5.6222,5.6598,5.7565,5.7886,5.7997,5.7997,5.7997,5.7997,5.7997,5.7997,5.7997,5.7997,5.7997,5.7997,5.7997,5.7997,5.7997,5.7997,5.7997,5.7997,5.7997,5.7997,5.7997,2.786,2.9567,0.0,0.0,0.0,0.0,0.0,0.0,0.0,0.0,0.0,0.0,0.0,0.0,0.0,0.0,0.0,0.0,0.0,0.0,0.0,0.0,0.0,0.0,0.0,0.0,0.0,0.0,0.0,0.0,0.0,0.0,0.0,0.0,5.3206,5.3206,5.3206,5.2894,5.2729,5.2729,5.2729,5.2729,5.2729,5.3059,5.3206,5.3206,5.3206,5.3206,5.3206,5.3206,5.3206,5.3206,5.3206,5.3206,5.328,5.3739,5.3922,5.3995,5.4473,5.517,5.5904,5.6216,5.6877,5.7574,5.7905,5.7997,5.7997,5.7997,5.7997,5.7997,5.7997,5.7997,5.7997,5.7997,5.6789,5.5706,5.5706,5.4562,5.3501,5.3501,5.4106,5.4589,5.4589,5.4818,5.5203,5.5649,5.561,5.5872,5.6791,5.7184,5.7516,5.795,5.7997,5.7997,5.7997,5.7997,5.7997,5.7997,5.7997,5.7997,5.7997,5.7997,5.7997,5.7997,5.7997,5.7997,5.7997,5.7997,5.7997,5.7997,5.7997,5.7997,2.9659,0.0,0.0,3.6762,0.0,0.0,0.0,0.0,0.0,0.0,0.0,0.0,0.0,0.0,0.0,0.0,0.0,0.0,0.0,0.0,0.0,0.0,0.0,0.0,0.0,0.0,0.0,0.0,0.0,0.0,0.0,0.0,0.0,5.2986,5.2986,5.2986,5.2986,5.2252,5.1885,0.0,5.1885,5.1885,5.1922,5.2803,5.3206,5.3206,5.3206,5.3206,5.3206,5.3206,5.3206,5.3206,5.3206,5.3206,5.3206,5.3206,5.3206,5.3206,5.3206,5.3739,5.4528,5.5335,5.6143,5.695,5.7758,5.7997,5.7997,5.7997,5.7997,5.7997,5.7997,5.7997,5.7997,5.7997,5.6858,5.5836,5.5836,5.473,5.3734,5.3734,5.4264,5.4818,5.4818,5.5379,5.5836,5.5836,5.6492,5.7015,5.7015,5.7565,5.7997,5.7997,5.7997,5.7997,5.7997,5.7997,5.7997,5.7997,5.7997,5.7997,5.7997,5.7997,5.7997,5.7997,5.7997,5.7997,5.7997,5.7997,5.7997,5.7997,5.7997,5.7997,2.8833,3.0907,0.0,0.0,4.1552,0.0,0.0,0.0,0.0,0.0,0.0,0.0,0.0,0.0,0.0,0.0,0.0,0.0,0.0,0.0,0.0,0.0,0.0,0.0,0.0,0.0,0.0,0.0,0.0,0.0,0.0,0.0,0.0,5.1316,5.1316,5.1316,5.1316,5.1151,5.1059,0.0,5.1059,5.1059,5.1114,5.2564,5.3206,5.3206,5.3206,5.3206,5.3206,5.3206,5.3206,5.3206,5.3206,5.3206,5.3206,5.3206,5.3206,5.3206,5.3206,5.3739,5.4528,5.5335,5.6143,5.695,5.7758,5.7997,5.7997,5.7997,5.7997,5.7997,5.7997,5.7997,5.7997,5.7997,5.7315,5.6616,5.6616,5.591,5.522,5.522,5.5854,5.6385,5.6385,5.6563,5.6616,5.6616,5.7284,5.7774,5.7774,5.7886,5.7997,5.7997,5.7997,5.7997,5.7997,5.7997,5.7997,5.7997,5.7997,5.7997,5.7997,5.7997,5.7997,5.7997,5.7997,5.7997,5.7997,5.7997,5.7997,5.7997,5.7997,5.7997,2.9517,0.0,0.0,3.9552,0.0,0.0,0.0,0.0,0.0,0.0,0.0,0.0,0.0,0.0,0.0,0.0,0.0,0.0,0.0,0.0,0.0,0.0,0.0,0.0,0.0,0.0,0.0,0.0,0.0,0.0,0.0,5.1041,5.0802,5.0802,5.0802,5.0802,5.0802,5.0417,5.0215,5.0215,5.0215,5.0417,5.0839,5.1683,5.227,5.2637,5.2637,5.2839,5.3206,5.3206,5.3206,5.3206,5.3206,5.3206,5.3206,5.3206,5.3206,5.3206,5.3206,5.3482,5.3959,5.4748,5.5574,5.6381,5.7189,5.7685,5.7997,5.7997,5.7997,5.7997,5.7997,5.7997,5.7997,5.7997,5.7449,5.6912,5.6912,5.6259,5.5706,5.5706,5.6367,5.6912,5.6912,5.7184,5.7449,5.7449,5.7774,5.7997,5.7997,5.7997,5.7997,5.7997,5.7997,5.7997,5.7997,5.7997,5.7997,5.7997,5.7997,5.7997,5.7997,5.7997,5.7997,5.7997,5.7997,5.7997,5.7997,5.7997,5.7997,5.7997,5.7997,5.7997,3.012,0.0,3.7162,4.166,4.3791,0.0,4.5535,0.0,0.0,0.0,0.0,0.0,0.0,0.0,0.0,0.0,0.0,0.0,0.0,0.0,0.0,0.0,0.0,0.0,0.0,0.0,0.0,0.0,0.0,0.0,5.0582,5.0453,5.038,5.038,5.038,5.038,5.038,4.9701,4.937,4.937,4.937,4.9719,5.038,5.038,5.0894,5.1793,5.194,5.238,5.3004,5.3151,5.3206,5.3206,5.3206,5.3206,5.3206,5.3206,5.3206,5.3206,5.3206,5.3206,5.3335,5.4142,5.4932,5.5739,5.6565,5.7373,5.7997,5.7997,5.7997,5.7997,5.7997,5.7997,5.7997,5.7997,5.7498,5.7083,5.7083,5.658,5.6114,5.6114,5.665,5.7083,5.7083,5.7613,5.7997,5.7997,5.7997,5.7997,5.7997,5.7997,5.7997,5.7997,5.7997,5.7997,5.7997,5.7997,5.7997,5.7997,5.7997,5.7997,5.7997,5.7997,5.7997,5.7997,5.7997,5.7997,5.7997,5.7997,5.7997,5.7997,5.7997,5.7997,0.0,0.0,3.8713,0.0,4.3992,4.5092,0.0,0.0,0.0,0.0,0.0,0.0,0.0,0.0,0.0,0.0,0.0,0.0,0.0,0.0,0.0,0.0,0.0,0.0,0.0,0.0,0.0,0.0,0.0,0.0,4.9738,4.904,4.8636,4.8636,4.8636,4.8636,4.8636,4.8526,4.8471,4.8471,4.8471,4.8526,4.8636,4.8636,4.9481,5.1004,5.1701,5.205,5.2197,5.2913,5.3206,5.3206,5.3206,5.3206,5.3206,5.3206,5.3206,5.3206,5.3206,5.3206,5.3335,5.4142,5.4932,5.5739,5.6565,5.7373,5.7997,5.7997,5.7997,5.7997,5.7997,5.7997,5.7997,5.7997,5.7932,5.7839,5.7839,5.7774,5.7708,5.7708,5.7774,5.7839,5.7839,5.7932,5.7997,5.7997,5.7997,5.7997,5.7997,5.7997,5.7997,5.7997,5.7997,5.7997,5.7997,5.7997,5.7997,5.7997,5.7997,5.7997,5.7997,5.7997,5.7997,5.7997,5.7997,5.7997,5.7997,5.7997,5.7997,5.7997,5.7997,5.7997,3.1054,3.4811,3.8489,0.0,4.3759,4.4355,4.5151,0.0,0.0,0.0,0.0,0.0,0.0,0.0,0.0,0.0,0.0,0.0,0.0,0.0,0.0,0.0,0.0,0.0,0.0,0.0,0.0,0.0,0.0,4.8875,4.8875,4.8508,4.8306,4.8306,4.8306,4.8306,4.8306,4.8306,4.8306,4.8306,4.8306,4.8306,4.8306,4.8306,4.8967,5.0141,5.049,5.1151,5.2013,5.238,5.2803,5.3206,5.3206,5.3206,5.3206,5.3206,5.3206,5.3206,5.3206,5.3206,5.328,5.361,5.4583,5.5666,5.6014,5.7005,5.7997,5.7997,5.7997,5.7997,5.7997,5.7997,5.7997,5.7997,5.7997,5.7997,5.7997,5.7997,5.7997,5.7997,5.7997,5.7997,5.7997,5.7997,5.7997,5.7997,5.7997,5.7997,5.7997,5.7997,5.7997,5.7997,5.7997,5.7997,5.7997,5.7997,5.7997,5.7997,5.7997,5.7997,5.7997,5.7997,5.7997,5.7997,5.7997,5.7997,5.7997,5.7997,5.7997,5.7997,5.7997,5.7997,0.0,0.0,3.701,4.1392,4.2803,4.3466,0.0,0.0,0.0,0.0,0.0,0.0,0.0,0.0,0.0,0.0,0.0,0.0,0.0,0.0,0.0,0.0,0.0,0.0,0.0,0.0,0.0,0.0,0.0,4.8326,4.8458,4.8458,4.8477,4.8604,4.8604,4.8604,4.8604,4.8604,4.8604,4.8604,4.8513,4.8458,4.8458,4.8458,4.8808,4.9416,4.9559,5.0331,5.1553,5.1852,5.2408,5.3023,5.3157,5.3206,5.3206,5.3206,5.3206,5.3206,5.3206,5.3206,5.3206,5.3206,5.4161,5.5317,5.5537,5.6565,5.774,5.7941,5.7997,5.7997,5.7997,5.7997,5.7997,5.7997,5.7997,5.7997,5.7997,5.7997,5.7997,5.7997,5.7997,5.7997,5.7997,5.7997,5.7997,5.7997,5.7997,5.7997,5.7997,5.7997,5.7997,5.7997,5.7997,5.7997,5.7997,5.7997,5.7997,5.7997,5.7997,5.7997,5.7997,5.7997,5.7997,5.7997,5.7997,5.7997,5.7997,5.7997,5.7997,5.7997,5.7997,5.7997,0.0,3.1847,0.0,3.8003,4.0765,0.0,0.0,0.0,0.0,0.0,0.0,0.0,0.0,0.0,0.0,0.0,0.0,0.0,0.0,0.0,0.0,0.0,0.0,0.0,0.0,0.0,0.0,0.0,0.0,4.8458,4.8829,4.8863,4.9043,4.9416,4.9445,4.9445,4.9445,4.9445,4.9445,4.9416,4.9043,4.8863,4.8863,4.8863,4.8881,4.894,4.9417,4.9824,5.0282,5.1498,5.2204,5.2587,5.3023,5.3206,5.3206,5.3206,5.3206,5.3206,5.3206,5.3206,5.3206,5.3206,5.3775,5.4601,5.5354,5.618,5.7024,5.7795,5.7997,5.7997,5.7997,5.7997,5.7997,5.7997,5.7997,5.7997,5.7997,5.7997,5.7997,5.7997,5.7997,5.7997,5.7997,5.7997,5.7997,5.7997,5.7997,5.7997,5.7997,5.7997,5.7997,5.7997,5.7997,5.7997,5.7997,5.7997,5.7997,5.7997,5.7997,5.7997,5.7997,5.7997,5.7997,5.7997,5.7997,5.7997,5.7997,5.7997,5.7997,5.7997,5.7997,5.7997,0.0,0.0,0.0,3.6523,3.9342,4.1548,0.0,0.0,0.0,0.0,0.0,0.0,0.0,0.0,0.0,0.0,0.0,0.0,0.0,0.0,0.0,0.0,0.0,0.0,0.0,0.0,0.0,0.0,0.0,0.0,4.9265,4.9295,4.9356,4.9522,4.9504,4.9504,4.9504,4.9504,4.9504,4.9504,4.9356,4.9295,4.9295,4.9295,4.9295,4.9283,4.9444,4.9907,5.0541,5.0998,5.1859,5.2934,5.2791,5.3084,5.3565,5.3314,5.3206,5.3206,5.3206,5.3206,5.3206,5.3206,5.4087,5.5207,5.55,5.651,5.7629,5.7923,5.7997,5.7997,5.7997,5.7997,5.7997,5.7997,5.7997,5.7997,5.7997,5.7997,5.7997,5.7997,5.7997,5.7997,5.7997,5.7997,5.7997,5.7997,5.7997,5.7997,5.7997,5.7997,5.7997,5.7997,5.7997,5.7997,5.7997,5.7997,5.7997,5.7997,5.7997,5.7997,5.7997,5.7997,5.7997,5.7997,5.7997,5.7997,5.7997,5.7997,5.7997,5.7997,5.7997,5.7997,2.7967,0.0,0.0,0.0,0.0,3.92,4.2374,0.0,0.0,0.0,0.0,0.0,0.0,0.0,0.0,0.0,0.0,0.0,0.0,0.0,0.0,0.0,0.0,0.0,0.0,0.0,0.0,0.0,0.0,0.0,4.9692,4.9719,4.9641,4.948,4.9461,4.9461,4.9461,4.9746,4.9898,4.9898,4.9773,4.9719,4.9719,4.9719,4.9719,4.9719,4.9827,5.0123,5.0525,5.0646,5.145,5.2567,5.2705,5.2991,5.3349,5.3413,5.3336,5.3206,5.3206,5.3206,5.3206,5.3206,5.4106,5.5244,5.55,5.6528,5.7648,5.7923,5.7997,5.7997,5.7997,5.7997,5.7997,5.7997,5.7997,5.7997,5.7997,5.7997,5.7997,5.7997,5.7997,5.7997,5.7997,5.7997,5.7997,5.7997,5.7997,5.7997,5.7997,5.7997,5.7997,5.7997,5.7997,5.7997,5.7997,5.7997,5.7997,5.7997,5.7997,5.7997,5.7997,5.7997,5.7997,5.7997,5.7997,5.7997,5.7997,5.7997,5.7997,5.7997,5.7997,5.7997,0.0,0.0,0.0,0.0,0.0,0.0,0.0,0.0,0.0,0.0,0.0,0.0,0.0,0.0,0.0,0.0,0.0,0.0,0.0,0.0,0.0,0.0,0.0,0.0,0.0,0.0,0.0,0.0,0.0,4.9681,5.0054,5.0059,4.9813,4.9394,4.9356,4.9356,4.9356,5.0221,5.0644,5.0664,5.0294,5.0135,5.0135,5.0135,5.0135,5.0135,5.0544,5.0483,5.0169,5.0544,5.094,5.1434,5.2681,5.2911,5.2604,5.3497,5.3545,5.3206,5.3206,5.3206,5.3206,5.3206,5.3775,5.4583,5.5354,5.618,5.7005,5.7776,5.7997,5.7997,5.7997,5.7997,5.7997,5.7997,5.7997,5.7997,5.7997,5.7997,5.7997,5.7997,5.7997,5.7997,5.7997,5.7997,5.7997,5.7997,5.7997,5.7997,5.7997,5.7997,5.7997,5.7997,5.7997,5.7997,5.7997,5.7997,5.7997,5.7997,5.7997,5.7997,5.7997,5.7997,5.7997,5.7997,5.7997,5.7997,5.7997,5.7997,5.7997,5.7997,5.7997,5.7997,2.6774,0.0,0.0,0.0,0.0,0.0,0.0,0.0,0.0,0.0,0.0,0.0,0.0,0.0,0.0,0.0,0.0,0.0,0.0,0.0,0.0,0.0,0.0,0.0,0.0,0.0,0.0,0.0,4.9439,4.948,4.9583,4.8988,4.8587,4.8471,4.8471,4.8471,4.8471,4.9317,4.976,4.976,5.0276,5.0544,5.0544,5.0544,5.0544,5.0544,5.0663,5.0643,5.0523,5.0648,5.1111,5.1785,5.2482,5.2862,5.3057,5.3607,5.3545,5.3206,5.3206,5.3206,5.3206,5.3206,5.4142,5.5299,5.5519,5.6565,5.7703,5.7941,5.7997,5.7997,5.7997,5.7997,5.7997,5.7997,5.7997,5.7997,5.7997,5.7997,5.7997,5.7997,5.7997,5.7997,5.7997,5.7997,5.7997,5.7997,5.7997,5.7997,5.7997,5.7997,5.7997,5.7997,5.7997,5.7997,5.7997,5.7997,5.7997,5.7997,5.7997,5.7997,5.7997,5.7997,5.7997,5.7997,5.7997,5.7997,5.7997,5.7997,5.7997,5.7997,5.7997,5.7997,0.0,0.0,0.0,0.0,0.0,0.0,0.0,3.6084,0.0,0.0,0.0,0.0,0.0,0.0,0.0,0.0,0.0,0.0,0.0,0.0,0.0,0.0,0.0,0.0,0.0,0.0,0.0,4.8856,4.8856,4.8856,4.8856,4.8067,4.7605,4.7605,4.7605,4.7605,4.7605,4.8432,4.9048,4.9413,4.9913,5.0337,5.0702,5.0702,5.0702,5.0702,5.0702,5.0702,5.0702,5.0702,5.0971,5.149,5.2472,5.2889,5.3061,5.3823,5.3833,5.3422,5.3272,5.3206,5.3206,5.3206,5.4289,5.5592,5.5592,5.6712,5.7997,5.7997,5.7997,5.7997,5.7997,5.7997,5.7997,5.7997,5.7997,5.7997,5.7997,5.7997,5.7997,5.7997,5.7997,5.7997,5.7997,5.7997,5.7997,5.7997,5.7997,5.7997,5.7997,5.7997,5.7997,5.7997,5.7997,5.7997,5.7997,5.7997,5.7997,5.7997,5.7997,5.7997,5.7997,5.7997,5.7997,5.7997,5.7997,5.7997,5.7997,5.7997,5.7997,5.7997,5.7997,5.7997,0.0,0.0,0.0,0.0,0.0,0.0,3.5853,3.5545,3.518,0.0,0.0,0.0,0.0,0.0,0.0,0.0,0.0,0.0,0.0,0.0,0.0,0.0,0.0,0.0,0.0,4.7913,4.7971,4.7971,4.7971,4.7932,4.7836,4.7144,4.6759,4.6759,4.6759,4.6759,4.6759,4.7567,4.8355,4.9125,4.9317,4.9798,5.0548,5.0644,5.0702,5.0702,5.0702,5.0702,5.0702,5.0702,5.0702,5.0856,5.2549,5.2951,5.2741,5.4065,5.4288,5.3814,5.3422,5.3272,5.3272,5.3206,5.4234,5.5464,5.5556,5.6657,5.7886,5.796,5.7997,5.7997,5.7997,5.7997,5.7997,5.7997,5.7997,5.7997,5.7997,5.7997,5.7997,5.7997,5.7997,5.7997,5.7997,5.7997,5.7997,5.7997,5.7997,5.7997,5.7997,5.7997,5.7997,5.7997,5.7997,5.7997,5.7997,5.7997,5.7997,5.7997,5.7997,5.7997,5.7997,5.7997,5.7997,5.7997,5.7997,5.7997,5.7997,5.7997,5.7997,5.7997,5.7997,5.7997,0.0,0.0,0.0,0.0,0.0,0.0,3.2045,3.2545,3.3795,0.0,0.0,0.0,0.0,0.0,0.0,0.0,0.0,0.0,0.0,0.0,0.0,0.0,0.0,0.0,0.0,4.6721,4.7144,4.7144,4.7144,4.6836,4.6124,4.5932,4.5855,4.5855,4.5855,4.5855,4.5855,4.6721,4.7221,4.7413,4.8759,4.949,4.9683,5.0375,5.0702,5.0702,5.0702,5.0702,5.0702,5.0702,5.0702,5.0856,5.2549,5.2951,5.2793,5.4398,5.4731,5.4288,5.3851,5.3683,5.3624,5.3295,5.3849,5.4748,5.539,5.6271,5.7171,5.7813,5.7997,5.7997,5.7997,5.7997,5.7997,5.7997,5.7997,5.7997,5.7997,5.7997,5.7997,5.7997,5.7997,5.7997,5.7997,5.7997,5.7997,5.7997,5.7997,5.7997,5.7997,5.7997,5.7997,5.7997,5.7997,5.7997,5.7997,5.7997,5.7997,5.7997,5.7997,5.7997,5.7997,5.7997,5.7997,5.7997,5.7997,5.7997,5.7997,5.7997,5.7997,5.7997,5.7997,5.7997,0.0,0.0,0.0,3.2949,0.0,0.0,0.0,0.0,3.2506,3.5488,0.0,0.0,0.0,0.0,0.0,0.0,0.0,0.0,0.0,0.0,0.0,0.0,0.0,0.0,0.0,4.599,4.624,4.624,4.624,4.6067,4.5605,4.5586,4.5586,4.5586,4.5586,4.5586,4.5586,4.6028,4.6471,4.6913,4.8163,4.8971,4.9433,5.0298,5.0702,5.0702,5.0702,5.0702,5.0702,5.0702,5.0702,5.0856,5.2549,5.308,5.3096,5.4549,5.4979,5.4731,5.4322,5.3977,5.3777,5.3565,5.3893,5.4546,5.5354,5.6436,5.7483,5.7886,5.7997,5.7997,5.7997,5.7997,5.7997,5.7997,5.7997,5.7997,5.7997,5.7997,5.7997,5.7997,5.7997,5.7997,5.7997,5.7997,5.7997,5.7997,5.7997,5.7997,5.7997,5.7997,5.7997,5.7997,5.7997,5.7997,5.7997,5.7997,5.7997,5.7997,5.7997,5.7997,5.7997,5.7997,5.7997,5.7997,5.7997,5.7997,5.7997,5.7997,5.7997,5.7997,5.7997,5.7997,0.0,0.0,0.0,0.0,0.0,3.2545,0.0,0.0,0.0,3.5103,0.0,0.0,0.0,0.0,0.0,0.0,0.0,0.0,0.0,0.0,0.0,0.0,0.0,0.0,0.0,4.5047,4.5066,4.5547,4.5143,4.5066,4.5566,4.5586,4.5586,4.5586,4.5586,4.5586,4.5586,4.5586,4.5951,4.6663,4.7644,4.8471,4.9183,5.0221,5.0702,5.0702,5.0702,5.0702,5.0702,5.0702,5.0702,5.0856,5.2549,5.3203,5.3353,5.4719,5.5212,5.516,5.4779,5.4322,5.3905,5.3851,5.4081,5.4546,5.5354,5.662,5.7795,5.796,5.7997,5.7997,5.7997,5.7997,5.7997,5.7997,5.7997,5.7997,5.7997,5.7997,5.7997,5.7997,5.7997,5.7997,5.7997,5.7997,5.7997,5.7997,5.7997,5.7997,5.7997,5.7997,5.7997,5.7997,5.7997,5.7997,5.7997,5.7997,5.7997,5.7997,5.7997,5.7997,5.7997,5.7997,5.7997,5.7997,5.7997,5.7997,5.7997,5.7997,5.7997,5.7997,5.7997,5.7997,0.0,0.0,0.0,0.0,3.745,0.0,0.0,0.0,3.3468,3.2487,0.0,0.0,0.0,0.0,0.0,0.0,0.0,0.0,0.0,0.0,0.0,0.0,0.0,0.0,0.0,0.0,4.3162,4.5432,4.3508,4.322,4.547,4.5586,4.5586,4.5586,4.5586,4.5586,4.5586,4.5586,4.5643,4.5759,4.7355,4.8144,4.8298,4.9952,5.0702,5.0702,5.0702,5.0702,5.0702,5.0702,5.0702,5.0856,5.2549,5.3203,5.3414,5.5025,5.564,5.5577,5.5186,5.476,5.4355,5.396,5.4081,5.4546,5.5354,5.6235,5.7079,5.7795,5.7997,5.7997,5.7997,5.7997,5.7997,5.7997,5.7997,5.7997,5.7997,5.7997,5.7997,5.7997,5.7997,5.7997,5.7997,5.7997,5.7997,5.7997,5.7997,5.7997,5.7997,5.7997,5.7997,5.7997,5.7997,5.7997,5.7997,5.7997,5.7997,5.7997,5.7997,5.7997,5.7997,5.7997,5.7997,5.7997,5.7997,5.7997,5.7997,5.7997,5.7997,5.7997,5.7997,5.7997,0.0,0.0,0.0,0.0,0.0,0.0,3.2737,0.0,3.2064,0.0,0.0,0.0,0.0,0.0,0.0,0.0,0.0,0.0,0.0,0.0,0.0,0.0,0.0,0.0,0.0,0.0,0.0,0.0,0.0,4.2701,4.4739,4.5316,4.5586,4.5586,4.5586,4.5586,4.5586,4.5586,4.5586,4.5605,4.7298,4.8105,4.8163,4.9913,5.0702,5.0702,5.0702,5.0702,5.0702,5.0702,5.0702,5.0818,5.1991,5.276,5.3356,5.4568,5.5299,5.5682,5.5512,5.5186,5.4731,5.4048,5.4081,5.4546,5.5354,5.6369,5.7315,5.7849,5.8213,5.8351,5.807,5.7997,5.7997,5.7997,5.7997,5.7997,5.7997,5.7997,5.7997,5.7997,5.7997,5.7997,5.7997,5.7997,5.7997,5.7997,5.7997,5.7997,5.7997,5.7997,5.7997,5.7997,5.7997,5.7997,5.7997,5.7997,5.7997,5.7997,5.7997,5.7997,5.7997,5.7997,5.7997,5.7997,5.7997,5.7997,5.7997,5.7997,5.7997,5.7997,5.7997,5.7997,4.0662,0.0,0.0,0.0,0.0,0.0,0.0,0.0,0.0,0.0,0.0,0.0,0.0,0.0,0.0,0.0,0.0,0.0,0.0,0.0,0.0,0.0,0.0,0.0,0.0,0.0,0.0,0.0,0.0,0.0,4.4162,4.4893,4.5336,4.5586,4.5586,4.5586,4.5586,4.5586,4.5586,4.5605,4.7298,4.8105,4.8163,4.9913,5.0702,5.0702,5.0702,5.0702,5.0702,5.0702,5.0702,5.076,5.1337,5.2241,5.3318,5.4184,5.5011,5.5703,5.5703,5.5356,5.4819,5.4048,5.3933,5.4252,5.528,5.6245,5.7126,5.7821,5.8238,5.8418,5.8115,5.7997,5.7997,5.7997,5.7997,5.7997,5.7997,5.7997,5.7997,5.7997,5.7997,5.7997,5.7997,5.7997,5.7997,5.7997,5.7997,5.7997,5.7997,5.7997,5.7997,5.7997,5.7997,5.7997,5.7997,5.7997,5.7997,5.7997,5.7997,5.7997,5.7997,5.7997,5.7997,5.7997,5.7997,5.7997,5.7997,5.7997,5.7997,5.7997,5.7997,5.7997,0.0,0.0,0.0,3.9027,0.0,0.0,0.0,0.0,3.4083,0.0,0.0,0.0,0.0,0.0,0.0,0.0,0.0,0.0,0.0,0.0,0.0,0.0,0.0,0.0,0.0,0.0,0.0,0.0,0.0,0.0,4.4028,4.4335,4.472,4.5566,4.5586,4.5586,4.5586,4.5586,4.5586,4.5605,4.7298,4.8105,4.8163,4.9913,5.0702,5.0702,5.0702,5.0702,5.0702,5.0702,5.0702,5.0702,5.0721,5.1741,5.3318,5.4184,5.5011,5.5703,5.5703,5.5186,5.442,5.3941,5.3563,5.3537,5.5115,5.5655,5.6004,5.7556,5.7997,5.8042,5.7997,5.7997,5.7997,5.7997,5.7997,5.7997,5.7997,5.7997,5.7997,5.7997,5.7997,5.7997,5.7997,5.7997,5.7997,5.7997,5.7997,5.7997,5.7997,5.7997,5.7997,5.7997,5.7997,5.7997,5.7997,5.7997,5.7997,5.7997,5.7997,5.7997,5.7997,5.7997,5.7997,5.7997,5.7997,5.7997,5.7997,5.7997,5.7997,5.7997,5.7997,5.7997,0.0,0.0,4.3682,4.1162,0.0,0.0,0.0,0.0,0.0,0.0,0.0,0.0,0.0,0.0,0.0,0.0,0.0,0.0,0.0,0.0,0.0,0.0,0.0,0.0,0.0,0.0,0.0,0.0,3.7892,0.0,0.0,4.4008,4.4701,4.5566,4.5586,4.5586,4.5586,4.5586,4.5586,4.5605,4.6759,4.7586,4.8144,4.9317,5.0144,5.0702,5.0702,5.0702,5.0702,5.0702,5.0702,5.0741,5.1298,5.2202,5.3241,5.353,5.4511,5.5703,5.5703,5.5331,5.4876,5.4712,5.4168,5.3978,5.5884,5.6293,5.6407,5.7997,5.8442,5.8375,5.807,5.7997,5.7997,5.7997,5.7997,5.7997,5.7997,5.7997,5.7997,5.7997,5.7997,5.7997,5.7997,5.7997,5.7997,5.7997,5.7997,5.7997,5.7997,5.7997,5.7997,5.7997,5.7997,5.7997,5.7997,5.7997,5.7997,5.7997,5.7997,5.7997,5.7997,5.7997,5.7997,5.7997,5.7997,5.7997,5.7997,5.7997,5.7997,5.7997,5.7997,5.7997,4.4624,4.4759,0.0,4.2297,4.0566,0.0,3.5738,0.0,0.0,0.0,0.0,0.0,0.0,0.0,0.0,0.0,0.0,0.0,0.0,0.0,0.0,0.0,0.0,0.0,0.0,0.0,3.5084,3.6603,0.0,0.0,0.0,0.0,4.4259,4.5105,4.5432,4.5586,4.5586,4.5586,4.5586,4.5605,4.6778,4.7605,4.8144,4.9317,5.0164,5.0702,5.0702,5.0702,5.0702,5.0702,5.0702,5.0779,5.1587,5.2433,5.3241,5.3549,5.453,5.5703,5.5703,5.5331,5.4895,5.4895,5.4303,5.396,5.6067,5.6388,5.6429,5.8207,5.8591,5.8375,5.807,5.7997,5.7997,5.7997,5.7997,5.7997,5.7997,5.7997,5.7997,5.7997,5.7997,5.7997,5.7997,5.7997,5.7997,5.7997,5.7997,5.7997,5.7997,5.7997,5.7997,5.7997,5.7997,5.7997,5.7997,5.7997,5.7997,5.7997,5.7997,5.7997,5.7997,5.7997,5.7997,5.7997,5.7997,5.7997,5.7997,5.7997,5.7997,5.7997,5.7997,5.7997]},{"header":{"parameterUnit":"m.s-1","parameterCategory":1,"la1":30.6,"la2":29.2853,"lo1":-89.7004,"lo2":-87.6739,"dy":0.0162,"dx":0.0183,"nx":112,"ny":82,"refTime":"2025-04-08T06:00:00:Z","depth":0,"parameterNumber":3,"parameterNumberName":"V-component_of_WINDS"},"data":[0.0,0.0,0.0,0.0,0.0,0.0,0.0,0.0,0.0,0.0,0.0,0.0,0.0,0.0,0.0,0.0,0.0,0.0,0.0,0.0,0.0,0.0,0.0,0.0,0.0,0.0,0.0,0.0,0.0,0.0,0.0,0.0,0.0,0.0,0.0,0.0,0.0,0.0,0.0,0.0,0.0,0.0,0.0,0.0,0.0,0.0,0.0,0.0,0.0,0.0,0.0,0.0,0.0,0.0,0.0,0.0,0.0,0.0,0.0,0.0,0.0,0.0,0.0,0.0,0.0,0.0,0.0,0.0,0.0,0.0,0.0,0.0,0.0,0.0,0.0,0.0,0.0,0.0,0.0,0.0,0.0,0.0,0.0,0.0,0.0,0.0,0.0,0.0,0.0,0.0,0.0,1.349,1.6439,1.8252,1.831,1.7934,1.6857,1.475,0.0,0.0,0.0,0.0,0.0,0.0,0.0,0.0,0.0,0.0,0.0,0.0,0.0,0.0,0.0,0.0,0.0,0.0,0.0,0.0,0.0,0.0,0.0,0.0,0.0,0.0,0.0,0.0,0.0,0.0,0.0,0.0,0.0,0.0,0.0,0.0,0.0,0.0,0.0,0.0,0.0,0.0,0.0,0.0,0.0,0.0,0.0,0.0,0.0,0.0,0.0,0.0,0.0,0.0,0.0,0.0,0.0,0.0,0.0,0.0,0.0,0.0,0.0,0.0,0.0,0.0,0.0,0.0,0.0,0.0,0.0,0.0,0.0,0.0,0.0,0.0,0.0,0.0,0.0,0.0,0.0,0.0,0.0,0.0,0.0,0.0,0.0,0.0,0.0,0.0,0.0,0.0,0.0,0.0,0.0,0.0,0.0,0.0,0.0,0.0,0.0,0.0,0.0,0.0,1.3085,1.6825,1.8387,1.9221,1.9576,1.8278,1.7358,1.7071,0.0,0.0,0.0,0.0,0.0,0.0,0.0,0.0,0.0,0.0,0.0,0.0,0.0,0.0,0.0,0.0,0.0,0.0,0.0,0.0,0.0,0.0,0.0,0.0,0.0,0.0,0.0,0.0,0.0,0.0,0.0,0.0,0.0,0.0,0.0,0.0,0.0,0.0,0.0,0.0,0.0,0.0,0.0,0.0,0.0,0.0,0.0,0.0,0.0,0.0,0.0,0.0,0.0,0.0,0.0,0.0,0.0,0.0,0.0,0.0,0.0,0.0,0.0,0.0,0.0,0.0,0.0,0.0,0.0,0.0,0.0,0.0,0.0,0.0,0.0,0.0,0.0,0.0,0.0,0.0,0.0,0.0,0.0,0.0,0.0,0.0,0.0,0.0,0.0,0.0,0.0,0.0,0.0,0.0,0.0,0.0,0.0,0.0,0.0,0.0,0.0,0.0,0.0,1.2649,1.5007,1.8669,1.9675,2.0175,2.024,1.9727,1.8852,1.7667,1.5686,0.0,0.0,0.0,0.0,0.0,0.0,0.0,0.0,0.0,0.0,0.0,0.0,0.0,0.0,0.0,0.0,0.0,0.0,0.0,0.0,0.0,0.0,0.0,0.0,0.0,0.0,0.0,0.0,0.0,0.0,0.0,0.0,0.0,0.0,0.0,0.0,0.0,0.0,0.0,0.0,0.0,0.0,0.0,0.0,0.0,0.0,0.0,0.0,0.0,0.0,0.0,0.0,0.0,0.0,0.0,0.0,0.0,0.0,0.0,0.0,0.0,0.0,0.0,0.0,0.0,0.0,0.0,0.0,0.0,0.0,0.0,0.0,0.0,0.0,0.0,0.0,0.0,0.0,0.0,0.0,0.0,0.0,0.0,0.0,0.0,0.0,0.0,0.0,0.0,0.0,0.0,0.0,0.0,0.0,0.0,0.0,0.0,0.0,0.0,0.0,0.0,0.0,1.5067,1.6749,1.9603,2.0647,2.1058,2.0896,2.0756,1.9913,1.7998,1.5819,0.0,0.0,0.0,0.0,0.0,0.0,0.0,0.0,0.0,0.0,0.0,0.0,0.0,0.0,0.0,0.0,0.0,0.0,0.0,0.0,0.0,0.0,0.0,0.0,0.0,0.0,0.0,0.0,0.0,0.0,0.0,0.0,0.0,0.0,0.0,0.0,0.0,0.0,0.0,0.0,0.0,0.0,0.0,0.0,0.0,0.0,0.0,0.0,0.0,0.0,0.0,0.0,0.0,0.0,0.0,0.0,0.0,0.0,0.0,0.0,0.0,0.0,0.0,0.0,0.0,0.0,0.0,0.0,0.0,0.0,0.0,0.0,0.0,0.0,0.0,0.0,0.0,0.0,0.0,0.0,0.0,0.0,0.0,0.0,0.0,0.0,0.0,0.0,0.0,0.0,0.0,0.0,0.0,0.0,0.0,0.0,0.0,0.0,0.0,0.0,0.0,0.0,1.5748,1.7949,1.973,2.1124,2.1881,2.1779,2.0551,1.9499,1.8834,1.53,0.0,0.0,0.0,0.0,0.0,0.0,0.0,0.0,0.0,0.0,0.0,0.0,0.0,0.0,0.0,0.0,0.0,0.0,0.0,0.0,0.0,0.0,0.0,0.0,0.0,0.0,0.0,0.0,0.0,0.0,0.0,0.0,0.0,0.0,0.0,0.0,0.0,0.0,0.0,0.0,0.0,0.0,0.0,0.0,0.0,0.0,0.0,0.0,0.0,0.0,0.0,0.0,0.0,0.0,0.0,0.0,0.0,0.0,0.0,0.0,0.0,0.0,0.0,0.0,0.0,0.0,0.0,0.0,0.0,0.0,0.0,0.0,0.0,0.0,0.0,0.0,0.0,0.0,0.0,0.0,0.0,0.0,0.0,0.0,0.0,0.0,0.0,0.0,0.0,0.0,0.0,0.0,0.0,0.0,0.0,0.0,0.0,0.0,0.0,0.0,0.0,0.0,1.6312,1.8689,0.0,2.2222,2.2895,2.2753,2.2206,2.0983,1.9018,0.0,0.0,0.0,0.0,0.0,0.0,0.0,0.0,0.0,0.0,0.0,0.0,0.0,0.0,0.0,0.0,0.0,0.0,0.0,0.0,0.0,0.0,0.0,0.0,0.0,0.0,0.0,0.0,0.0,0.0,0.0,0.0,0.0,0.0,0.0,0.0,0.0,0.0,0.0,0.0,0.0,0.0,0.0,0.0,0.0,0.0,0.0,0.0,0.0,0.0,0.0,0.0,0.0,0.0,0.0,0.0,0.0,0.0,0.0,0.0,0.0,0.0,0.0,0.0,0.0,0.0,0.0,0.0,0.0,0.0,0.0,0.0,0.0,0.0,0.0,0.0,0.0,0.0,0.0,0.0,0.0,0.0,0.0,0.0,0.0,0.0,0.0,0.0,0.0,0.0,0.0,0.0,0.0,0.0,0.0,0.0,0.0,0.0,0.0,0.0,0.0,0.0,1.4333,1.6868,1.9302,0.0,2.2925,2.3538,2.3609,2.3119,2.1712,1.9029,0.0,0.0,0.0,0.0,0.0,0.0,0.0,0.0,0.0,0.0,0.0,0.0,0.0,0.0,0.0,0.0,0.0,0.0,0.0,0.0,0.0,0.0,0.0,0.0,0.0,0.0,0.0,0.0,0.0,0.0,0.0,0.0,0.0,0.0,0.0,0.0,0.0,0.0,0.0,0.0,0.0,0.0,0.0,0.0,0.0,0.0,0.0,0.0,0.0,0.0,0.0,0.0,0.0,0.0,0.0,0.0,0.0,0.0,0.0,0.0,0.0,0.0,0.0,0.0,0.0,0.0,0.0,0.0,0.0,0.0,0.0,0.0,0.0,0.0,0.0,0.0,0.0,0.0,0.0,0.0,0.0,0.0,0.0,0.0,0.0,0.0,0.0,0.0,0.0,0.0,0.0,0.0,0.0,0.0,0.0,0.0,0.0,0.0,0.0,0.0,0.0,0.0,1.4474,1.7432,2.0042,2.1868,2.2936,2.3697,2.421,2.3021,2.1293,0.0,0.0,0.0,0.0,0.0,0.0,0.0,0.0,0.0,0.0,0.0,0.0,0.0,0.0,0.0,0.0,0.0,0.0,0.0,0.0,0.0,0.0,0.0,0.0,0.0,0.0,0.0,0.0,0.0,0.0,0.0,0.0,0.0,0.0,0.0,0.0,0.0,0.0,0.0,0.0,0.0,0.0,0.0,0.0,0.0,0.0,0.0,0.0,0.0,0.0,0.0,0.0,0.0,0.0,0.0,0.0,0.0,0.0,0.0,0.0,0.0,0.0,0.0,0.0,0.0,0.0,0.0,0.0,0.0,0.0,0.0,0.0,0.0,0.0,0.0,0.0,0.0,0.0,0.0,0.0,0.0,0.0,0.0,0.0,0.0,0.0,0.0,0.0,0.0,0.0,0.0,0.0,0.0,0.0,0.0,0.0,0.0,0.0,0.0,0.0,0.0,0.0,0.0,1.4401,1.8348,2.1587,2.3404,2.4551,2.5313,2.5758,2.3978,2.1697,1.8953,0.0,0.0,0.0,0.0,0.0,0.0,0.0,0.0,0.0,0.0,0.0,0.0,0.0,0.0,0.0,0.0,0.0,0.0,0.0,0.0,0.0,0.0,0.0,0.0,0.0,0.0,0.0,0.0,0.0,0.0,0.0,0.0,0.0,0.0,0.0,0.0,0.0,0.0,0.0,0.0,0.0,0.0,0.0,0.0,0.0,0.0,0.0,0.0,0.0,0.0,0.0,0.0,0.0,0.0,0.0,0.0,0.0,0.0,0.0,0.0,0.0,0.0,0.0,0.0,0.0,0.0,0.0,0.0,0.0,0.0,0.0,0.0,0.0,0.0,0.0,0.0,0.0,0.0,0.0,0.0,0.0,0.0,0.0,0.0,0.0,0.0,0.0,0.0,0.0,0.0,0.0,0.0,0.0,0.0,0.0,0.0,0.0,0.0,0.0,0.0,0.0,0.0,1.4689,1.8982,2.251,2.4368,2.5529,2.6299,2.6759,2.4958,2.2433,1.9345,0.0,0.0,0.0,0.0,0.0,0.0,0.0,0.0,0.0,0.0,0.0,0.0,0.0,0.0,0.0,0.0,0.0,0.0,0.0,0.0,0.0,0.0,0.0,0.0,0.0,0.0,0.0,0.0,0.0,0.0,0.0,0.0,0.0,0.0,0.0,0.0,0.0,0.0,0.0,0.0,0.0,0.0,0.0,0.0,0.0,0.0,0.0,0.0,0.0,0.0,0.0,0.0,0.0,0.0,0.0,0.0,0.0,0.0,0.0,0.0,0.0,0.0,0.0,0.0,0.0,0.0,0.0,0.0,0.0,0.0,0.0,0.0,0.0,0.0,0.0,0.0,0.0,0.0,0.0,0.0,0.0,0.0,0.0,0.0,0.0,0.0,0.0,0.0,0.0,0.0,0.0,0.0,0.0,0.0,0.0,0.0,0.0,0.0,0.0,0.0,0.0,0.0,1.5091,1.9459,2.3069,2.4882,2.6142,2.7004,2.7322,2.5837,2.3415,2.0088,0.0,0.0,0.0,0.0,0.0,0.0,0.0,0.0,0.0,0.0,0.0,0.0,0.0,0.0,0.0,0.0,0.0,0.0,0.0,0.0,0.0,0.0,0.0,0.0,0.0,0.0,0.0,0.0,0.0,0.0,0.0,0.0,0.0,0.0,0.0,0.0,0.0,0.0,0.0,0.0,0.0,0.0,0.0,0.0,0.0,0.0,0.0,0.0,0.0,0.0,0.0,0.0,0.0,0.0,0.0,0.0,0.0,0.0,0.0,0.0,0.9249,0.0,0.0,0.0,0.0,0.0,0.0,0.0,0.0,0.0,0.0,0.0,0.0,0.0,0.0,0.0,0.0,0.0,0.0,0.0,0.0,0.0,0.0,0.0,0.0,0.0,0.0,0.0,0.0,0.0,0.0,0.0,0.0,0.0,0.0,0.0,0.0,0.0,0.0,0.0,0.0,0.0,1.5091,2.0411,2.4455,2.5543,2.7311,2.8288,2.7984,2.6389,2.4149,2.1212,0.0,0.0,0.0,0.0,0.0,0.0,0.0,0.0,0.0,0.0,0.0,0.0,0.0,0.0,0.0,0.0,0.0,0.0,0.0,0.0,0.0,0.0,0.0,0.0,0.0,0.0,0.0,0.0,0.0,0.0,0.0,0.0,0.0,0.0,0.0,0.0,0.0,0.0,0.0,0.0,0.0,0.0,0.0,0.0,0.0,0.0,0.0,0.0,0.0,0.0,0.0,0.0,0.0,0.0,0.0,0.0,0.0,0.0,0.0,0.0,0.0,1.0593,0.0,0.0,0.0,0.0,0.0,0.0,0.0,0.0,0.0,0.0,0.0,0.0,0.0,0.0,0.0,0.0,0.0,0.0,0.0,0.0,0.0,0.0,0.0,0.0,0.0,0.0,0.0,0.0,0.0,0.0,0.0,0.0,0.0,0.0,0.0,0.0,0.0,0.0,0.0,0.0,1.6899,2.1711,2.537,2.6771,2.8354,2.9114,2.8549,2.7205,2.5249,2.2407,1.9371,0.0,0.0,0.0,0.0,0.0,0.0,0.0,0.0,0.0,0.0,0.0,0.0,0.0,0.0,0.0,0.0,0.0,0.0,0.0,0.0,0.0,0.0,0.0,0.0,0.0,0.0,0.0,0.0,0.0,0.0,0.0,0.0,0.0,0.0,0.0,0.0,0.0,0.0,0.0,0.0,0.0,0.0,0.0,0.0,0.0,0.0,0.0,0.0,0.0,0.0,0.0,0.0,0.0,1.5235,1.5839,1.6218,1.6617,1.6768,1.6679,1.5067,1.411,1.3585,0.0,0.0,0.0,0.0,0.0,0.0,0.0,0.0,0.0,0.0,0.0,0.0,0.0,0.0,0.0,0.0,0.0,0.0,0.0,0.0,0.0,0.0,0.0,0.0,0.0,1.2473,1.2333,0.0,0.0,0.0,0.0,0.0,0.0,0.0,0.0,0.0,0.0,0.0,0.0,1.8952,2.2894,2.6027,2.7909,2.9106,2.9566,2.8976,2.8009,2.6308,2.3717,2.1044,1.8372,0.0,0.0,0.0,0.0,0.0,0.0,0.0,0.0,0.0,0.0,0.0,0.0,0.0,0.0,0.0,0.0,0.0,0.0,0.0,0.0,0.0,0.0,0.0,0.0,0.0,0.0,0.0,0.0,0.0,0.0,0.0,0.0,1.0765,1.1506,0.0,0.0,0.0,0.0,0.0,0.0,0.0,0.0,0.0,0.0,0.0,0.0,0.0,0.0,1.4832,1.5876,1.6826,1.7687,1.8336,1.9065,1.9898,1.9956,1.9985,1.9966,1.9696,0.0,1.499,1.4637,0.0,0.0,0.0,0.0,0.0,0.0,0.0,0.0,0.0,0.0,0.0,0.0,0.0,0.0,0.0,0.0,0.0,0.0,0.0,0.0,0.0,0.0,1.5972,1.6362,1.6363,1.5979,0.0,1.2462,1.0287,0.9953,0.0,0.0,0.0,0.0,0.0,0.0,0.0,0.0,1.9404,2.3308,2.6325,2.7945,2.9106,2.9566,2.8976,2.8348,2.7256,2.5419,2.3545,2.1374,1.8825,1.6798,0.0,0.0,0.0,0.0,0.0,0.0,0.0,0.0,0.0,0.0,0.0,0.0,0.0,0.0,0.0,0.0,0.0,0.0,0.0,0.0,0.0,0.0,0.0,0.0,0.0,0.0,0.0,0.0,0.0,1.1534,1.2543,1.2985,1.2838,1.2262,0.0,0.0,0.0,0.0,0.0,0.0,0.0,0.0,0.0,1.5465,1.649,1.7306,1.7893,1.8842,1.9509,1.9917,2.0666,2.124,2.167,2.1904,2.2012,2.2012,2.2012,2.1005,1.9198,1.7597,1.6614,1.5999,0.0,0.0,0.0,0.0,1.3624,1.4182,1.4944,1.484,0.0,0.0,0.0,0.0,0.0,0.0,0.0,0.0,0.0,0.0,0.0,0.0,0.0,1.773,1.7857,1.7761,1.7341,1.5408,1.329,0.0,1.1136,1.0371,0.8564,0.0,0.0,0.0,0.0,0.0,2.1589,2.4293,2.6645,2.8797,2.9534,2.9691,2.944,2.89,2.7984,2.6628,2.4872,2.287,2.0538,1.8458,1.6419,0.0,0.0,0.0,0.0,0.0,0.0,0.0,0.0,0.0,0.0,0.0,0.0,0.0,0.0,0.0,0.0,0.0,0.0,0.0,0.0,0.0,0.0,0.0,0.0,0.0,0.0,0.0,0.0,1.345,1.4327,1.4591,1.4581,1.3957,0.0,0.0,0.0,0.0,0.0,0.0,1.5316,1.6545,1.746,1.8084,1.9329,2.0215,2.0742,2.1504,2.1943,2.206,2.2695,2.2998,2.3008,2.332,2.3467,2.3467,2.3467,2.3291,2.2755,2.0229,1.9118,1.8742,1.6902,1.6334,1.6589,1.6301,1.6456,1.6935,1.7666,1.7794,1.7497,1.7424,0.0,1.5205,1.4427,0.0,0.0,0.0,0.0,1.5807,1.7398,1.8329,1.9006,1.9402,1.9615,1.9653,1.9384,1.8054,1.6247,0.0,1.2913,1.2025,1.018,0.0,0.0,0.0,0.0,1.8778,2.3631,2.5239,2.6954,2.9509,2.9792,2.9792,2.9792,2.9264,2.8574,2.7758,2.614,2.4333,2.2467,2.0322,1.8299,1.6327,0.0,0.0,0.0,0.0,0.0,0.0,0.0,0.0,0.0,0.0,0.0,0.0,0.0,0.0,0.0,0.0,0.0,0.0,0.0,0.0,0.0,0.0,0.0,0.0,0.0,0.0,0.0,0.0,0.0,1.6256,1.6891,0.0,0.0,0.0,0.0,1.6345,1.6684,1.7432,1.8928,1.9467,2.0099,2.0965,2.1514,2.2158,2.2988,2.3437,2.3857,2.4258,2.4297,2.4316,2.4326,2.4346,2.4355,2.4355,2.4355,2.4336,2.4189,2.2461,2.126,2.0372,1.904,1.8483,1.8271,1.7501,1.7569,1.8269,1.9299,1.898,1.8438,1.996,1.9103,1.7498,1.7181,1.6623,0.0,0.0,1.7938,1.9338,2.0044,2.1278,2.2349,2.2766,2.2882,2.2522,2.1416,2.0041,1.8311,0.0,1.4554,1.3367,1.2705,0.0,1.4813,1.5988,1.805,2.0801,2.4648,2.5902,2.736,2.9546,2.9792,2.9792,2.9792,2.9264,2.89,2.885,2.7736,2.6482,2.5097,2.3075,2.0953,1.868,1.6062,0.0,0.0,0.0,0.0,0.0,0.0,0.0,0.0,0.0,0.0,0.0,0.0,0.0,0.0,0.0,0.0,0.0,0.0,0.0,0.0,0.0,0.0,0.0,0.0,0.0,0.0,0.0,0.0,1.9483,1.9655,0.0,1.8179,1.7646,1.7619,1.834,1.8942,1.9676,2.0508,2.1211,2.1865,2.2461,2.2891,2.3389,2.3965,2.4121,2.4268,2.4414,2.4414,2.4414,2.4414,2.4414,2.4414,2.4414,2.4414,2.4414,2.4365,2.3769,2.333,2.2998,2.2226,2.2131,2.2246,2.1721,2.1792,2.2269,2.2634,2.2366,2.1664,2.1058,2.0171,1.9173,1.8379,1.7986,1.8014,1.9141,1.9877,2.0642,2.1816,2.2524,2.2949,2.3105,2.3135,2.296,2.258,2.1469,2.0253,1.9478,1.67,1.4491,1.4547,1.521,1.6253,1.7799,1.9794,2.2301,2.5216,2.6703,2.8108,2.9624,2.9792,2.9792,2.9792,2.9603,2.9176,2.8448,2.8034,2.7024,2.5182,2.3777,2.1991,1.9698,1.7791,1.5735,0.0,0.0,0.0,0.0,0.0,0.0,0.0,0.0,0.0,0.0,0.0,0.0,0.0,0.0,0.0,0.0,0.0,0.0,0.0,0.0,0.0,0.0,0.0,0.0,0.0,0.0,2.0703,2.2128,2.2127,2.1648,2.0519,1.9839,1.9687,2.0127,2.082,2.1484,2.207,2.2637,2.3144,2.3574,2.3857,2.4209,2.4629,2.4639,2.4785,2.5078,2.5078,2.5431,2.5929,2.5474,2.5569,2.5929,2.5474,2.5293,2.5293,2.5293,2.5293,2.5205,2.4336,2.417,2.4385,2.4102,2.418,2.4414,2.4414,2.4238,2.3806,2.2494,2.1854,2.1456,2.0747,2.0571,2.0801,2.178,2.2041,2.2293,2.3309,2.3564,2.3564,2.3564,2.3564,2.3525,2.3389,2.2434,2.1464,2.132,1.8742,1.6551,1.6822,1.7491,1.8404,1.9507,2.1559,2.3773,2.5772,2.7232,2.8518,2.9702,2.9792,2.9792,2.9792,2.9616,2.9176,2.8436,2.7858,2.6921,2.5548,2.3914,2.2229,2.0593,1.848,1.6283,1.4077,0.0,0.0,0.0,0.0,0.0,0.0,0.0,0.0,0.0,0.0,0.0,0.0,0.0,0.0,0.0,0.0,0.0,0.0,0.0,0.0,0.0,0.0,0.0,1.8554,2.0939,2.2893,2.3991,2.4296,2.3772,2.221,2.1603,2.1494,2.1934,2.2344,2.293,2.3849,2.3809,2.4004,2.4414,2.4453,2.4668,2.5107,2.5117,2.5557,2.6406,2.6406,2.7282,2.8844,2.7592,2.7693,2.8854,2.7602,2.7012,2.7012,2.7012,2.7012,2.6846,2.5146,2.4482,2.4473,2.4463,2.4453,2.4453,2.4443,2.4434,2.4434,2.4424,2.4414,2.4414,2.4414,2.4414,2.4414,2.4414,2.4414,2.4414,2.4414,2.4414,2.4414,2.4414,2.4414,2.4307,2.3896,2.2875,2.1925,2.1509,2.0421,1.9596,1.9588,2.0486,2.1293,2.1382,2.3384,0.0,2.6389,2.7452,2.8597,2.9702,2.9792,2.9792,2.9792,2.9264,2.8925,2.89,2.7369,2.6533,2.6533,2.3616,2.1812,2.133,1.7894,1.5469,1.4136,0.0,0.0,0.0,0.0,0.0,0.0,0.0,0.0,0.0,0.0,0.0,0.0,0.0,0.0,0.0,0.0,0.0,0.0,0.0,0.0,0.0,0.0,1.8801,2.0598,2.2651,2.4667,2.6719,2.7034,2.6711,2.5788,2.4849,2.4105,2.3771,2.3828,2.4426,2.5537,2.4766,2.4792,2.6136,2.566,2.5586,2.6025,2.6328,2.6602,2.6846,2.6846,2.7097,2.75,2.7206,2.7206,2.75,2.7114,2.7012,2.7012,2.7012,2.7012,2.6934,2.6152,2.585,2.581,2.5488,2.5371,2.5322,2.5,2.4893,2.4834,2.4521,2.4414,2.4414,2.4414,2.4414,2.4414,2.4414,2.4414,2.4414,2.4414,2.4414,2.4414,2.4414,2.4414,2.4385,2.4268,2.3963,2.3731,2.3606,2.3066,2.2205,2.0988,2.1114,2.1569,2.2492,2.4532,0.0,2.6483,2.8131,2.9443,2.9792,2.9792,2.9792,2.9792,2.9264,2.875,2.836,2.7155,2.6533,2.6533,2.4186,2.2083,2.0322,1.8142,1.6533,0.0,0.0,0.0,0.0,0.0,0.0,0.0,0.0,0.0,0.0,0.0,0.0,0.0,0.0,0.0,0.0,0.0,0.0,0.0,0.0,0.0,0.0,1.9043,2.1288,2.2752,2.3809,2.5351,2.8074,2.7567,2.687,2.6693,2.5618,2.4857,2.4394,2.4854,2.5473,2.6033,2.5868,2.6067,2.6896,2.6517,2.6396,2.665,2.6894,2.7109,2.7285,2.7285,2.7673,2.8337,2.7851,2.7851,0.0,2.7747,2.7549,2.7549,2.7549,2.7549,0.0,0.0,0.0,0.0,0.0,2.6269,2.623,2.5977,2.5879,2.581,2.5381,2.5244,2.5205,2.5029,2.4971,2.4971,2.4971,2.4971,2.4971,2.4971,2.4971,2.4971,2.4971,2.4971,2.4922,2.4727,2.4687,2.4639,2.4453,0.0,0.0,2.2772,2.2255,2.2306,2.296,2.5062,2.6483,2.6483,2.8462,2.9792,2.9792,2.9792,2.9792,2.9792,2.9264,0.0,0.0,0.0,2.5952,2.4707,2.3393,0.0,0.0,0.0,0.0,0.0,0.0,0.0,0.0,1.4542,1.4012,0.0,0.0,0.0,0.0,0.0,0.0,0.0,0.0,0.0,0.0,0.0,0.0,0.0,0.0,0.0,0.0,2.1001,2.3343,2.4693,2.4493,2.5311,2.835,2.6852,2.5753,2.6145,2.534,2.4673,2.4639,2.5747,2.6321,2.6015,0.0,0.0,0.0,0.0,2.7182,2.7284,2.7231,2.7353,2.7734,2.7734,2.853,3.0016,2.8794,2.89,3.0016,2.8804,2.8291,2.8291,2.8291,2.8291,2.8213,2.7402,2.706,2.7012,2.7012,2.7012,2.7012,2.7012,0.0,0.0,2.6582,2.6455,2.6387,2.5996,2.5879,2.5879,2.5879,2.585,2.581,2.581,2.5771,2.5742,2.5742,2.5742,2.5625,2.5225,2.5146,2.5029,2.4639,2.4521,2.4492,2.4492,2.3818,2.3281,2.3281,2.5051,2.6474,2.664,2.847,2.9786,2.9892,0.0,0.0,2.9804,2.9264,2.8925,2.8925,2.7494,2.5371,2.2396,2.2338,2.1629,2.0059,2.0068,2.0234,2.0566,2.0615,2.0644,2.0586,1.7153,1.5938,0.0,0.0,0.0,0.0,0.0,0.0,0.0,0.0,0.0,0.0,0.0,0.0,0.0,0.0,0.0,2.0312,2.2007,2.3553,2.5107,2.4743,2.5224,2.7651,2.7511,2.7095,2.6606,2.6713,2.6632,2.6075,2.6507,2.7252,2.8177,2.7532,0.0,3.01,2.8442,2.8028,2.9125,2.8481,2.8086,2.8174,0.0,0.0,2.8698,2.8398,2.8388,2.8698,2.8388,2.8291,2.8291,2.8291,2.8291,2.8242,2.7734,2.7324,2.7012,2.7012,2.7012,2.7012,2.7012,2.7012,2.7002,2.6914,2.6894,2.6875,2.6797,2.6768,0.0,2.6768,2.6523,2.626,2.626,2.6006,2.5742,2.5742,2.5742,2.5713,2.5625,2.5605,2.5586,2.5498,2.5185,2.4941,2.4941,2.4512,2.417,2.417,2.5317,2.6539,2.7476,2.8768,2.9816,3.0415,3.0457,3.0281,2.9829,2.9264,2.8925,2.8925,2.821,2.6578,2.3862,2.422,2.3305,2.0986,2.0986,2.084,2.0566,2.0928,2.1103,2.1084,1.9976,1.9563,0.0,0.0,0.0,0.0,0.0,0.0,0.0,0.0,0.0,0.0,0.0,1.5392,1.7275,0.0,2.0531,2.1938,2.3511,2.4715,2.5159,2.5411,2.5982,2.705,2.6901,2.6703,2.6522,2.6966,2.7033,2.668,2.7472,2.7976,2.8198,2.8208,2.8706,2.9534,2.8775,2.8601,2.9313,2.9026,2.8935,2.8935,2.8935,2.8935,2.8935,2.8935,2.8935,2.8935,2.8935,2.8935,2.8935,2.8935,2.8935,2.8887,2.8457,2.8027,2.7656,2.7656,2.7656,2.7656,2.7656,2.7656,2.7617,2.7412,2.7344,2.7305,2.708,2.7012,2.7012,2.7012,2.6865,2.665,2.6445,2.623,2.6006,2.5791,2.5742,2.5742,2.5742,2.5742,2.5742,2.5742,2.5557,2.54,2.54,2.5225,2.4932,2.4482,2.5401,2.6283,2.6896,2.7917,2.904,3.0007,3.0065,3.0114,3.0165,2.9691,2.9239,2.895,2.8112,2.678,2.4657,2.4314,2.3423,2.1875,2.1875,2.1865,2.1855,2.208,2.2187,2.2187,2.2187,2.1953,0.0,0.0,0.0,0.0,0.0,0.0,0.0,0.0,1.44,1.5364,1.6596,1.7962,1.9331,2.1024,2.2412,2.3271,2.4836,2.5778,2.5317,2.5993,2.6629,2.6722,2.6244,2.6035,2.6465,2.6894,2.7139,2.7139,2.8087,2.8493,2.7868,2.8776,2.9176,2.8807,2.8849,2.9064,2.9461,2.9496,2.957,2.957,2.957,2.957,2.957,2.957,2.957,2.957,2.957,2.957,2.957,2.957,2.957,2.9531,2.918,2.8838,2.8516,2.8359,2.8291,2.8291,2.8291,2.8291,2.8232,2.79,2.7783,2.7725,2.7373,2.7266,2.7266,2.7266,2.7207,2.706,2.6728,2.6572,2.6406,2.5967,2.5859,2.584,2.5752,2.5742,2.5742,2.5742,2.5742,2.5742,2.5742,2.5742,2.5498,2.4775,2.539,2.6113,2.6386,2.7155,2.8251,2.965,2.9723,3.0037,3.0728,3.0357,2.9814,2.9108,2.8161,2.6869,2.5123,2.4132,2.3299,2.2627,2.2637,2.2803,2.3135,2.3223,2.3262,2.3271,2.3711,2.3496,1.7213,1.5603,1.4168,1.4013,1.4363,1.5097,0.0,0.0,1.7171,1.8402,1.9149,2.0049,2.1791,2.2561,2.3281,2.4131,2.4771,2.5336,2.5596,2.6094,2.6566,2.695,2.6604,2.6484,2.6904,2.7334,2.7598,2.7598,2.8035,2.827,2.8223,2.8319,2.9136,3.0608,2.9519,2.962,3.1293,3.0178,2.957,2.957,2.957,2.957,2.957,2.957,2.957,2.957,2.957,2.957,2.957,2.957,2.957,2.956,2.9512,2.9473,2.9336,2.8574,2.8291,2.8291,2.8291,2.8291,2.8281,2.8232,2.8223,2.8213,2.8164,2.8144,2.8144,2.8144,2.7881,2.7588,2.7539,2.7236,2.6836,2.6416,2.6318,2.6211,2.582,2.5742,2.5742,2.5742,2.5742,2.5742,2.5742,2.5742,2.5703,2.5605,2.5682,2.6144,2.7243,2.7525,2.8261,3.0142,3.0355,3.0579,3.1267,3.1248,3.0753,2.9582,2.9034,2.775,2.5443,2.4861,2.4173,2.3066,2.3066,2.3096,2.3135,2.3525,2.3721,2.3721,2.415,2.4092,1.7864,1.6796,0.0,0.0,1.7013,1.7716,1.8544,1.8985,1.9507,2.0543,2.1265,2.2074,2.3057,2.3809,2.4463,0.0,2.5557,2.5986,2.6416,2.6426,2.6543,2.6963,2.6865,2.6924,2.7353,2.7783,2.8027,2.8027,2.8418,2.8662,2.8662,2.8896,2.9431,3.0148,2.9855,3.0073,3.0792,3.0527,3.0342,3.0342,3.0342,3.0342,3.0342,3.0342,3.0342,3.0342,3.0342,3.0342,3.0342,3.0342,3.0342,3.0312,3.0039,2.9932,2.9863,2.9258,2.8877,2.8662,2.8662,2.8496,2.8291,2.8291,2.8291,2.8291,2.8291,2.8291,2.8291,2.8291,2.8164,2.7978,2.7725,2.7529,2.7285,2.6855,2.6758,2.6709,2.6523,2.6289,2.6113,2.6113,2.5908,2.5742,2.5742,2.5742,2.5742,2.5742,2.5742,2.5927,2.638,2.6476,2.7316,2.9568,3.0179,3.0797,3.1793,3.1574,3.0869,2.9665,2.8765,2.7528,2.591,2.5023,2.4307,2.3877,2.3887,2.3887,2.3887,2.4062,2.415,2.417,2.46,2.4697,1.8121,0.0,0.0,1.8584,1.9277,1.9961,2.0508,2.0869,2.1348,2.2227,2.29,2.3486,2.4043,2.4648,2.5254,2.583,2.6182,2.6582,2.7119,2.6826,2.6719,2.7148,2.709,2.7187,2.7627,2.8047,2.834,2.8457,2.875,2.8975,2.9092,2.9404,2.9619,2.9736,3.0039,3.0264,3.0391,3.0723,3.0889,3.0889,3.0889,3.0889,3.0889,3.0889,3.0889,3.0889,3.0889,3.0889,3.0889,3.0889,3.0889,3.0859,3.0518,3.0391,3.0351,3.0049,2.958,2.9092,2.9092,2.8896,2.8623,2.8506,2.8467,2.8447,2.833,2.8291,2.8291,2.8291,2.8291,2.8223,2.792,2.7842,2.7734,2.7295,2.7197,2.7168,2.7041,2.6777,2.6562,2.6562,2.6309,2.6094,2.6094,2.6094,2.6055,2.5937,2.6016,2.6006,2.5762,2.6014,2.6935,2.868,2.9623,3.0477,3.1369,3.1101,3.0349,2.912,2.812,2.7079,2.5858,2.4924,2.4414,2.4414,2.4414,2.4414,2.4414,2.4531,2.459,2.4609,2.5049,2.5254,0.0,0.0,1.9434,2.0273,2.083,2.1396,2.2246,2.2441,2.2695,2.3555,2.375,2.4023,2.4873,2.5049,2.5352,2.623,2.6387,2.668,2.7529,2.7275,2.7158,2.7598,2.7275,2.7187,0.0,2.8047,2.8467,2.8867,2.8916,2.9101,2.9531,2.956,2.9756,3.0166,3.0185,3.041,3.0869,3.0889,3.0889,3.0889,3.0889,3.0889,3.0889,3.0889,3.0889,3.0889,3.0889,3.0889,3.0889,3.0889,3.0889,3.0889,3.0869,3.0869,3.0869,3.0859,3.0303,2.9551,2.9551,2.9541,2.9463,2.9033,2.8896,2.8818,2.8418,2.8291,2.8291,2.8291,2.8291,2.8291,2.8271,2.8271,2.8164,2.7744,2.7646,2.7529,2.7109,2.7002,2.6992,2.6992,2.6982,2.6973,2.6973,2.6973,2.6836,2.6426,2.6719,2.668,2.584,2.6754,2.7589,2.7683,2.8762,2.9476,2.9476,2.9465,2.8903,2.7735,2.721,2.6414,2.5143,2.4639,2.4414,2.4414,2.4414,2.4414,2.4414,2.4844,2.5049,2.5059,2.5508,2.5713,1.9013,0.0,2.0342,2.1221,2.1768,2.2305,2.3164,2.3135,2.3096,2.3672,2.3789,2.3877,2.417,2.4687,2.5361,2.625,2.6621,2.71,2.7959,2.7715,2.7393,2.7246,2.7363,0.0,0.0,0.0,0.0,2.8867,2.9189,2.9531,2.9961,3.0283,3.0508,3.0654,3.0654,3.0732,3.0889,3.0889,3.0889,3.0889,3.0889,3.0889,3.0889,3.0889,3.0889,3.0889,3.0889,3.0889,3.0889,3.0889,3.0889,3.0889,3.0889,3.0889,3.0889,3.0889,3.0703,3.04,3.0098,2.9805,2.9541,2.9404,2.915,2.8887,2.875,2.8516,2.8291,2.8291,2.8291,2.8291,2.8291,2.8291,2.8262,2.8115,2.8086,2.8037,2.7891,2.7646,2.7441,2.7441,2.7207,2.7012,2.7012,2.7012,2.6973,2.6826,2.6445,2.6172,2.6172,2.6289,2.6658,2.7494,2.7955,2.8495,2.9315,2.9407,2.8866,2.7683,2.7442,2.6804,2.5508,2.5371,2.5293,2.5293,2.5293,2.5293,2.5293,2.5439,2.5664,2.5947,2.6094,2.6318,2.0043,2.0723,2.1475,2.2344,2.2881,2.334,2.3887,2.3682,2.3496,2.3926,2.3896,2.3838,2.3984,2.4463,2.5176,2.6221,2.6621,2.7139,2.8154,2.793,2.7559,2.7285,2.7363,2.7383,0.0,0.0,0.0,2.8857,2.9316,2.9756,3.0176,3.0635,3.0889,3.0889,3.0889,3.0889,3.0889,3.0889,3.0889,3.0889,3.0889,3.0889,3.0889,3.0889,3.0889,3.0889,3.0889,3.0889,3.0889,3.0889,3.0889,3.0889,3.0889,3.0889,3.0889,3.0889,3.0889,3.085,3.0547,3.0264,3.001,2.9853,2.96,2.9316,2.9014,2.873,2.8486,2.833,2.8291,2.8291,2.8291,2.8291,2.8291,2.8291,2.8291,2.8291,2.8291,2.8086,2.7891,2.7891,2.7666,2.7471,2.7471,2.7353,2.7295,2.7451,2.6738,2.6299,2.6572,2.6367,2.6478,2.7329,2.7426,2.7634,2.8295,2.8284,2.7947,2.6955,2.6945,2.6572,2.5732,2.5742,2.5742,2.5742,2.5889,2.5967,2.5967,2.6123,2.6338,2.6611,2.6611,2.6758,2.1455,2.2236,2.2783,2.3613,2.4121,2.4414,2.4414,2.4092,2.3896,2.4277,2.4014,2.3838,0.0,0.0,2.4814,2.6113,2.6377,2.6865,2.8115,2.7969,2.7725,0.0,0.0,0.0,0.0,0.0,0.0,2.8896,0.0,2.9766,3.0205,3.0654,3.0889,3.0889,3.0889,3.0889,3.0889,3.0889,3.0889,3.0889,3.0889,3.0889,3.0889,3.0889,3.0889,3.0889,3.0889,3.0889,3.0889,3.0889,3.0889,3.0889,3.0889,3.0889,3.0889,3.0889,3.0889,3.0889,3.0889,3.0889,3.082,3.0371,3.0215,3.0049,2.9228,2.8975,2.8867,2.8437,2.833,2.832,2.8301,2.8291,2.8291,2.8291,2.8291,2.8291,2.8291,2.8291,2.8291,2.8291,2.8291,2.8291,2.8291,2.7959,2.7832,2.8232,2.7598,2.707,2.7051,2.7021,2.7012,2.7012,2.7012,2.6855,2.6455,2.6426,2.624,2.583,2.5801,2.5801,2.5801,2.5801,2.5801,2.5801,2.6211,2.6426,2.6426,2.6816,2.7021,2.7051,2.7051,2.706,2.206,2.29,2.3594,2.4121,2.4336,2.4414,2.4414,2.4092,2.373,2.3516,2.3125,2.2773,0.0,0.0,0.0,2.5244,2.6221,0.0,2.8154,2.8467,0.0,2.8164,0.0,2.8838,2.8623,2.8896,0.0,0.0,2.9502,2.9902,3.0674,3.083,3.0889,3.0889,3.0889,3.0889,3.0889,3.0889,3.0889,3.0889,3.0889,3.0889,3.0889,3.0889,3.0889,3.0889,3.0889,3.0889,3.0889,3.0889,3.0889,3.0889,3.0889,3.0889,3.0889,3.0889,3.0889,3.0889,3.0889,3.0889,3.0869,3.0752,3.0478,3.0156,2.9941,2.9658,2.9316,2.8877,2.876,2.8682,2.8369,2.8291,2.8291,2.8291,2.8291,2.8291,2.8291,2.8291,2.8291,2.8291,2.8291,2.8291,2.8291,2.8203,2.8164,2.8271,2.8105,2.7851,2.7539,2.7217,2.7012,2.7012,2.7012,2.6973,2.6865,2.6855,2.6807,2.6699,2.6689,2.6689,2.6689,2.6689,2.6689,2.6689,2.6797,2.6855,2.6855,2.6963,2.7178,2.75,2.75,2.7666,2.2842,2.3701,2.4404,2.4639,2.4697,2.4648,2.4463,2.3945,2.334,2.2715,2.2402,0.0,0.0,0.0,0.0,0.0,0.0,0.0,2.8115,2.8652,2.8906,0.0,2.9277,0.0,2.9228,2.9434,2.9648,0.0,2.9844,3.0059,3.0566,3.0781,3.0889,3.0889,3.0889,3.0889,3.0889,3.0889,3.0889,3.0889,3.0889,3.0889,3.0889,3.0889,3.0889,3.0889,0.0,3.0889,3.0889,3.0889,3.0889,3.0889,3.0889,3.0889,3.0889,3.0889,3.0889,3.0889,3.0889,3.0889,3.0889,3.0889,3.0713,3.0459,3.0264,3.0029,2.9756,2.9326,2.9209,2.9101,2.8682,2.8564,2.8525,2.834,2.8291,2.8291,2.8291,2.8291,2.8291,2.8291,2.8291,2.8291,2.8291,2.8291,2.8291,2.8291,2.8291,2.8203,2.7969,2.7725,2.7578,2.7578,2.7578,2.75,2.7314,2.7305,2.7217,2.7021,2.7012,2.7012,2.7012,2.7012,2.7012,2.7012,2.7207,2.7305,2.7305,2.749,2.7705,2.7939,2.7939,2.8066,2.3652,2.4463,2.5088,2.5137,2.5117,2.4941,2.4443,2.3682,2.2822,2.1904,0.0,2.1387,2.0625,2.1553,2.2744,2.3711,0.0,2.6396,2.8057,2.8701,2.9141,2.9521,2.9678,2.9746,2.9746,2.9746,2.9893,3.0264,3.0293,3.0293,3.0293,3.0674,3.0889,3.0889,3.0889,3.0889,3.0889,3.0889,3.0889,3.0889,3.0889,3.0889,3.0889,3.0889,3.0889,3.0889,0.0,0.0,3.0889,3.0889,3.0889,3.0889,3.0889,3.0889,3.0889,3.0889,3.0889,3.0889,3.0889,3.0889,3.0889,3.0889,3.0889,3.081,3.041,3.0293,3.0195,2.9775,2.9658,2.9551,2.9121,2.9004,2.8906,2.8545,2.8418,2.8379,2.8379,2.833,2.8291,2.8291,2.8291,2.8291,2.8291,2.8291,2.8291,2.8291,2.8291,2.8291,2.8291,2.8291,2.8291,2.8291,2.8291,2.8144,2.7783,2.7754,2.7588,2.7207,2.7187,2.7187,2.7187,2.7187,2.7187,2.7187,2.7559,2.7754,2.7754,2.8115,2.8291,2.8291,2.8291,2.8291,2.417,2.4678,2.5156,2.5527,2.5342,2.4863,2.4082,2.3242,0.0,0.0,2.0508,2.0205,2.0059,2.1103,2.25,2.4053,0.0,0.0,0.0,0.0,2.9482,0.0,0.0,0.0,0.0,0.0,0.0,0.0,0.0,3.0771,3.0771,3.085,3.0889,3.0889,3.0889,3.0889,3.0889,3.0889,3.0889,3.0889,3.0889,3.0889,3.0889,3.0889,3.0889,3.0889,3.0889,0.0,3.0889,3.0889,3.0889,3.0889,3.0889,3.0889,3.0889,3.0889,3.0889,3.0889,3.0889,3.0889,3.0889,3.0889,3.0889,3.0869,3.0791,3.0771,3.0674,3.0215,3.0088,2.999,2.957,2.9453,2.9443,2.9365,2.9072,2.8809,2.8809,2.8535,2.8291,2.8291,2.8291,2.8291,2.8291,2.8291,2.8291,2.8291,2.8291,2.8291,2.8291,2.8291,2.8291,2.8291,2.8291,2.8262,2.8193,2.8184,2.8144,2.8076,2.8066,2.8066,2.8066,2.8066,2.8066,2.8066,2.8144,2.8184,2.8184,2.8262,2.8291,2.8291,2.8291,2.8291,2.4365,2.4902,2.5469,2.5684,2.5225,2.4443,2.3369,0.0,0.0,0.0,1.958,1.9453,1.9004,2.0166,0.0,0.0,0.0,0.0,0.0,0.0,0.0,0.0,0.0,0.0,0.0,0.0,0.0,0.0,0.0,3.0889,3.0889,3.0889,3.0889,3.0889,3.0889,3.0889,3.0889,3.0889,3.0889,3.0889,3.0889,3.0889,3.0889,3.0889,3.0889,3.0889,3.0889,0.0,3.0889,3.0889,3.0889,3.0889,3.0889,3.0889,3.0889,3.0889,3.0889,3.0889,3.0889,3.0889,3.0889,3.0889,3.0889,3.0889,3.0889,3.0889,3.0713,2.9521,2.9212,2.9119,2.8716,2.8012,2.7488,2.8106,2.8136,2.8219,2.9027,2.9101,2.8955,2.8955,2.8955,2.8955,2.8955,2.8769,2.8613,2.8613,2.8437,2.8291,2.8291,2.8291,2.8291,2.8291,2.8291,2.8291,2.8291,2.8291,2.8291,2.8291,2.8291,2.8291,2.8291,2.8291,2.8291,2.8291,2.8291,2.8291,2.8291,2.8291,2.8291,2.8291,2.8291,2.8408,2.4414,2.5068,2.5713,2.5615,2.5,2.4062,2.2685,2.1709,0.0,0.0,1.8838,1.8838,1.8252,1.9316,2.0557,0.0,2.2715,0.0,0.0,0.0,0.0,0.0,0.0,0.0,0.0,0.0,0.0,0.0,0.0,0.0,3.0889,3.0889,3.0889,3.0889,3.0889,3.0889,3.0889,3.0889,3.0889,3.0889,3.0889,3.0889,3.0889,3.0889,3.0889,3.0889,3.0889,0.0,0.0,3.0889,3.0889,3.0889,3.0889,3.0645,3.0392,3.0392,3.0147,2.9903,2.9903,2.9903,2.9903,2.9903,3.0274,3.0889,3.0889,3.0889,3.0518,2.8911,2.8417,2.8226,2.7559,2.6398,2.5694,2.651,2.7018,2.7582,2.8775,2.9337,2.957,2.957,2.957,2.957,2.957,2.9287,2.9062,2.9062,2.8701,2.8428,2.8428,2.835,2.833,2.8418,2.834,2.8291,2.8291,2.8291,2.8291,2.8291,2.8291,2.8291,2.8291,2.8291,2.8291,2.8291,2.8291,2.834,2.8428,2.8428,2.8476,2.8564,2.8564,2.874,2.4414,2.5068,2.5635,2.5234,2.4766,2.3984,2.2324,0.0,0.0,1.8906,1.8359,1.8223,1.8525,1.9033,2.0059,2.207,0.0,2.4092,0.0,0.0,0.0,0.0,0.0,0.0,0.0,0.0,0.0,0.0,0.0,0.0,3.0889,3.0889,3.0889,3.0889,3.0889,3.0889,3.0889,3.0889,3.0889,3.0889,3.0889,3.0889,3.0889,3.0889,3.0889,3.0889,3.0889,0.0,0.0,3.0889,3.0889,3.0889,3.0889,3.002,2.8664,2.8664,2.7692,2.647,2.647,2.647,2.647,2.647,2.8426,3.0889,3.0889,3.0889,3.0518,2.8911,2.8417,2.8042,2.6548,2.6048,2.5836,2.5592,2.6589,2.7687,2.7441,2.8521,2.957,2.957,2.957,2.957,2.957,2.9531,2.9512,2.9512,2.9141,2.8857,2.8857,2.8525,2.8437,2.8818,2.8525,2.8291,2.8291,2.8291,2.8291,2.8291,2.8291,2.8291,2.8291,2.8291,2.8291,2.8291,2.8291,2.8476,2.8857,2.8857,2.9062,2.9453,2.9453,2.9473,2.4346,2.5068,2.5635,2.5176,2.4746,2.3906,2.1943,0.0,2.0127,1.8584,1.8125,1.8057,1.8223,1.8603,1.9434,2.1074,0.0,0.0,2.5127,0.0,0.0,0.0,0.0,0.0,0.0,0.0,0.0,0.0,0.0,0.0,3.0889,3.0889,3.0889,3.0889,3.0889,3.0889,3.0889,3.0889,3.0889,3.0889,3.0889,3.0889,3.0889,3.0889,3.0889,3.0889,3.0889,0.0,0.0,3.0889,3.0274,2.9403,2.9403,2.8426,2.6953,2.6953,2.6591,2.5976,2.5976,2.5976,2.5976,2.5976,2.6832,2.794,2.794,2.8664,2.8801,2.6244,2.5513,2.5391,2.4663,2.454,2.4747,2.5561,2.6251,2.7181,2.8965,2.9882,3.0361,3.0361,3.0361,3.0361,3.0361,3.0137,2.9941,2.9941,2.958,2.9307,2.9307,2.917,2.9131,2.9287,2.8926,2.8672,2.8672,2.8672,2.8564,2.831,2.8291,2.8408,2.8662,2.8672,2.8789,2.9062,2.9062,2.9141,2.9307,2.9307,2.9404,2.957,2.957,2.9707,2.4082,2.4775,2.5244,2.4805,2.4355,2.3516,0.0,2.0693,1.9922,1.834,1.8008,1.8008,1.8008,1.835,1.9014,2.0185,0.0,2.1934,2.3955,2.4717,0.0,0.0,0.0,0.0,0.0,0.0,0.0,0.0,0.0,0.0,0.0,3.0889,3.0889,3.0889,3.0889,3.0889,3.0889,3.0889,3.0889,3.0889,3.0889,3.0889,3.0889,3.0889,3.0889,3.0889,0.0,0.0,0.0,3.0392,2.953,2.8298,2.7931,2.6712,2.5253,2.5253,2.5008,2.4517,2.4517,2.4517,2.4517,2.4517,2.4885,2.5261,2.464,2.5984,2.7082,2.4425,2.3201,2.2834,2.2834,2.3201,2.3938,2.5016,2.5984,2.7323,2.9658,3.0518,3.0889,3.0889,3.0889,3.0889,3.0889,3.0625,3.04,3.04,3.0029,2.9756,2.9756,2.9648,2.9619,2.9736,2.9482,2.9248,2.9121,2.9111,2.8984,2.8691,2.8672,2.8799,2.9101,2.9111,2.9258,2.956,2.957,2.9629,2.9756,2.9756,2.9824,2.9961,2.9961,2.988,2.3564,2.4111,2.4336,2.3906,2.3477,2.2695,0.0,2.0234,1.9551,1.8271,1.8008,1.8008,1.8008,1.835,1.8926,1.9775,2.0664,0.0,2.3555,2.4531,0.0,0.0,0.0,0.0,0.0,0.0,0.0,0.0,0.0,0.0,0.0,3.0889,3.0889,3.0889,3.0889,3.0889,3.0889,3.0889,3.0889,3.0889,3.0889,3.0889,3.0889,3.0889,3.0889,0.0,0.0,0.0,0.0,2.9157,2.8417,2.8289,2.6712,2.5016,2.3574,2.3574,2.2591,2.1109,2.1109,2.1109,2.1109,2.1109,2.2215,2.3325,2.1601,2.3427,2.5741,2.4054,2.2466,2.1109,2.1109,2.2341,2.3574,2.3574,2.6114,2.8417,2.8417,2.9776,3.0889,3.0889,3.0889,3.0889,3.0889,3.0889,3.0889,3.0889,3.0488,3.0185,3.0185,2.9824,2.9726,3.0146,3.0185,3.0019,2.96,2.956,2.956,2.956,2.956,2.956,2.956,2.956,2.957,2.957,2.957,2.9775,3.0185,3.0185,3.043,3.0879,3.0879,3.0011,2.1885,2.2568,2.2949,2.2217,2.2168,2.1661,1.9305,1.8872,1.8405,1.6466,1.6088,1.6088,1.6088,1.6184,1.7071,1.9464,2.0037,0.0,0.0,0.0,0.0,0.0,0.0,0.0,0.0,0.0,0.0,0.0,0.0,0.0,0.0,3.0889,3.0889,3.0889,3.0889,3.0889,3.0889,3.0889,3.0889,3.0889,3.0889,3.0889,3.0889,3.0889,0.0,0.0,0.0,0.0,0.0,2.8664,2.7082,2.5032,2.454,2.3318,2.1846,2.1846,2.1607,2.1109,2.1109,2.1109,2.1109,2.1109,2.1481,2.1853,2.1229,2.2584,2.4054,2.2341,2.1481,2.1109,2.1109,2.1481,2.2459,2.4648,2.5984,2.7323,2.9658,3.0518,3.0889,3.0889,3.0889,3.0889,3.0889,3.0889,3.0889,3.0889,3.0762,3.0674,3.0674,3.0557,3.0527,3.0654,3.0674,3.0488,3.0039,3.0,2.9873,2.959,2.957,2.9697,2.999,3.0,3.0146,3.0469,3.0469,3.0537,3.0674,3.0674,3.0742,3.0889,2.9776,2.8911,2.0313,2.125,2.165,2.1113,2.1064,2.0574,1.8423,1.7931,1.751,1.5623,1.5234,1.5234,1.5234,1.5342,1.6068,1.8075,1.9236,2.0495,0.0,0.0,0.0,0.0,0.0,0.0,0.0,0.0,0.0,0.0,0.0,0.0,0.0,3.0889,3.0889,3.0889,3.0889,3.0889,3.0889,3.0889,3.0889,3.0889,3.0889,3.0889,3.0889,3.0889,0.0,0.0,0.0,0.0,0.0,2.7091,2.5391,2.3574,2.2959,2.1971,2.1109,2.1109,2.1109,2.1109,2.1109,2.1109,2.1109,2.1109,2.1109,2.1109,2.1109,2.1853,2.2466,2.1355,2.1109,2.1109,2.1109,2.1601,2.2702,2.5375,2.647,2.7692,3.0274,3.0889,3.0889,3.0889,3.0889,3.0889,3.0889,3.0889,3.0889,3.0889,3.0889,3.0889,3.0889,3.0889,3.0889,3.0889,3.0889,3.0771,3.0488,3.0459,3.0351,3.0088,3.0068,3.0185,3.0449,3.0459,3.0596,3.0889,3.0889,3.0889,3.0889,3.0889,3.0518,2.9903,2.8911,2.7692,0.0,1.9961,2.0332,2.0293,1.9924,1.9247,1.7888,1.7215,0.0,1.5229,1.5005,1.5005,1.5015,1.5324,1.5741,1.6149,1.8099,0.0,0.0,0.0,0.0,0.0,0.0,0.0,0.0,0.0,0.0,0.0,0.0,0.0,0.0,3.0889,3.0889,3.0889,3.0889,3.0889,3.0889,3.0889,3.0889,3.0889,3.0889,3.0889,3.0889,3.0889,0.0,0.0,0.0,0.0,0.0,2.4909,2.3574,2.3333,2.1727,2.1109,2.1109,2.1109,2.1109,2.1109,2.1109,2.1109,2.1109,2.1109,2.1109,2.1109,2.1109,2.1109,2.1109,2.1109,2.1109,2.1109,2.1109,2.2215,2.3807,2.5619,2.7194,2.8664,3.0518,3.0889,3.0889,3.0889,3.0889,3.0889,3.0889,3.0889,3.0889,3.0889,3.0889,3.0889,3.0889,3.0889,3.0889,3.0889,3.0889,3.0889,3.0889,3.0889,3.0889,3.0889,3.0889,3.0889,3.0889,3.0889,3.0889,3.0889,3.0762,3.0762,3.0762,3.0645,2.9776,2.8179,2.8059,2.6478,1.6052,0.0,1.791,1.6927,1.6865,1.6504,0.0,1.4387,1.4096,1.3201,0.0,1.2891,1.3543,1.3332,1.3918,1.6445,1.7115,1.8394,0.0,0.0,0.0,0.0,0.0,0.0,0.0,0.0,0.0,0.0,0.0,0.0,0.0,3.0889,3.0889,3.0889,3.0889,3.0889,3.0889,3.0889,3.0889,3.0889,3.0889,3.0889,3.0889,3.0889,0.0,0.0,0.0,0.0,2.647,2.4417,2.2834,2.1601,2.1229,2.1109,2.1109,2.1109,2.1109,2.1109,2.1109,2.1109,2.1109,2.1109,2.1109,2.1109,2.1109,2.1109,2.1109,2.1109,2.1109,2.1109,2.1109,2.1355,2.2459,2.5253,2.6349,2.7323,3.0274,3.0889,3.0889,3.0889,3.0889,3.0889,3.0889,3.0889,3.0889,3.0889,3.0889,3.0889,3.0889,3.0889,3.0889,3.0889,3.0889,3.0889,3.0889,3.0889,3.0889,3.0889,3.0889,3.0889,3.0889,3.0889,3.0889,3.0889,2.9648,2.903,2.903,2.7692,2.6953,2.6591,2.5269,2.4301,1.4839,1.6038,1.6766,1.6124,1.581,1.5273,1.383,1.3322,0.0,0.0,0.0,1.2058,1.2679,1.2752,1.3348,1.5347,1.6245,0.0,0.0,0.0,0.0,0.0,0.0,0.0,0.0,0.0,0.0,0.0,0.0,0.0,0.0,3.0889,3.0889,3.0889,3.0889,3.0889,3.0889,3.0889,3.0889,3.0889,3.0889,3.0889,3.0889,3.0889,3.0518,0.0,0.0,0.0,2.4778,2.3076,2.1971,2.1109,2.1109,2.1109,2.1109,2.1109,2.1109,2.1109,2.1109,2.1109,2.1109,2.1109,2.1109,2.1109,2.1109,2.1109,2.1109,2.1109,2.1109,2.1109,2.1109,2.1109,2.1964,2.5253,2.5976,2.6961,3.0157,3.0889,3.0889,3.0889,3.0889,3.0889,3.0889,3.0889,3.0889,3.0889,3.0889,3.0889,3.0889,3.0889,3.0889,3.0889,3.0889,3.0889,3.0889,3.0147,3.003,3.0889,3.0889,3.0518,2.9776,2.9776,2.9403,2.8673,2.7811,2.7314,2.7323,2.647,2.5619,2.4901,2.4062,2.3201,1.4231,1.5259,1.5887,1.5912,1.5418,1.4585,1.367,0.0,0.0,0.0,0.0,0.0,0.0,0.0,0.0,0.0,0.0,0.0,0.0,0.0,0.0,0.0,0.0,0.0,0.0,0.0,0.0,0.0,0.0,0.0,0.0,3.0147,3.0119,3.0062,3.0052,3.0023,2.9966,3.0509,3.0781,3.0781,3.0723,3.0693,3.0684,3.0451,2.9587,0.0,0.0,0.0,2.3301,2.1714,2.0975,2.0975,2.0975,2.1002,2.1042,2.1042,2.1069,2.1109,2.1109,2.1109,2.1109,2.1109,2.1109,2.1109,2.1109,2.1109,2.1109,2.1109,2.1109,2.1109,2.1109,2.1109,2.1964,2.5253,2.5976,2.6961,3.0157,3.0889,3.0889,3.0889,3.0889,3.0889,3.0889,3.0889,3.0889,3.0889,3.0889,3.0889,3.0889,3.0889,3.0889,3.0889,3.0889,3.0772,3.0518,2.9157,2.8911,3.003,3.0147,2.953,2.8051,2.8051,2.7443,2.5976,2.5741,2.5619,2.5619,2.5375,2.4525,2.3208,2.3208,2.2466,1.37,1.3793,1.3677,1.3811,1.3652,1.3194,1.2359,0.0,0.0,0.0,0.0,0.0,0.0,0.0,0.0,0.0,0.0,0.0,0.0,0.0,0.0,0.0,0.0,0.0,0.0,0.0,0.0,0.0,0.0,0.0,0.0,2.6712,2.6567,2.6363,2.6363,2.6336,2.6011,2.881,3.0303,3.0303,2.9941,2.9775,2.9766,2.8482,2.7664,0.0,0.0,2.3095,2.2744,2.1078,2.0368,2.0368,2.0368,2.0521,2.0742,2.0742,2.0902,2.1109,2.1109,2.1109,2.1109,2.1109,2.1109,2.1109,2.1109,2.1109,2.1109,2.1109,2.1109,2.1109,2.1109,2.1109,2.1964,2.5253,2.5976,2.6961,3.0157,3.0889,3.0889,3.0889,3.0889,3.0889,3.0889,3.0889,3.0889,3.0889,3.0889,3.0889,3.0889,3.0889,3.0889,3.0889,3.0889,3.0274,2.8911,2.8536,2.7931,2.6832,2.6712,2.6591,2.6349,2.634,2.6219,2.5976,2.4655,2.3938,2.3938,2.2577,2.172,2.1481,2.1481,2.1355,1.2555,1.264,1.2602,1.3124,1.3233,1.3037,1.2667,0.0,0.0,0.0,0.0,0.0,0.0,0.0,0.0,0.0,0.0,0.0,0.0,0.0,0.0,0.0,0.0,0.0,0.0,0.0,0.0,0.0,0.0,0.0,0.0,0.0,2.5434,2.5268,2.526,2.5302,2.5128,2.6381,2.7176,2.7488,2.7317,2.7227,2.7113,2.6416,2.5608,2.4686,0.0,2.2245,2.1293,2.047,2.0234,2.0234,2.0234,2.0314,2.0434,2.0434,2.0621,2.0875,2.0875,2.0982,2.1109,2.1109,2.1109,2.1109,2.1109,2.1109,2.1109,2.1109,2.1109,2.1109,2.1109,2.1109,2.1964,2.5253,2.5976,2.6961,3.0157,3.0889,3.0889,3.0889,3.0889,3.0889,3.0889,3.0889,3.0889,3.0889,3.0889,3.0889,3.0889,3.0889,3.0518,2.9648,2.953,2.8911,2.7194,2.6357,2.5871,2.5976,2.5138,2.4655,2.4655,2.3792,2.3303,2.3303,2.2584,2.2215,2.2223,2.1481,2.1109,2.1109,2.1109,2.1109,1.1696,1.1859,1.2006,1.2798,0.0,1.314,1.328,0.0,0.0,0.0,0.0,0.0,0.0,0.0,0.0,0.0,0.0,0.0,0.0,0.0,0.0,0.0,0.0,0.0,0.0,0.0,0.0,0.0,0.0,0.0,0.0,0.0,2.3927,2.3848,2.3848,2.3808,2.3729,2.3467,2.3852,2.5003,2.4804,2.4762,2.4762,2.4416,2.362,2.2473,2.2135,2.1201,2.0034,2.0034,2.0034,2.0034,2.0034,2.0067,2.0147,2.0287,2.0481,2.0688,2.0755,2.0922,2.1109,2.1109,2.1109,2.1109,2.1109,2.1109,2.1109,2.1109,2.1109,2.1109,2.1109,2.1109,2.1964,2.5253,2.5976,2.6961,3.0157,3.0889,3.0889,3.0889,3.0889,3.0889,3.0889,3.0889,3.0889,3.0889,3.0889,3.0889,3.0889,3.0889,3.0265,2.8545,2.8417,2.7563,2.5619,2.3923,2.3559,2.4763,2.3683,2.2959,2.2959,2.1727,2.1109,2.1109,2.1109,2.1109,2.1109,2.1109,2.1109,2.1109,2.1109,2.1109,1.1685,1.1574,1.133,1.2547,1.2808,0.0,1.3487,1.3387,0.0,0.0,0.0,0.0,0.0,0.0,0.0,0.0,0.0,0.0,0.0,0.0,0.0,0.0,0.0,0.0,0.0,0.0,0.0,0.0,0.0,0.0,0.0,0.0,0.0,2.0183,2.0176,2.004,1.9768,1.9747,2.135,2.4514,2.4061,2.3904,2.3904,2.2441,2.1767,2.1546,2.0218,1.9542,1.9432,1.9432,1.9432,1.9432,1.9432,1.9593,1.99,2.0441,2.0661,2.0715,2.0982,2.1089,2.1109,2.1109,2.1109,2.1109,2.1109,2.1109,2.1109,2.1109,2.1109,2.1109,2.1109,2.1109,2.1964,2.5253,2.5976,2.6961,3.0157,3.0889,3.0889,3.0889,3.0889,3.0889,3.0889,3.0889,3.0889,3.0889,3.0889,3.0889,3.0889,3.0889,3.0265,2.8545,2.8417,2.7082,2.4062,2.2215,2.1355,2.1475,2.1355,2.1229,2.1229,2.1109,2.1109,2.1109,2.1109,2.1109,2.1109,2.1109,2.1109,2.1109,2.1109,2.1109,1.0412,1.0758,1.1189,1.1997,0.0,0.0,0.0,0.0,0.0,0.0,0.0,0.0,0.0,0.0,0.0,0.0,0.0,0.0,0.0,0.0,0.0,0.0,0.0,0.0,0.0,0.0,0.0,0.0,0.0,0.0,0.0,0.0,0.0,1.9533,1.9533,1.9479,1.9366,1.9366,2.0102,2.1342,2.1103,2.1045,2.1045,2.0486,2.0256,2.0141,1.9591,1.9366,1.9366,1.9366,1.9366,1.9366,1.9366,1.9432,1.9579,1.998,2.0247,2.0441,2.0735,2.0955,2.1109,2.1109,2.1109,2.1109,2.1109,2.1109,2.1109,2.1109,2.1109,2.1109,2.1109,2.1109,2.1727,2.3923,2.5253,2.6591,2.8911,3.0147,3.0889,3.0889,3.0889,3.0889,3.0889,3.0889,3.0889,3.0889,3.0889,3.0889,3.0889,3.002,2.8673,2.7073,2.513,2.3311,2.209,2.1481,2.1109,2.1109,2.1109,2.1109,2.1109,2.1109,2.1109,2.1109,2.1109,2.1109,2.1109,2.1109,2.1109,2.1109,2.1109,2.1109,0.988,1.0468,1.1156,0.0,0.0,0.0,0.0,0.0,0.0,0.0,0.0,0.0,0.0,0.0,0.0,0.0,0.0,0.0,0.0,0.0,0.0,0.0,0.0,0.0,0.0,0.0,0.0,0.0,0.0,0.0,0.0,0.0,0.0,0.0,1.9366,1.9366,1.9366,1.9366,1.9366,1.9366,1.9366,1.9366,1.9366,1.9366,1.9366,1.9366,1.9366,1.9366,1.9366,1.9366,1.9366,1.9366,1.9366,1.9366,1.9406,1.9693,1.9927,2.014,2.0434,2.0728,2.0969,2.0969,2.1036,2.1109,2.1109,2.1109,2.1109,2.1109,2.1109,2.1109,2.1109,2.1109,2.1475,2.3208,2.4778,2.647,2.8051,2.9776,3.0889,3.0889,3.0889,3.0889,3.0889,3.0889,3.0889,3.0889,3.0889,3.0762,3.0147,2.9157,2.7572,2.5497,2.2695,2.1109,2.1109,2.1109,2.1109,2.1109,2.1109,2.1109,2.1109,2.1109,2.1109,2.1109,2.1109,2.1109,2.1109,2.1109,2.1109,2.1109,2.1109,2.1109,1.0474,1.0768,1.1202,0.0,0.0,0.0,0.0,0.0,0.0,0.0,0.0,0.0,0.0,0.0,0.0,0.0,0.0,0.0,0.0,0.0,0.0,0.0,0.0,0.0,0.0,0.0,0.0,0.0,0.0,0.0,0.0,0.0,0.0,0.0,1.9366,1.9366,1.9366,1.9366,1.9366,1.9366,1.9366,1.9366,1.9366,1.9366,1.9366,1.9366,1.9366,1.9366,1.9366,1.9366,1.9366,1.9366,1.9366,1.9366,1.9406,1.9693,1.98,1.9846,2.0134,2.0428,2.0675,2.0675,2.0869,2.1109,2.1109,2.1109,2.1109,2.1109,2.1109,2.1109,2.1109,2.1109,2.1481,2.3201,2.4778,2.647,2.8051,2.9658,3.0889,3.0889,3.0889,3.0889,3.0889,3.0889,3.0889,3.0889,3.0889,3.0274,2.8545,2.8298,2.7091,2.3938,2.2097,2.1109,2.1109,2.1109,2.1109,2.1109,2.1109,2.1109,2.1109,2.1109,2.1109,2.1109,2.1109,2.1109,2.1109,2.1109,2.1109,2.1109,2.1109,2.1109,0.992,1.0461,0.0,0.0,0.0,0.0,0.0,0.0,0.0,0.0,0.0,0.0,0.0,0.0,0.0,0.0,0.0,0.0,0.0,0.0,0.0,0.0,0.0,0.0,0.0,0.0,0.0,0.0,0.0,0.0,0.0,0.0,0.0,0.0,1.9366,1.9366,1.9366,1.9366,1.9366,1.9366,1.9366,1.9366,1.9366,1.9366,1.9366,1.9366,1.9366,1.9366,1.9366,1.9366,1.9366,1.9366,1.9366,1.9366,1.9406,1.9693,1.98,1.9846,2.0134,2.0428,2.0675,2.0675,2.0869,2.1109,2.1109,2.1109,2.1109,2.1109,2.1109,2.1109,2.1109,2.1109,2.1229,2.1727,2.3915,2.6098,2.6591,2.892,3.0889,3.0889,2.9903,2.9157,2.9157,2.9157,2.8792,2.7572,2.8426,2.8179,2.5391,2.5032,2.417,2.2097,2.1355,2.1109,2.1109,2.1109,2.1109,2.1109,2.1109,2.1109,2.1109,2.1109,2.1109,2.1109,2.1109,2.1109,2.1109,2.1109,2.1109,2.1109,2.1109,2.1109,1.014,1.0762,0.0,0.0,0.0,0.0,0.0,0.0,0.0,0.0,0.0,0.0,0.0,0.0,0.0,0.0,0.0,0.0,0.0,0.0,0.0,0.0,0.0,0.0,0.0,0.0,0.0,0.0,0.0,0.0,0.0,0.0,0.0,0.0,1.9366,1.9366,1.9366,1.9252,1.9192,1.9192,1.9192,1.9192,1.9192,1.9312,1.9366,1.9366,1.9366,1.9366,1.9366,1.9366,1.9366,1.9366,1.9366,1.9366,1.9392,1.9559,1.9626,1.9653,1.9826,2.008,2.0347,2.0461,2.0702,2.0955,2.1076,2.1109,2.1109,2.1109,2.1109,2.1109,2.1109,2.1109,2.1109,2.1109,2.3668,2.5976,2.5976,2.8554,3.0889,3.0889,2.953,2.8417,2.8417,2.7931,2.7073,2.6098,2.6227,2.5757,2.3814,2.2959,2.2223,2.1235,2.1109,2.1109,2.1109,2.1109,2.1109,2.1109,2.1109,2.1109,2.1109,2.1109,2.1109,2.1109,2.1109,2.1109,2.1109,2.1109,2.1109,2.1109,2.1109,2.1109,1.0795,0.0,0.0,1.338,0.0,0.0,0.0,0.0,0.0,0.0,0.0,0.0,0.0,0.0,0.0,0.0,0.0,0.0,0.0,0.0,0.0,0.0,0.0,0.0,0.0,0.0,0.0,0.0,0.0,0.0,0.0,0.0,0.0,1.9285,1.9285,1.9285,1.9285,1.9018,1.8885,0.0,1.8885,1.8885,1.8898,1.9219,1.9366,1.9366,1.9366,1.9366,1.9366,1.9366,1.9366,1.9366,1.9366,1.9366,1.9366,1.9366,1.9366,1.9366,1.9366,1.9559,1.9846,2.014,2.0434,2.0728,2.1022,2.1109,2.1109,2.1109,2.1109,2.1109,2.1109,2.1109,2.1109,2.1109,2.3551,2.5741,2.5741,2.8188,3.0401,3.0401,2.9157,2.7931,2.7931,2.6712,2.5741,2.5741,2.4417,2.3325,2.3325,2.2097,2.1109,2.1109,2.1109,2.1109,2.1109,2.1109,2.1109,2.1109,2.1109,2.1109,2.1109,2.1109,2.1109,2.1109,2.1109,2.1109,2.1109,2.1109,2.1109,2.1109,2.1109,2.1109,1.0494,1.1249,0.0,0.0,1.5124,0.0,0.0,0.0,0.0,0.0,0.0,0.0,0.0,0.0,0.0,0.0,0.0,0.0,0.0,0.0,0.0,0.0,0.0,0.0,0.0,0.0,0.0,0.0,0.0,0.0,0.0,0.0,0.0,1.8677,1.8677,1.8677,1.8677,1.8617,1.8584,0.0,1.8584,1.8584,1.8604,1.9132,1.9366,1.9366,1.9366,1.9366,1.9366,1.9366,1.9366,1.9366,1.9366,1.9366,1.9366,1.9366,1.9366,1.9366,1.9366,1.9559,1.9846,2.014,2.0434,2.0728,2.1022,2.1109,2.1109,2.1109,2.1109,2.1109,2.1109,2.1109,2.1109,2.1109,2.2577,2.4178,2.4178,2.5627,2.7082,2.7082,2.5749,2.4663,2.4663,2.4301,2.4178,2.4178,2.2709,2.1601,2.1601,2.1355,2.1109,2.1109,2.1109,2.1109,2.1109,2.1109,2.1109,2.1109,2.1109,2.1109,2.1109,2.1109,2.1109,2.1109,2.1109,2.1109,2.1109,2.1109,2.1109,2.1109,2.1109,2.1109,1.067,0.0,0.0,1.333,0.0,0.0,0.0,0.0,0.0,0.0,0.0,0.0,0.0,0.0,0.0,0.0,0.0,0.0,0.0,0.0,0.0,0.0,0.0,0.0,0.0,0.0,0.0,0.0,0.0,0.0,0.0,1.8577,1.849,1.849,1.849,1.849,1.849,1.835,1.8277,1.8277,1.8277,1.835,1.8504,1.8811,1.9025,1.9158,1.9158,1.9232,1.9366,1.9366,1.9366,1.9366,1.9366,1.9366,1.9366,1.9366,1.9366,1.9366,1.9366,1.9466,1.9639,1.9927,2.0227,2.0521,2.0815,2.0995,2.1109,2.1109,2.1109,2.1109,2.1109,2.1109,2.1109,2.1109,2.2341,2.3574,2.3574,2.4901,2.5976,2.5976,2.4655,2.3574,2.3574,2.2959,2.2341,2.2341,2.1601,2.1109,2.1109,2.1109,2.1109,2.1109,2.1109,2.1109,2.1109,2.1109,2.1109,2.1109,2.1109,2.1109,2.1109,2.1109,2.1109,2.1109,2.1109,2.1109,2.1109,2.1109,2.1109,2.1109,2.1109,2.1109,1.0371,0.0,1.1184,1.3036,1.4758,0.0,1.6573,0.0,0.0,0.0,0.0,0.0,0.0,0.0,0.0,0.0,0.0,0.0,0.0,0.0,0.0,0.0,0.0,0.0,0.0,0.0,0.0,0.0,0.0,0.0,1.841,1.8364,1.8337,1.8337,1.8337,1.8337,1.8337,1.809,1.7969,1.7969,1.7969,1.8096,1.8337,1.8337,1.8524,1.8851,1.8905,1.9065,1.9292,1.9345,1.9366,1.9366,1.9366,1.9366,1.9366,1.9366,1.9366,1.9366,1.9366,1.9366,1.9412,1.9706,1.9993,2.0287,2.0588,2.0882,2.1109,2.1109,2.1109,2.1109,2.1109,2.1109,2.1109,2.1109,2.2215,2.3208,2.3208,2.4163,2.513,2.513,2.4047,2.3208,2.3208,2.1971,2.1109,2.1109,2.1109,2.1109,2.1109,2.1109,2.1109,2.1109,2.1109,2.1109,2.1109,2.1109,2.1109,2.1109,2.1109,2.1109,2.1109,2.1109,2.1109,2.1109,2.1109,2.1109,2.1109,2.1109,2.1109,2.1109,2.1109,2.1109,0.0,0.0,1.1101,0.0,1.4082,1.4869,0.0,0.0,0.0,0.0,0.0,0.0,0.0,0.0,0.0,0.0,0.0,0.0,0.0,0.0,0.0,0.0,0.0,0.0,0.0,0.0,0.0,0.0,0.0,0.0,1.8103,1.7849,1.7702,1.7702,1.7702,1.7702,1.7702,1.7662,1.7642,1.7642,1.7642,1.7662,1.7702,1.7702,1.8009,1.8564,1.8818,1.8945,1.8998,1.9259,1.9366,1.9366,1.9366,1.9366,1.9366,1.9366,1.9366,1.9366,1.9366,1.9366,1.9412,1.9706,1.9993,2.0287,2.0588,2.0882,2.1109,2.1109,2.1109,2.1109,2.1109,2.1109,2.1109,2.1109,2.1229,2.1481,2.1481,2.1601,2.172,2.172,2.1601,2.1481,2.1481,2.1229,2.1109,2.1109,2.1109,2.1109,2.1109,2.1109,2.1109,2.1109,2.1109,2.1109,2.1109,2.1109,2.1109,2.1109,2.1109,2.1109,2.1109,2.1109,2.1109,2.1109,2.1109,2.1109,2.1109,2.1109,2.1109,2.1109,2.1109,2.1109,0.7527,0.9084,1.0674,0.0,1.2135,1.3033,1.3912,0.0,0.0,0.0,0.0,0.0,0.0,0.0,0.0,0.0,0.0,0.0,0.0,0.0,0.0,0.0,0.0,0.0,0.0,0.0,0.0,0.0,0.0,1.7789,1.7789,1.7655,1.7582,1.7582,1.7582,1.7582,1.7582,1.7582,1.7582,1.7582,1.7582,1.7582,1.7582,1.7582,1.7822,1.825,1.8377,1.8617,1.8931,1.9065,1.9219,1.9366,1.9366,1.9366,1.9366,1.9366,1.9366,1.9366,1.9366,1.9366,1.9392,1.9512,1.9867,2.0261,2.0388,2.0748,2.1109,2.1109,2.1109,2.1109,2.1109,2.1109,2.1109,2.1109,2.1109,2.1109,2.1109,2.1109,2.1109,2.1109,2.1109,2.1109,2.1109,2.1109,2.1109,2.1109,2.1109,2.1109,2.1109,2.1109,2.1109,2.1109,2.1109,2.1109,2.1109,2.1109,2.1109,2.1109,2.1109,2.1109,2.1109,2.1109,2.1109,2.1109,2.1109,2.1109,2.1109,2.1109,2.1109,2.1109,2.1109,2.1109,0.0,0.0,0.9313,0.9556,1.0375,1.1342,0.0,0.0,0.0,0.0,0.0,0.0,0.0,0.0,0.0,0.0,0.0,0.0,0.0,0.0,0.0,0.0,0.0,0.0,0.0,0.0,0.0,0.0,0.0,1.747,1.7041,1.7041,1.6929,1.6499,1.6499,1.6499,1.6499,1.6499,1.6499,1.6499,1.6823,1.7041,1.7041,1.7041,1.7164,1.7378,1.7793,1.8071,1.813,1.8745,1.8816,1.8777,1.9216,1.9366,1.9366,1.9366,1.9366,1.9366,1.9366,1.9366,1.9366,1.9366,1.9713,2.0134,2.0214,2.0588,2.1015,2.1089,2.1109,2.1109,2.1109,2.1109,2.1109,2.1109,2.1109,2.1109,2.1109,2.1109,2.1109,2.1109,2.1109,2.1109,2.1109,2.1109,2.1109,2.1109,2.1109,2.1109,2.1109,2.1109,2.1109,2.1109,2.1109,2.1109,2.1109,2.1109,2.1109,2.1109,2.1109,2.1109,2.1109,2.1109,2.1109,2.1109,2.1109,2.1109,2.1109,2.1109,2.1109,2.1109,2.1109,2.1109,0.0,0.5759,0.0,0.8425,0.9318,0.0,0.0,0.0,0.0,0.0,0.0,0.0,0.0,0.0,0.0,0.0,0.0,0.0,0.0,0.0,0.0,0.0,0.0,0.0,0.0,0.0,0.0,0.0,0.0,1.7041,1.563,1.5524,1.4877,1.3588,1.348,1.348,1.348,1.348,1.348,1.3588,1.4877,1.5524,1.5524,1.5524,1.553,1.5666,1.7257,1.7277,1.6216,1.811,1.8103,1.696,1.8777,1.9366,1.9366,1.9366,1.9366,1.9366,1.9366,1.9366,1.9366,1.9366,1.9573,1.9873,2.0147,2.0448,2.0755,2.1036,2.1109,2.1109,2.1109,2.1109,2.1109,2.1109,2.1109,2.1109,2.1109,2.1109,2.1109,2.1109,2.1109,2.1109,2.1109,2.1109,2.1109,2.1109,2.1109,2.1109,2.1109,2.1109,2.1109,2.1109,2.1109,2.1109,2.1109,2.1109,2.1109,2.1109,2.1109,2.1109,2.1109,2.1109,2.1109,2.1109,2.1109,2.1109,2.1109,2.1109,2.1109,2.1109,2.1109,2.1109,0.0,0.0,0.0,0.7099,0.7647,0.817,0.0,0.0,0.0,0.0,0.0,0.0,0.0,0.0,0.0,0.0,0.0,0.0,0.0,0.0,0.0,0.0,0.0,0.0,0.0,0.0,0.0,0.0,0.0,0.0,1.4126,1.4019,1.3804,1.327,1.3264,1.3264,1.3264,1.3264,1.3264,1.3264,1.3804,1.4019,1.4019,1.4019,1.4019,1.4132,1.4764,1.4783,1.4492,1.5227,1.5484,1.5429,1.7026,1.7762,1.7923,1.901,1.9366,1.9366,1.9366,1.9366,1.9366,1.9366,1.9686,2.0094,2.0201,2.0568,2.0975,2.1082,2.1109,2.1109,2.1109,2.1109,2.1109,2.1109,2.1109,2.1109,2.1109,2.1109,2.1109,2.1109,2.1109,2.1109,2.1109,2.1109,2.1109,2.1109,2.1109,2.1109,2.1109,2.1109,2.1109,2.1109,2.1109,2.1109,2.1109,2.1109,2.1109,2.1109,2.1109,2.1109,2.1109,2.1109,2.1109,2.1109,2.1109,2.1109,2.1109,2.1109,2.1109,2.1109,2.1109,2.1109,0.4931,0.0,0.0,0.0,0.0,0.6912,0.7472,0.0,0.0,0.0,0.0,0.0,0.0,0.0,0.0,0.0,0.0,0.0,0.0,0.0,0.0,0.0,0.0,0.0,0.0,0.0,0.0,0.0,0.0,0.0,1.262,1.2512,1.2262,1.1765,1.176,1.176,1.176,1.1828,1.1864,1.1864,1.2295,1.2512,1.2512,1.2512,1.2512,1.2512,1.2077,1.2265,1.2832,1.3452,1.3546,1.3595,1.5237,1.6327,1.7077,1.8131,1.8887,1.9366,1.9366,1.9366,1.9366,1.9366,1.9693,2.0107,2.0201,2.0575,2.0982,2.1082,2.1109,2.1109,2.1109,2.1109,2.1109,2.1109,2.1109,2.1109,2.1109,2.1109,2.1109,2.1109,2.1109,2.1109,2.1109,2.1109,2.1109,2.1109,2.1109,2.1109,2.1109,2.1109,2.1109,2.1109,2.1109,2.1109,2.1109,2.1109,2.1109,2.1109,2.1109,2.1109,2.1109,2.1109,2.1109,2.1109,2.1109,2.1109,2.1109,2.1109,2.1109,2.1109,2.1109,2.1109,0.0,0.0,0.0,0.0,0.0,0.0,0.0,0.0,0.0,0.0,0.0,0.0,0.0,0.0,0.0,0.0,0.0,0.0,0.0,0.0,0.0,0.0,0.0,0.0,0.0,0.0,0.0,0.0,0.0,1.2502,1.1097,1.0983,1.0361,0.871,0.8703,0.8703,0.8703,0.8855,0.893,0.8933,1.0347,1.1,1.1,1.1,1.1,1.1,0.9482,0.9699,1.1122,1.2836,1.2701,1.1638,1.3624,1.5297,1.6712,1.6868,1.8046,1.9366,1.9366,1.9366,1.9366,1.9366,1.9573,1.9867,2.0147,2.0448,2.0748,2.1029,2.1109,2.1109,2.1109,2.1109,2.1109,2.1109,2.1109,2.1109,2.1109,2.1109,2.1109,2.1109,2.1109,2.1109,2.1109,2.1109,2.1109,2.1109,2.1109,2.1109,2.1109,2.1109,2.1109,2.1109,2.1109,2.1109,2.1109,2.1109,2.1109,2.1109,2.1109,2.1109,2.1109,2.1109,2.1109,2.1109,2.1109,2.1109,2.1109,2.1109,2.1109,2.1109,2.1109,2.1109,0.4721,0.0,0.0,0.0,0.0,0.0,0.0,0.0,0.0,0.0,0.0,0.0,0.0,0.0,0.0,0.0,0.0,0.0,0.0,0.0,0.0,0.0,0.0,0.0,0.0,0.0,0.0,0.0,0.9946,0.9842,0.9414,0.9301,0.9005,0.8547,0.8547,0.8547,0.8547,0.8696,0.8774,0.8774,0.9318,0.9482,0.9482,0.9482,0.9482,0.9482,0.9047,0.9158,0.9592,1.0075,1.0051,1.0066,1.1875,1.3548,1.5214,1.6517,1.8046,1.9366,1.9366,1.9366,1.9366,1.9366,1.9706,2.0127,2.0207,2.0588,2.1002,2.1089,2.1109,2.1109,2.1109,2.1109,2.1109,2.1109,2.1109,2.1109,2.1109,2.1109,2.1109,2.1109,2.1109,2.1109,2.1109,2.1109,2.1109,2.1109,2.1109,2.1109,2.1109,2.1109,2.1109,2.1109,2.1109,2.1109,2.1109,2.1109,2.1109,2.1109,2.1109,2.1109,2.1109,2.1109,2.1109,2.1109,2.1109,2.1109,2.1109,2.1109,2.1109,2.1109,2.1109,2.1109,0.0,0.0,0.0,0.0,0.0,0.0,0.0,0.6363,0.0,0.0,0.0,0.0,0.0,0.0,0.0,0.0,0.0,0.0,0.0,0.0,0.0,0.0,0.0,0.0,0.0,0.0,0.0,0.8615,0.8615,0.8615,0.8615,0.8476,0.8394,0.8394,0.8394,0.8394,0.8394,0.854,0.8648,0.8713,0.8801,0.8876,0.894,0.894,0.894,0.894,0.894,0.894,0.894,0.894,0.8988,0.9195,1.0318,1.1846,1.3476,1.5306,1.6973,1.8525,1.9127,1.9366,1.9366,1.9366,1.976,2.0234,2.0234,2.0641,2.1109,2.1109,2.1109,2.1109,2.1109,2.1109,2.1109,2.1109,2.1109,2.1109,2.1109,2.1109,2.1109,2.1109,2.1109,2.1109,2.1109,2.1109,2.1109,2.1109,2.1109,2.1109,2.1109,2.1109,2.1109,2.1109,2.1109,2.1109,2.1109,2.1109,2.1109,2.1109,2.1109,2.1109,2.1109,2.1109,2.1109,2.1109,2.1109,2.1109,2.1109,2.1109,2.1109,2.1109,2.1109,2.1109,0.0,0.0,0.0,0.0,0.0,0.0,0.6322,0.6268,0.6203,0.0,0.0,0.0,0.0,0.0,0.0,0.0,0.0,0.0,0.0,0.0,0.0,0.0,0.0,0.0,0.0,0.8448,0.8459,0.8459,0.8459,0.8452,0.8435,0.8313,0.8245,0.8245,0.8245,0.8245,0.8245,0.8387,0.8526,0.8662,0.8696,0.8781,0.8913,0.893,0.894,0.894,0.894,0.894,0.894,0.894,0.894,0.8967,0.9266,1.0412,1.2055,1.3731,1.5311,1.6968,1.8525,1.9127,1.9127,1.9366,1.974,2.0187,2.0221,2.0621,2.1069,2.1096,2.1109,2.1109,2.1109,2.1109,2.1109,2.1109,2.1109,2.1109,2.1109,2.1109,2.1109,2.1109,2.1109,2.1109,2.1109,2.1109,2.1109,2.1109,2.1109,2.1109,2.1109,2.1109,2.1109,2.1109,2.1109,2.1109,2.1109,2.1109,2.1109,2.1109,2.1109,2.1109,2.1109,2.1109,2.1109,2.1109,2.1109,2.1109,2.1109,2.1109,2.1109,2.1109,2.1109,2.1109,0.0,0.0,0.0,0.0,0.0,0.0,0.565,0.5739,0.5959,0.0,0.0,0.0,0.0,0.0,0.0,0.0,0.0,0.0,0.0,0.0,0.0,0.0,0.0,0.0,0.0,0.8238,0.8313,0.8313,0.8313,0.8258,0.8133,0.8099,0.8085,0.8085,0.8085,0.8085,0.8085,0.8238,0.8326,0.836,0.8598,0.8726,0.876,0.8882,0.894,0.894,0.894,0.894,0.894,0.894,0.894,0.8967,0.9266,1.0412,1.1825,1.2434,1.3646,1.5311,1.685,1.7443,1.7683,1.9004,1.9599,1.9927,2.016,2.0481,2.0808,2.1042,2.1109,2.1109,2.1109,2.1109,2.1109,2.1109,2.1109,2.1109,2.1109,2.1109,2.1109,2.1109,2.1109,2.1109,2.1109,2.1109,2.1109,2.1109,2.1109,2.1109,2.1109,2.1109,2.1109,2.1109,2.1109,2.1109,2.1109,2.1109,2.1109,2.1109,2.1109,2.1109,2.1109,2.1109,2.1109,2.1109,2.1109,2.1109,2.1109,2.1109,2.1109,2.1109,2.1109,2.1109,0.0,0.0,0.0,0.581,0.0,0.0,0.0,0.0,0.5732,0.6257,0.0,0.0,0.0,0.0,0.0,0.0,0.0,0.0,0.0,0.0,0.0,0.0,0.0,0.0,0.0,0.8109,0.8153,0.8153,0.8153,0.8123,0.8041,0.8038,0.8038,0.8038,0.8038,0.8038,0.8038,0.8116,0.8194,0.8272,0.8492,0.8635,0.8716,0.8869,0.894,0.894,0.894,0.894,0.894,0.894,0.894,0.8967,0.9266,0.9838,1.0682,1.1844,1.2693,1.3646,1.5192,1.6374,1.7085,1.7923,1.8952,1.9853,2.0147,2.0541,2.0922,2.1069,2.1109,2.1109,2.1109,2.1109,2.1109,2.1109,2.1109,2.1109,2.1109,2.1109,2.1109,2.1109,2.1109,2.1109,2.1109,2.1109,2.1109,2.1109,2.1109,2.1109,2.1109,2.1109,2.1109,2.1109,2.1109,2.1109,2.1109,2.1109,2.1109,2.1109,2.1109,2.1109,2.1109,2.1109,2.1109,2.1109,2.1109,2.1109,2.1109,2.1109,2.1109,2.1109,2.1109,2.1109,0.0,0.0,0.0,0.0,0.0,0.5739,0.0,0.0,0.0,0.619,0.0,0.0,0.0,0.0,0.0,0.0,0.0,0.0,0.0,0.0,0.0,0.0,0.0,0.0,0.0,0.7943,0.7946,0.8031,0.796,0.7946,0.8035,0.8038,0.8038,0.8038,0.8038,0.8038,0.8038,0.8038,0.8102,0.8228,0.8401,0.8547,0.8672,0.8855,0.894,0.894,0.894,0.894,0.894,0.894,0.894,0.8967,0.9266,0.9381,0.9648,1.1133,1.1736,1.1976,1.3531,1.5192,1.6609,1.685,1.8227,1.9853,2.0147,2.0608,2.1036,2.1096,2.1109,2.1109,2.1109,2.1109,2.1109,2.1109,2.1109,2.1109,2.1109,2.1109,2.1109,2.1109,2.1109,2.1109,2.1109,2.1109,2.1109,2.1109,2.1109,2.1109,2.1109,2.1109,2.1109,2.1109,2.1109,2.1109,2.1109,2.1109,2.1109,2.1109,2.1109,2.1109,2.1109,2.1109,2.1109,2.1109,2.1109,2.1109,2.1109,2.1109,2.1109,2.1109,2.1109,2.1109,0.0,0.0,0.0,0.0,0.6603,0.0,0.0,0.0,0.5901,0.5728,0.0,0.0,0.0,0.0,0.0,0.0,0.0,0.0,0.0,0.0,0.0,0.0,0.0,0.0,0.0,0.0,0.7611,0.8011,0.7672,0.7621,0.8018,0.8038,0.8038,0.8038,0.8038,0.8038,0.8038,0.8038,0.8048,0.8069,0.835,0.8489,0.8516,0.8808,0.894,0.894,0.894,0.894,0.894,0.894,0.894,0.8967,0.9266,0.9381,0.9418,0.995,1.0061,1.0301,1.1856,1.3526,1.5074,1.6497,1.8227,1.9853,2.0147,2.0468,2.0775,2.1036,2.1109,2.1109,2.1109,2.1109,2.1109,2.1109,2.1109,2.1109,2.1109,2.1109,2.1109,2.1109,2.1109,2.1109,2.1109,2.1109,2.1109,2.1109,2.1109,2.1109,2.1109,2.1109,2.1109,2.1109,2.1109,2.1109,2.1109,2.1109,2.1109,2.1109,2.1109,2.1109,2.1109,2.1109,2.1109,2.1109,2.1109,2.1109,2.1109,2.1109,2.1109,2.1109,2.1109,2.1109,0.0,0.0,0.0,0.0,0.0,0.0,0.5772,0.0,0.5654,0.0,0.0,0.0,0.0,0.0,0.0,0.0,0.0,0.0,0.0,0.0,0.0,0.0,0.0,0.0,0.0,0.0,0.0,0.0,0.0,0.7529,0.7889,0.7991,0.8038,0.8038,0.8038,0.8038,0.8038,0.8038,0.8038,0.8041,0.834,0.8482,0.8492,0.8801,0.894,0.894,0.894,0.894,0.894,0.894,0.894,0.896,0.9167,0.9303,0.9408,0.9622,0.9751,0.9943,1.0539,1.1856,1.3646,1.6138,1.8227,1.9853,2.0147,1.9685,1.9456,2.077,2.0329,1.9807,2.0849,2.1109,2.1109,2.1109,2.1109,2.1109,2.1109,2.1109,2.1109,2.1109,2.1109,2.1109,2.1109,2.1109,2.1109,2.1109,2.1109,2.1109,2.1109,2.1109,2.1109,2.1109,2.1109,2.1109,2.1109,2.1109,2.1109,2.1109,2.1109,2.1109,2.1109,2.1109,2.1109,2.1109,2.1109,2.1109,2.1109,2.1109,2.1109,2.1109,2.1109,2.1109,0.717,0.0,0.0,0.0,0.0,0.0,0.0,0.0,0.0,0.0,0.0,0.0,0.0,0.0,0.0,0.0,0.0,0.0,0.0,0.0,0.0,0.0,0.0,0.0,0.0,0.0,0.0,0.0,0.0,0.0,0.7787,0.7916,0.7994,0.8038,0.8038,0.8038,0.8038,0.8038,0.8038,0.8041,0.834,0.8482,0.8492,0.8801,0.894,0.894,0.894,0.894,0.894,0.894,0.894,0.895,0.9052,0.9211,0.9401,0.9554,0.97,0.9822,0.9822,1.1137,1.3287,1.6138,1.8177,1.9746,2.012,1.9504,1.8976,2.0617,2.0195,1.9546,2.0722,2.1109,2.1109,2.1109,2.1109,2.1109,2.1109,2.1109,2.1109,2.1109,2.1109,2.1109,2.1109,2.1109,2.1109,2.1109,2.1109,2.1109,2.1109,2.1109,2.1109,2.1109,2.1109,2.1109,2.1109,2.1109,2.1109,2.1109,2.1109,2.1109,2.1109,2.1109,2.1109,2.1109,2.1109,2.1109,2.1109,2.1109,2.1109,2.1109,2.1109,2.1109,0.0,0.0,0.0,0.6881,0.0,0.0,0.0,0.0,0.601,0.0,0.0,0.0,0.0,0.0,0.0,0.0,0.0,0.0,0.0,0.0,0.0,0.0,0.0,0.0,0.0,0.0,0.0,0.0,0.0,0.0,0.7763,0.7818,0.7885,0.8035,0.8038,0.8038,0.8038,0.8038,0.8038,0.8041,0.834,0.8482,0.8492,0.8801,0.894,0.894,0.894,0.894,0.894,0.894,0.894,0.894,0.8944,0.9123,0.9401,0.9554,0.97,0.9822,0.9822,1.1856,1.4837,1.6492,1.8052,1.9486,2.006,2.0119,2.0245,2.0949,2.1109,2.0982,2.1109,2.1109,2.1109,2.1109,2.1109,2.1109,2.1109,2.1109,2.1109,2.1109,2.1109,2.1109,2.1109,2.1109,2.1109,2.1109,2.1109,2.1109,2.1109,2.1109,2.1109,2.1109,2.1109,2.1109,2.1109,2.1109,2.1109,2.1109,2.1109,2.1109,2.1109,2.1109,2.1109,2.1109,2.1109,2.1109,2.1109,2.1109,2.1109,2.1109,2.1109,2.1109,0.0,0.0,0.7702,0.7258,0.0,0.0,0.0,0.0,0.0,0.0,0.0,0.0,0.0,0.0,0.0,0.0,0.0,0.0,0.0,0.0,0.0,0.0,0.0,0.0,0.0,0.0,0.0,0.0,0.6681,0.0,0.0,0.776,0.7882,0.8035,0.8038,0.8038,0.8038,0.8038,0.8038,0.8041,0.8245,0.8391,0.8489,0.8696,0.8842,0.894,0.894,0.894,0.894,0.894,0.894,0.8947,0.9045,0.9205,0.9388,0.9439,0.9612,0.9822,0.9822,1.1257,1.3048,1.3641,1.566,1.7669,1.7085,1.7614,1.86,1.9265,1.9413,1.9674,2.0849,2.1109,2.1109,2.1109,2.1109,2.1109,2.1109,2.1109,2.1109,2.1109,2.1109,2.1109,2.1109,2.1109,2.1109,2.1109,2.1109,2.1109,2.1109,2.1109,2.1109,2.1109,2.1109,2.1109,2.1109,2.1109,2.1109,2.1109,2.1109,2.1109,2.1109,2.1109,2.1109,2.1109,2.1109,2.1109,2.1109,2.1109,2.1109,2.1109,2.1109,2.1109,0.7868,0.7892,0.0,0.7458,0.7153,0.0,0.6302,0.0,0.0,0.0,0.0,0.0,0.0,0.0,0.0,0.0,0.0,0.0,0.0,0.0,0.0,0.0,0.0,0.0,0.0,0.0,0.6186,0.6454,0.0,0.0,0.0,0.0,0.7804,0.7953,0.8011,0.8038,0.8038,0.8038,0.8038,0.8041,0.8248,0.8394,0.8489,0.8696,0.8845,0.894,0.894,0.894,0.894,0.894,0.894,0.8954,0.9096,0.9245,0.9388,0.9442,0.9615,0.9822,0.9822,1.1257,1.3053,1.3053,1.5187,1.7663,1.6475,1.724,1.8471,1.8492,1.8896,1.9674,2.0849,2.1109,2.1109,2.1109,2.1109,2.1109,2.1109,2.1109,2.1109,2.1109,2.1109,2.1109,2.1109,2.1109,2.1109,2.1109,2.1109,2.1109,2.1109,2.1109,2.1109,2.1109,2.1109,2.1109,2.1109,2.1109,2.1109,2.1109,2.1109,2.1109,2.1109,2.1109,2.1109,2.1109,2.1109,2.1109,2.1109,2.1109,2.1109,2.1109,2.1109,2.1109]}]]